GFSGBSN_sfc_thetae_000.txt.gz
Theta_e
316 316 315 315 315 314 314 314 315 315 315 315 315 316 316 316 317 317 318 318 318 317 318 319 320 320 322 316 315 329 344 346 335 336 321 319 315 316 313 317 318 317 320 322 324 327 329
316 316 315 315 315 314 315 314 314 314 314 315 315 316 316 316 316 317 317 317 316 316 317 318 320 319 320 309 322 328 333 336 330 326 320 319 316 318 316 316 317 319 319 320 322 327 330
316 316 315 315 314 314 314 314 314 313 314 314 315 315 316 316 316 316 316 315 314 314 316 319 321 321 318 314 322 324 324 325 329 326 320 320 320 316 317 316 321 320 318 323 324 327 328
315 315 314 314 315 314 314 314 313 313 313 314 314 314 314 314 314 315 314 313 313 316 319 322 321 324 315 325 328 325 326 325 326 330 324 323 322 318 317 321 318 317 319 316 324 328 329
314 315 314 315 315 315 314 313 313 313 313 314 314 313 314 314 314 314 312 312 314 319 320 322 324 322 314 326 323 327 328 321 321 323 323 321 320 317 317 314 314 317 312 315 321 329 329
314 314 314 315 314 314 314 313 313 313 313 314 314 314 313 313 313 311 311 312 317 322 323 325 325 319 321 316 324 322 328 321 318 320 317 316 315 312 313 312 307 312 312 315 316 325 328
314 314 314 314 314 314 313 313 312 312 312 313 314 313 313 312 311 310 311 315 315 316 320 315 314 316 315 320 322 320 324 318 317 317 309 312 308 306 311 315 316 316 316 315 318 326 325
314 314 314 313 313 313 313 312 312 312 312 312 313 312 312 311 310 309 311 306 308 307 303 310 311 311 315 317 310 315 323 316 313 309 312 308 305 311 313 314 314 315 314 315 319 325 325
314 314 313 313 313 314 314 313 313 312 312 312 312 312 311 310 309 311 307 308 312 310 303 308 310 309 312 313 310 312 317 316 312 309 308 306 308 311 311 311 311 314 314 315 317 322 325
314 314 314 314 314 313 314 313 312 312 312 312 312 311 310 308 307 309 309 312 313 311 301 306 308 313 315 315 311 318 318 316 312 308 309 307 311 308 307 308 313 311 317 317 317 317 313
315 315 315 314 314 314 314 313 312 312 312 312 312 311 309 307 307 306 309 312 312 310 293 308 310 320 318 314 314 314 319 315 309 309 310 307 307 306 306 308 312 312 317 316 316 316 316
314 315 314 313 313 313 313 313 312 312 312 312 311 309 308 309 310 309 311 312 312 301 293 304 311 310 311 313 312 314 313 317 315 310 311 310 313 310 309 311 312 316 315 315 316 314 308
314 314 313 313 313 313 312 312 312 312 311 311 309 307 307 309 305 313 312 307 298 295 305 303 305 310 309 307 309 311 309 308 306 304 304 307 308 310 310 308 311 313 312 305 304 304 304
314 314 314 313 313 312 312 312 312 311 311 310 307 305 310 310 312 312 308 299 293 299 301 307 307 308 305 308 307 309 308 305 309 309 306 302 299 307 310 308 308 309 311 305 300 301 304
315 314 314 313 312 312 312 312 311 311 310 308 306 308 307 312 313 312 303 292 296 300 304 303 305 303 304 307 305 307 307 307 309 310 305 304 303 310 310 311 311 310 308 314 309 310 305
315 314 314 313 313 312 312 311 311 311 309 307 305 304 304 312 316 309 298 293 299 302 304 306 301 304 301 304 303 305 306 309 308 312 314 310 303 309 310 311 312 311 314 306 309 302 300
313 313 312 312 312 312 312 311 311 310 309 307 304 298 308 318 315 305 295 296 299 303 303 302 301 302 303 303 304 304 305 309 311 311 314 312 308 306 309 306 306 308 307 310 311 308 302
312 313 313 312 312 312 311 311 310 309 307 306 301 293 309 315 301 301 297 300 299 301 303 301 303 302 302 304 303 304 304 307 312 313 309 313 310 303 304 310 311 311 309 311 305 306 308
312 311 311 311 311 311 311 310 310 308 307 304 297 297 307 307 292 294 300 299 301 300 300 301 299 302 304 302 301 303 305 309 310 311 311 313 308 302 304 306 309 306 309 311 312 312 310
310 311 311 310 310 310 310 310 309 308 308 305 298 292 299 304 301 298 297 297 297 302 301 302 302 304 301 301 305 302 304 307 311 310 322 317 309 305 301 304 307 304 305 308 309 306 307
309 309 309 310 310 310 310 310 309 308 308 304 298 294 298 292 298 299 300 298 295 296 301 304 301 302 301 299 301 302 305 307 311 315 315 317 309 310 308 309 309 307 306 306 305 307 306
309 309 309 309 309 309 309 310 309 308 307 300 294 295 298 294 295 294 294 294 295 296 299 299 300 301 302 301 302 301 304 306 305 311 311 314 309 311 308 310 309 306 308 307 306 307 308
309 309 309 309 309 309 309 309 309 308 306 299 300 300 294 292 290 290 292 294 294 297 299 301 301 300 300 303 307 309 310 311 312 310 310 312 311 311 305 310 308 304 308 308 307 309 309
308 309 309 309 309 309 308 308 308 308 306 304 301 299 290 288 291 290 292 294 294 295 295 299 300 298 303 306 306 308 308 309 310 311 313 312 314 312 306 309 299 308 315 313 309 309 311
308 308 308 309 308 309 309 308 308 308 307 303 304 297 292 287 291 291 291 292 296 297 296 296 298 302 305 301 299 300 302 305 306 309 311 314 312 308 303 303 307 309 314 311 309 308 312
308 308 308 308 308 309 308 308 308 308 308 305 304 304 296 290 291 294 292 293 293 293 294 296 301 304 303 298 299 297 296 300 300 305 313 314 315 309 307 301 299 312 317 321 320 308 315
307 308 307 307 308 308 308 308 308 308 308 305 304 306 299 291 296 296 292 292 297 296 295 296 296 297 305 302 298 298 298 305 299 302 306 308 310 305 305 304 307 317 318 321 307 309 317
307 307 307 308 308 308 308 308 308 307 306 304 302 306 299 293 294 299 299 294 294 296 293 297 295 298 299 301 301 301 302 304 304 309 309 308 306 304 307 304 301 318 318 313 321 326 326
307 306 307 307 307 307 307 307 306 306 305 306 299 309 309 297 295 302 302 303 301 300 297 297 295 295 297 299 304 306 306 310 306 301 314 306 310 307 309 308 317 319 318 323 327 326 327

GFSGBSN_sfc_thetae_003.txt.gz
Theta_e
317 316 316 316 316 315 315 315 315 314 315 315 316 315 315 316 316 317 317 317 317 316 317 318 319 321 323 318 317 332 351 347 339 330 328 322 320 319 318 319 322 320 323 324 325 327 328
316 316 316 315 315 315 314 315 315 314 314 314 314 315 316 316 315 316 317 316 315 315 316 317 320 321 321 312 324 329 328 331 328 327 323 322 320 321 319 319 320 323 323 322 324 326 328
315 315 315 316 316 316 315 314 314 314 314 314 314 315 315 315 315 314 315 315 314 314 316 319 320 323 319 317 325 326 330 327 328 326 322 322 322 318 319 317 322 322 318 322 323 324 325
315 315 315 316 315 315 314 314 314 313 313 313 313 314 314 314 314 314 314 313 312 315 319 322 324 324 315 327 329 325 325 324 326 328 325 325 323 320 318 322 321 318 319 315 323 323 325
315 315 315 315 314 315 315 313 313 313 314 313 313 314 314 314 314 313 312 311 313 319 321 322 325 324 315 328 323 326 327 323 324 324 327 324 322 317 317 313 313 317 311 314 318 324 326
316 315 315 314 314 314 315 314 313 314 313 313 314 314 314 313 313 311 310 310 317 321 324 327 326 320 321 319 324 325 328 324 319 321 319 317 316 312 313 313 307 312 313 316 318 321 326
315 315 315 314 314 314 314 314 314 313 313 313 313 313 313 312 311 310 311 318 318 319 324 317 318 317 318 322 327 322 325 321 319 318 311 314 309 307 311 315 316 317 316 315 319 322 322
316 315 314 314 315 315 314 314 314 313 313 313 313 313 312 311 310 309 312 311 311 311 305 313 315 316 318 320 314 319 324 315 313 310 313 310 306 312 315 316 315 315 315 316 319 320 322
315 315 315 315 315 315 315 314 314 313 313 313 313 312 312 310 309 312 310 311 315 314 306 310 314 313 315 316 312 313 317 317 312 309 311 308 310 313 313 314 313 314 314 315 316 322 324
316 315 316 316 315 315 314 314 313 313 313 313 313 312 311 308 307 310 310 315 316 314 302 307 310 313 316 317 310 318 321 315 314 309 310 310 313 311 311 311 314 311 317 317 317 315 312
316 316 316 316 315 314 314 313 313 313 313 313 313 312 310 307 308 308 311 314 314 312 294 311 312 321 319 315 317 316 322 316 311 311 311 308 309 310 308 310 315 312 318 317 317 317 316
316 316 316 315 315 314 313 313 313 313 312 312 312 310 309 309 312 314 314 313 312 300 295 307 313 312 313 314 314 317 315 318 317 312 312 311 315 312 312 313 315 317 315 317 316 315 308
316 316 316 315 315 314 313 313 313 312 311 311 310 308 308 310 306 314 314 309 299 295 308 306 308 311 310 310 311 312 311 310 307 304 306 309 310 313 313 310 314 314 312 305 304 305 304
316 316 316 315 315 314 313 313 313 311 311 310 308 305 311 313 315 314 309 301 293 302 304 310 309 311 307 311 310 311 310 307 311 310 307 304 302 310 312 310 309 311 311 305 300 302 306
315 316 315 315 314 314 314 313 312 311 311 309 306 311 310 313 314 313 303 293 297 302 307 306 308 306 307 309 310 309 309 309 311 311 306 306 305 313 313 313 311 310 308 314 309 311 307
315 314 314 314 314 313 313 313 312 311 311 309 307 308 308 314 317 311 300 294 301 305 307 307 303 306 304 307 307 307 308 311 311 313 314 310 305 312 311 313 312 310 314 307 310 303 302
312 313 313 313 313 313 313 313 312 311 310 308 307 302 312 315 317 306 295 298 301 305 306 303 303 305 306 306 307 307 307 310 312 313 314 312 310 309 312 308 307 307 308 311 311 309 303
312 312 312 312 313 313 312 312 311 310 308 306 305 298 312 315 302 303 299 302 301 304 307 304 304 304 305 306 306 306 306 310 314 314 310 313 310 306 308 313 313 311 308 309 307 307 309
311 311 311 311 312 312 311 312 311 309 309 306 300 302 310 308 293 296 300 301 303 303 303 303 301 303 305 304 302 306 308 312 313 313 312 313 308 303 306 310 312 308 309 310 311 312 311
310 310 310 310 310 310 311 311 310 309 309 306 300 295 302 303 302 297 296 297 297 303 302 303 302 304 302 301 305 303 306 310 312 311 322 317 311 307 303 307 309 306 307 309 309 306 308
310 310 310 310 310 310 310 310 309 309 308 303 299 296 300 295 297 297 297 298 296 296 302 304 301 301 301 299 300 301 306 309 310 315 312 314 308 310 310 311 311 308 306 307 306 308 306
309 310 310 310 310 310 310 310 310 309 307 299 297 296 299 297 298 295 293 294 292 295 296 296 297 300 302 300 302 300 304 307 308 311 312 314 309 311 307 310 309 307 309 308 308 308 308
308 309 309 310 310 310 310 309 309 308 306 299 302 304 299 294 295 294 293 293 294 295 296 299 299 297 300 303 305 307 309 311 310 311 311 313 311 311 306 311 310 305 308 309 310 311 309
308 308 309 309 309 309 309 309 309 309 307 304 302 299 294 291 293 292 294 293 293 295 295 298 299 297 303 306 307 308 308 309 309 310 312 310 311 309 306 310 299 310 317 315 312 313 313
307 308 308 309 309 309 309 309 309 309 308 306 305 296 292 289 292 294 294 294 295 296 296 295 297 301 303 302 299 299 299 300 302 306 310 314 311 306 304 305 309 311 316 315 315 314 317
308 308 308 308 309 309 309 309 309 309 309 308 308 304 297 290 291 295 293 294 293 293 295 298 301 304 302 298 295 293 292 297 296 300 308 310 313 309 308 302 301 310 319 322 320 309 318
308 308 308 308 309 309 309 309 309 308 308 309 304 305 298 290 295 297 293 292 297 294 296 297 300 298 301 295 292 292 293 300 295 297 300 302 305 303 305 304 307 318 320 322 307 311 327
307 307 307 307 308 308 309 308 308 308 308 307 307 311 300 294 295 300 300 297 295 297 292 296 299 298 299 295 296 295 295 299 300 304 304 301 303 303 305 303 301 321 319 313 322 327 328
308 308 307 306 308 308 308 308 308 307 307 307 301 309 307 297 297 304 304 304 303 302 299 298 296 296 300 299 300 299 300 304 303 298 309 304 308 306 308 308 322 325 324 326 327 327 329

GFSGBSN_sfc_thetae_006.txt.gz
Theta_e
317 316 316 317 316 317 316 315 315 315 315 315 315 316 316 316 316 316 316 317 316 316 317 317 318 320 321 315 317 329 352 348 334 327 322 322 320 321 317 321 322 319 323 325 326 326 326
316 316 316 317 316 315 315 315 315 314 314 314 314 315 316 316 316 316 316 316 316 315 315 317 319 320 318 307 325 330 328 329 326 323 322 324 320 323 320 319 319 321 322 322 324 324 325
316 316 316 316 316 316 315 315 314 314 314 314 314 314 315 315 315 315 316 315 314 314 315 318 321 321 315 311 327 327 326 326 326 325 319 324 324 320 321 317 322 320 317 320 321 322 323
318 316 316 315 315 315 315 314 315 315 315 315 315 314 315 315 315 315 314 313 313 314 317 321 323 323 311 321 326 325 325 324 326 327 324 324 324 319 319 320 318 315 317 312 320 322 323
318 317 316 315 316 316 315 315 315 315 315 314 314 314 315 315 314 313 312 311 313 317 321 323 323 322 313 330 322 326 326 320 321 323 325 324 322 315 316 312 310 313 309 311 315 323 322
317 317 316 315 315 316 316 315 315 315 314 314 314 314 314 314 313 312 310 311 317 319 324 326 325 319 322 318 323 323 325 322 320 319 317 318 316 312 311 310 303 307 310 313 313 320 320
317 317 315 315 315 316 316 315 315 314 314 314 313 313 313 313 312 310 309 316 316 317 321 318 318 314 317 323 325 323 325 322 320 316 311 315 309 306 310 312 313 313 314 312 316 322 319
317 316 316 316 316 316 315 315 314 314 314 314 313 313 313 312 311 310 311 313 312 312 304 311 314 319 322 323 317 321 324 316 314 309 313 310 305 310 314 314 312 313 312 313 318 322 321
317 317 317 316 316 316 315 314 314 313 313 313 313 313 312 311 310 312 313 309 317 315 304 307 311 311 315 320 315 315 320 318 311 308 310 306 309 312 312 312 311 312 311 313 314 319 321
317 317 316 316 316 316 315 314 313 313 313 313 313 312 312 310 309 309 308 317 316 314 299 305 310 312 314 315 310 317 319 316 313 308 309 310 313 310 309 310 313 308 315 314 314 314 310
317 317 316 316 316 315 315 314 313 313 313 313 312 312 310 308 306 307 312 315 314 311 292 311 311 320 316 311 313 313 318 315 308 309 311 307 309 308 307 309 313 311 316 314 314 313 315
317 317 316 316 316 316 315 314 313 313 313 312 312 311 309 309 310 312 315 314 311 298 292 308 313 311 310 311 314 317 313 316 316 309 312 311 314 312 311 312 313 316 314 313 314 312 306
316 316 316 316 316 316 315 314 313 313 312 311 310 308 308 309 305 313 313 309 297 293 309 306 309 312 311 309 310 313 310 309 307 302 304 309 309 312 313 309 312 311 309 304 302 304 303
316 315 315 315 315 315 314 314 313 312 312 310 308 306 310 312 315 315 310 300 292 301 302 312 311 311 307 311 310 310 310 307 310 308 305 303 301 309 313 309 308 308 308 304 298 301 304
315 315 315 314 314 313 314 313 312 312 311 309 307 310 310 312 315 314 304 291 296 301 307 307 309 306 307 309 310 309 309 308 309 310 305 304 304 313 312 313 311 308 305 311 306 308 305
313 313 313 313 313 313 313 313 312 312 311 309 305 306 310 316 315 310 299 293 299 304 307 307 303 306 304 307 307 308 308 311 310 312 313 309 303 311 312 313 313 309 312 303 306 300 300
312 312 312 313 313 312 313 313 312 312 310 308 305 302 310 315 314 305 295 296 299 304 304 301 301 302 305 306 308 307 307 311 313 313 314 311 308 307 312 309 307 307 305 307 308 307 302
311 312 312 312 312 312 312 312 312 311 308 306 303 296 312 315 301 302 298 301 301 303 306 305 305 303 302 304 306 307 307 310 314 314 309 312 308 304 306 313 313 311 308 307 302 304 307
311 311 312 312 311 311 312 311 310 309 309 306 298 299 308 307 294 295 300 300 303 303 304 303 302 304 305 302 301 304 308 313 314 312 310 312 307 303 303 309 312 308 309 309 307 308 306
311 311 311 311 311 311 311 311 310 309 309 305 298 293 300 303 301 297 296 296 296 302 302 303 303 305 303 301 304 302 304 309 313 313 322 316 309 307 302 305 310 308 308 309 307 302 304
309 309 310 310 311 310 311 311 310 309 309 305 299 295 298 292 295 296 297 297 294 296 301 303 300 300 300 298 300 300 303 305 310 315 314 312 306 309 308 309 310 309 308 308 307 308 304
309 309 309 309 310 310 310 311 310 309 308 302 294 295 299 296 297 294 293 292 292 296 297 296 295 298 299 297 298 294 299 304 305 310 310 311 306 308 306 310 309 308 310 309 308 309 309
309 309 309 309 309 309 310 310 310 309 306 301 300 301 297 294 294 292 292 292 292 295 297 298 296 295 296 299 302 303 304 304 306 306 310 310 307 308 304 308 308 304 309 310 310 310 309
309 309 309 309 309 309 309 309 309 309 307 307 304 301 291 290 292 292 293 294 293 296 293 297 299 296 300 304 304 304 304 305 306 307 311 311 308 309 305 308 297 309 314 313 311 312 312
309 308 309 309 309 309 309 309 309 310 309 308 307 299 292 287 292 292 294 293 295 296 296 296 298 301 303 299 295 292 297 300 303 307 309 312 311 306 304 304 307 309 313 313 311 311 316
309 309 309 308 308 309 309 310 309 310 309 309 309 306 296 290 289 295 294 295 292 293 295 297 303 305 302 296 292 287 286 295 297 302 308 309 317 307 306 300 300 311 318 322 319 308 323
308 309 309 308 308 308 309 309 309 309 309 308 308 309 299 287 294 296 293 293 297 295 293 297 299 300 303 292 289 288 288 297 293 297 299 302 305 302 304 302 306 316 319 320 307 311 325
309 309 308 308 308 308 309 309 309 309 309 307 306 311 300 293 295 299 300 296 296 295 290 295 292 299 297 291 289 291 291 295 296 301 301 300 298 300 306 304 301 320 318 312 321 326 325
308 308 308 308 308 308 308 308 308 308 308 307 303 311 310 299 296 302 303 305 302 301 298 297 294 294 299 297 298 298 295 300 299 294 304 298 304 302 305 306 319 325 326 327 327 326 328

GFSGBSN_sfc_thetae_009.txt.gz
Theta_e
317 317 317 317 317 317 316 315 316 316 315 315 315 315 315 315 315 316 316 317 316 316 316 317 318 319 316 310 311 321 352 353 342 329 320 316 311 311 310 315 317 316 319 323 325 325 322
318 317 317 316 316 316 315 315 315 315 315 315 315 315 316 316 316 316 317 316 316 315 315 317 318 320 314 302 315 321 330 332 327 321 317 316 314 316 314 315 313 317 318 321 323 320 324
318 317 316 316 316 316 315 315 315 315 315 315 315 315 315 316 315 316 316 315 315 314 314 317 319 319 312 306 317 326 322 323 323 320 314 318 320 316 314 313 318 316 312 315 317 317 318
319 318 317 316 317 317 316 315 315 315 315 315 315 315 315 315 315 315 314 313 313 314 316 318 322 318 308 317 317 315 316 318 323 320 320 317 319 315 311 315 314 310 307 303 313 316 318
318 318 318 317 317 317 316 316 316 316 315 315 315 314 314 315 314 313 312 312 314 317 318 322 317 315 310 327 316 317 318 317 318 318 320 323 316 310 310 305 302 303 299 303 308 318 318
318 318 317 317 317 317 316 316 316 315 314 314 314 314 314 313 313 312 311 311 314 317 321 324 322 312 318 314 318 319 320 321 315 314 313 313 309 304 305 300 295 298 300 304 306 313 316
319 318 317 317 317 316 317 316 316 315 314 314 314 313 313 313 312 310 308 305 307 307 316 313 312 311 312 318 322 319 320 316 314 310 304 307 302 300 302 304 306 306 305 305 309 317 315
318 318 317 317 317 317 316 316 315 315 314 314 313 313 313 312 311 309 307 305 308 305 300 307 308 312 318 320 314 316 320 311 309 305 306 303 301 306 309 308 306 306 304 304 310 317 314
318 318 317 317 317 317 316 316 315 314 314 313 313 313 312 311 309 309 303 304 311 308 297 302 306 306 307 313 313 314 316 313 308 305 305 301 304 311 308 307 306 305 303 305 306 314 317
317 317 317 317 316 316 316 316 315 314 314 313 313 312 311 309 306 304 304 312 312 309 291 298 303 306 308 309 307 318 319 313 309 304 305 304 309 308 305 304 306 302 309 309 308 307 304
317 316 316 316 316 316 316 315 315 314 314 313 313 312 310 309 302 303 308 311 311 305 285 307 307 313 308 304 308 312 319 313 307 307 303 301 306 305 304 304 307 305 311 309 309 306 307
316 316 316 316 316 315 315 314 314 313 313 313 312 311 309 306 305 306 309 309 305 291 287 302 309 305 303 304 306 309 312 313 311 307 307 306 310 307 307 309 308 310 308 308 307 304 298
315 315 315 315 315 314 313 313 313 313 313 312 310 308 307 307 301 308 308 304 290 287 304 303 303 306 304 302 303 305 305 303 300 296 297 302 304 309 309 304 306 306 299 296 295 295 294
314 314 314 314 313 313 313 313 313 312 312 311 308 306 307 309 310 309 306 294 286 297 297 305 304 306 302 305 304 304 303 300 303 301 297 295 294 304 309 305 302 301 301 296 289 293 296
313 313 313 313 312 313 313 313 312 312 311 310 307 305 304 307 310 309 300 289 290 296 301 302 300 300 302 306 306 304 303 301 303 304 298 296 297 308 309 310 307 301 298 302 294 297 295
312 313 313 312 312 312 312 312 312 312 311 309 303 301 303 310 313 306 296 290 294 300 300 298 292 297 293 297 301 304 302 307 306 309 308 301 295 305 309 309 308 304 303 296 299 290 291
312 312 313 313 312 312 312 312 311 311 310 308 302 297 304 309 309 301 291 292 296 300 301 297 296 295 296 296 297 297 303 308 309 309 308 305 300 300 305 303 301 302 300 298 297 298 293
312 312 312 312 312 312 312 311 311 310 308 305 299 291 305 306 294 298 293 297 299 300 303 300 300 298 297 298 297 297 297 302 312 311 305 306 301 296 300 307 309 306 300 299 294 291 295
311 311 311 311 311 312 312 311 310 309 309 303 294 295 304 303 288 291 296 297 299 298 298 298 298 301 302 298 295 298 300 306 307 306 306 307 301 294 297 301 306 303 304 301 301 295 294
311 310 310 311 311 311 311 311 310 309 309 303 296 288 295 298 298 293 291 292 292 299 297 298 298 300 298 296 298 296 298 304 306 305 320 312 301 300 295 297 300 300 303 304 300 296 295
310 309 310 310 310 311 311 310 310 309 308 304 298 291 294 288 291 291 293 292 290 290 296 297 295 295 293 291 293 294 297 298 302 307 306 301 299 301 303 305 305 303 304 304 301 300 296
310 310 310 310 311 310 310 310 310 309 308 301 292 292 294 290 292 290 291 290 290 291 292 291 292 294 294 291 292 291 294 294 294 299 297 299 297 301 300 305 305 303 305 306 304 304 303
309 309 309 309 310 310 309 310 310 309 306 300 301 300 295 290 289 288 289 290 290 293 294 296 294 293 292 295 298 298 298 297 297 296 295 296 296 298 295 302 302 298 303 305 306 306 305
309 309 309 310 310 309 309 310 310 309 307 304 303 300 291 285 288 288 289 291 291 292 291 294 296 294 297 303 301 299 299 299 300 300 300 297 295 298 295 298 292 302 309 309 308 309 308
309 309 309 309 310 309 309 309 310 310 309 305 306 299 292 286 289 290 290 290 292 293 292 293 296 299 302 299 293 290 292 294 297 300 300 302 298 296 293 294 298 305 308 306 305 304 311
309 310 310 309 309 309 309 309 310 310 309 306 305 305 297 288 287 292 290 291 289 290 291 294 299 302 300 294 292 285 285 290 291 295 302 301 303 298 294 292 292 300 313 318 314 303 320
308 309 309 309 309 309 309 310 309 310 309 307 305 307 298 287 292 293 290 291 295 293 290 292 294 294 299 291 288 287 285 293 288 291 294 297 299 296 298 294 300 311 317 318 302 306 319
309 310 310 309 309 309 309 309 309 309 309 306 303 308 301 292 293 295 296 293 294 294 289 294 292 293 291 290 287 289 288 291 292 295 295 293 293 295 299 297 295 318 316 310 315 320 324
310 310 310 310 309 309 309 309 308 308 308 308 301 309 308 297 295 300 300 301 299 299 296 295 293 292 292 292 294 295 290 295 295 290 301 293 299 297 298 301 315 319 315 320 322 324 325

GFSGBSN_sfc_thetae_012.txt.gz
Theta_e
318 317 317 317 318 317 316 316 316 317 316 315 315 315 315 315 315 316 316 316 316 315 315 316 317 319 313 306 308 314 349 352 340 331 322 316 309 306 304 307 312 311 314 319 324 323 322
318 318 317 317 317 317 316 316 316 316 317 316 316 316 316 316 316 316 317 316 316 315 315 316 317 319 310 296 309 314 318 329 327 322 319 315 311 310 307 309 309 314 314 314 321 321 321
318 318 317 316 317 317 317 316 316 315 315 315 315 315 315 315 316 316 316 315 315 315 315 316 317 317 311 301 312 313 319 320 323 319 313 316 316 310 310 309 314 313 308 311 311 318 319
319 318 317 317 317 317 317 317 316 316 316 315 315 315 315 315 315 315 314 313 313 315 316 317 319 315 304 315 314 311 312 310 316 319 318 315 316 311 309 312 310 305 303 299 309 312 321
319 319 318 318 317 317 317 317 317 316 315 315 315 315 315 314 314 313 312 312 313 317 317 321 313 310 305 325 316 315 312 311 312 314 316 320 311 307 307 302 298 299 296 299 303 311 319
319 319 318 318 317 317 317 317 316 316 315 315 314 314 314 313 312 311 311 311 312 316 320 321 321 306 309 310 318 315 312 313 312 313 311 312 306 302 299 296 292 295 296 299 301 307 314
319 318 317 317 317 317 317 317 317 316 315 315 314 314 313 313 311 310 307 301 301 299 310 308 307 309 310 314 320 315 314 313 312 307 301 304 298 299 300 300 301 301 299 299 304 308 312
317 317 316 317 317 317 317 316 316 316 315 315 314 313 313 312 311 309 305 301 304 302 294 304 305 308 312 313 311 316 316 308 306 301 301 299 297 302 305 304 303 301 300 300 304 308 311
316 317 317 316 316 316 316 316 315 315 315 314 313 313 312 311 310 304 299 299 306 305 292 298 304 303 304 307 306 309 312 308 304 301 301 298 300 306 306 304 302 300 299 300 300 306 311
317 316 316 316 315 316 315 315 314 314 314 314 313 313 312 310 300 301 301 305 306 305 288 294 297 302 304 305 302 312 316 310 306 302 303 301 305 305 304 303 302 296 305 304 304 300 297
316 316 315 315 315 315 314 314 314 314 313 313 313 312 310 309 299 299 304 305 306 297 284 303 301 308 303 301 303 306 315 310 305 303 301 299 302 302 302 303 305 301 306 305 305 301 297
315 314 314 314 314 314 313 313 313 313 313 313 312 311 309 303 300 302 305 304 298 289 284 298 304 300 298 299 302 307 310 311 309 305 304 302 306 305 305 307 307 307 302 302 301 300 293
314 313 313 313 313 313 312 312 312 312 312 311 310 308 307 306 297 303 304 298 286 283 298 299 297 299 296 297 300 300 306 304 301 293 297 301 303 304 305 300 303 301 294 291 290 292 291
312 313 313 313 312 312 312 312 312 312 311 310 307 306 305 305 303 304 300 290 281 292 293 299 296 298 296 297 298 300 297 302 303 296 293 294 293 300 304 303 298 296 296 292 285 287 291
313 313 313 312 312 312 312 312 311 311 310 309 306 299 300 299 304 302 293 284 285 290 296 294 295 292 293 297 296 297 297 298 303 302 293 290 293 302 305 306 304 299 292 299 290 292 290
312 312 312 312 312 312 312 312 311 311 310 308 300 295 297 304 304 299 289 287 289 296 297 296 289 292 289 292 293 294 293 300 301 304 303 296 290 299 304 305 305 300 301 293 288 287 287
311 310 311 312 311 311 311 312 311 311 309 308 296 290 298 301 299 293 286 287 293 297 299 295 292 292 293 292 294 293 294 299 302 303 304 301 295 297 300 298 299 299 296 291 294 292 290
310 311 311 311 311 311 311 311 310 309 308 302 292 285 298 302 286 287 289 291 296 296 299 297 297 296 294 295 293 294 294 297 304 303 297 300 297 294 298 302 305 304 299 295 294 289 292
311 311 311 311 311 311 311 310 309 308 308 296 290 288 298 295 282 284 290 292 295 294 293 293 293 295 296 292 290 294 295 303 302 300 298 300 297 293 291 296 297 297 301 300 291 291 293
310 310 310 311 311 311 311 310 309 309 308 297 289 284 288 290 293 287 286 289 289 296 294 295 292 295 293 290 292 290 294 299 300 301 308 299 293 293 293 296 297 295 299 300 298 295 294
310 310 310 310 310 311 311 310 309 308 308 297 289 285 288 282 287 288 289 289 288 288 293 293 290 291 291 286 289 290 294 295 297 302 297 293 286 292 296 300 302 301 300 301 297 298 295
310 310 310 310 311 311 311 310 310 309 307 295 291 290 291 287 286 285 288 287 287 289 290 288 288 292 290 287 290 288 291 290 290 294 292 292 287 292 293 300 302 300 302 303 302 301 300
309 310 310 310 311 311 310 310 310 309 304 293 295 298 293 289 284 282 283 287 287 290 292 293 291 290 289 292 294 296 295 295 294 291 291 289 288 288 287 297 300 296 302 302 302 302 302
310 309 309 310 310 310 310 310 310 309 305 297 296 298 291 285 286 286 287 288 288 290 289 291 292 290 294 299 298 295 294 294 295 295 297 291 290 288 288 291 289 298 307 306 302 304 304
309 309 309 309 310 310 310 309 310 310 309 301 300 298 292 285 288 288 288 288 290 290 288 291 294 295 296 294 287 285 287 291 293 295 297 298 294 289 287 288 294 301 304 303 299 299 310
309 309 309 310 310 309 310 310 310 310 309 300 299 300 297 288 287 291 288 288 285 285 287 291 295 296 294 290 287 280 280 287 290 294 299 299 298 293 292 289 288 296 308 313 309 304 317
309 309 309 310 309 310 310 310 310 309 309 302 298 301 297 289 292 291 287 286 289 287 285 289 292 291 293 288 284 282 282 290 286 289 292 294 294 292 293 294 295 309 313 314 300 300 316
310 310 310 309 309 310 310 309 309 309 309 301 297 300 297 291 293 294 294 291 290 288 286 288 289 290 286 287 286 285 284 287 286 292 293 293 293 295 295 294 293 307 312 304 308 320 323
309 310 310 310 309 309 309 309 309 309 309 306 294 300 302 296 295 298 298 299 297 296 289 289 291 289 291 289 289 289 286 289 287 287 299 293 297 296 296 298 304 307 312 322 321 319 321

GFSGBSN_sfc_thetae_015.txt.gz
Theta_e
317 317 317 317 317 317 316 316 316 316 315 315 315 315 315 315 315 315 315 315 315 315 315 316 316 317 311 303 302 310 348 348 341 327 319 313 308 306 302 304 309 314 316 315 318 320 329
317 317 317 317 317 316 316 316 316 315 316 316 316 316 316 316 316 315 316 316 315 314 315 316 317 317 306 292 307 312 312 331 328 324 318 314 310 308 305 305 306 311 312 312 313 313 328
318 318 317 317 317 317 317 317 316 316 315 316 316 316 316 316 316 316 315 314 314 314 315 316 317 314 309 298 308 311 315 318 324 321 314 316 313 308 306 304 310 310 307 308 309 310 322
319 318 318 317 317 317 317 317 317 317 316 316 315 316 316 316 316 315 314 313 313 314 317 318 318 312 298 311 312 308 308 305 317 318 313 314 314 308 306 310 308 302 301 298 306 309 313
320 319 318 318 318 317 317 317 317 317 316 316 316 315 315 315 314 313 312 311 313 317 318 320 312 308 300 321 315 312 309 307 307 310 315 321 311 305 305 302 297 297 296 298 302 308 315
317 317 317 316 317 317 317 317 316 316 316 315 315 315 314 314 313 312 310 312 312 316 320 320 319 303 306 306 318 314 310 310 309 309 310 309 303 298 296 295 292 294 295 296 298 305 313
316 316 316 315 316 316 316 316 316 315 315 315 314 314 314 313 312 310 307 302 299 298 306 303 305 305 306 311 316 313 310 308 308 306 300 303 299 294 297 298 300 299 297 297 301 306 308
316 316 315 314 315 315 315 315 315 314 314 314 314 313 313 312 310 309 302 296 301 299 292 301 302 303 309 309 305 308 311 303 303 298 300 297 297 301 304 302 300 299 297 297 301 305 305
315 315 314 315 315 315 314 314 314 314 314 313 313 313 312 311 309 303 299 298 303 299 290 296 300 300 301 305 302 304 308 305 302 299 298 297 298 303 303 301 299 296 296 298 298 302 304
315 315 314 314 314 314 313 313 313 313 313 313 313 312 311 309 299 300 299 303 303 302 286 293 295 299 302 304 300 309 314 307 303 301 299 297 302 302 301 300 300 293 301 302 300 297 293
314 314 313 313 313 313 313 313 313 312 312 312 312 311 309 308 298 297 300 303 305 294 284 302 298 305 301 300 301 303 313 308 302 300 299 297 300 300 298 301 301 299 303 302 301 297 293
313 312 312 313 313 313 313 312 312 312 312 312 311 309 308 302 298 301 303 302 295 287 282 296 300 297 296 298 300 305 306 309 307 302 301 301 304 304 301 304 304 305 300 298 297 294 289
312 312 312 312 312 312 312 312 312 312 311 311 309 307 306 305 295 300 302 296 285 281 296 295 293 295 294 294 297 300 302 302 298 295 295 299 302 301 304 299 301 300 293 287 285 287 289
312 312 312 312 312 312 312 312 312 311 311 310 307 306 303 303 301 302 296 288 280 290 289 296 295 295 292 295 295 296 300 299 303 296 296 293 291 301 302 300 297 295 295 286 282 284 290
311 311 312 312 312 311 311 311 311 311 310 309 306 299 296 299 302 299 291 281 283 288 294 293 294 290 291 294 294 294 292 299 303 298 294 291 293 301 305 303 303 295 293 298 288 287 286
311 311 311 311 312 311 311 311 311 310 310 308 299 295 294 302 301 295 288 284 286 294 295 295 288 291 288 290 291 291 291 296 296 302 297 294 289 296 302 303 302 300 299 291 285 285 285
310 310 311 311 311 311 312 311 311 310 309 307 293 288 296 299 296 290 282 284 291 296 297 293 290 289 290 290 292 290 292 297 300 299 300 293 291 294 297 295 295 294 296 290 291 289 287
310 311 311 311 311 311 311 311 310 309 307 300 289 283 296 298 285 284 283 287 295 294 296 294 294 292 291 292 290 290 292 295 301 300 295 296 287 291 294 298 303 300 297 292 290 287 288
311 311 311 311 311 311 311 311 309 308 307 295 287 286 296 294 282 282 286 290 293 291 292 291 291 292 293 290 287 292 293 300 301 298 296 297 288 285 288 292 295 295 297 297 295 290 293
311 311 310 311 311 311 311 310 309 308 308 296 288 284 287 289 288 286 284 286 288 294 293 292 291 293 291 288 290 289 292 298 298 299 306 296 287 287 286 288 294 293 297 299 296 291 294
310 310 311 310 311 311 311 310 309 308 307 295 287 283 286 282 285 285 286 286 287 286 293 293 288 290 289 283 287 288 292 293 296 300 295 290 285 288 291 294 296 296 296 299 295 297 294
310 310 310 310 311 311 311 311 310 308 306 296 289 287 290 287 288 284 284 285 286 287 288 288 288 289 288 285 287 286 289 289 290 293 291 289 286 288 289 295 297 296 298 300 299 299 298
310 310 310 310 311 311 311 310 310 308 303 292 295 293 293 289 287 285 283 284 286 288 291 292 290 287 286 289 293 293 293 293 292 290 288 288 286 285 283 292 292 291 297 299 300 300 300
309 309 310 310 310 310 310 310 310 309 304 298 296 297 291 285 287 286 287 287 287 288 287 290 291 287 291 296 294 292 290 291 293 292 293 287 286 286 284 287 285 296 302 304 301 301 300
309 309 310 310 310 310 310 310 310 310 308 299 299 298 293 285 288 287 288 287 288 288 287 288 291 293 294 291 285 283 284 285 289 292 292 293 290 285 283 284 291 298 302 301 299 298 304
309 309 309 309 309 310 310 310 310 310 309 298 296 297 295 288 287 290 287 288 284 286 286 289 294 294 291 287 284 279 278 284 285 290 294 293 293 290 286 284 285 294 305 311 307 297 314
309 309 309 309 309 309 310 310 310 310 309 299 296 297 297 290 292 291 287 284 289 286 284 286 289 289 290 286 280 280 280 288 282 285 286 288 292 288 288 286 292 303 313 312 296 297 315
309 309 309 309 309 309 309 310 310 309 309 300 296 299 295 292 292 294 294 290 290 289 285 286 286 288 285 285 285 282 282 286 284 288 288 289 290 290 290 289 288 312 312 306 311 316 321
309 310 309 310 309 309 309 309 309 309 309 307 298 299 301 296 292 296 297 297 296 294 291 289 287 287 289 285 285 286 284 287 284 283 293 288 295 294 295 296 303 309 312 319 318 317 320

GFSGBSN_sfc_thetae_018.txt.gz
Theta_e
318 318 318 318 318 317 317 317 317 317 317 316 316 316 316 316 316 316 316 316 316 315 315 316 317 317 310 301 299 331 349 344 349 330 329 322 327 318 309 311 320 317 319 317 320 318 323
319 319 318 318 317 317 316 317 316 317 317 317 317 317 317 317 316 316 316 316 315 314 315 316 316 316 303 289 304 309 335 335 332 322 315 313 312 310 304 303 309 309 312 316 312 311 319
319 318 318 318 317 317 316 316 316 316 316 316 316 317 316 316 316 316 316 315 314 314 315 316 317 313 306 295 306 308 324 322 323 320 313 313 311 310 306 302 307 308 305 307 308 308 319
317 317 317 316 316 316 316 316 316 316 316 316 315 316 316 316 315 315 314 312 313 315 317 319 318 310 296 307 309 307 306 307 323 318 313 316 312 306 304 306 306 301 299 297 305 309 317
317 316 316 316 315 316 316 316 315 315 315 315 315 315 315 315 314 313 311 311 315 320 320 320 310 305 297 318 311 309 306 304 312 315 314 318 311 304 303 299 296 296 294 297 301 306 311
316 316 315 314 314 315 315 315 314 314 314 314 314 314 314 313 312 311 310 312 312 319 318 317 317 301 306 304 314 315 307 308 305 307 308 309 302 298 295 295 290 293 293 295 298 303 312
315 315 315 314 313 314 313 313 313 314 314 314 313 313 313 312 311 309 307 299 297 296 298 305 304 303 306 308 311 309 308 306 307 304 299 301 297 294 294 297 299 299 296 297 300 304 304
315 315 314 313 313 312 312 312 312 313 313 313 313 313 312 311 310 309 300 297 296 296 291 299 299 301 308 306 302 306 308 301 301 297 300 295 296 300 301 300 299 298 296 296 299 303 300
313 313 313 313 313 313 313 313 313 313 313 312 312 312 311 310 309 301 297 296 301 297 288 295 298 299 300 303 300 302 305 302 298 297 298 297 297 304 303 299 297 295 295 296 297 300 300
313 313 314 313 313 313 313 313 313 313 312 312 312 312 310 308 297 298 296 300 300 300 285 292 293 298 301 302 297 307 308 304 300 298 297 296 301 301 299 299 299 291 299 300 299 295 291
313 313 313 313 312 312 312 312 312 312 312 312 312 311 309 308 297 295 296 301 302 292 283 300 294 302 300 298 299 301 310 305 299 298 298 296 298 298 297 298 300 297 301 299 299 295 292
312 311 311 311 311 312 312 312 312 311 311 311 311 310 308 301 297 299 301 300 293 287 282 295 297 294 295 296 297 302 305 307 305 300 298 300 302 302 300 301 302 302 299 295 294 292 287
311 311 311 311 311 312 312 311 311 311 311 310 309 307 306 304 294 299 300 293 284 281 294 293 291 294 293 293 295 297 298 300 297 292 292 297 300 299 301 297 298 298 293 286 285 286 289
311 311 312 312 312 312 312 312 311 311 310 309 306 305 301 302 301 299 294 287 278 288 287 294 294 293 290 293 293 295 296 297 299 296 292 292 289 299 301 298 295 294 292 286 282 282 288
310 312 312 312 311 311 311 311 311 310 310 308 306 296 295 298 301 297 289 280 281 285 292 291 292 289 289 293 292 292 291 295 300 296 293 291 292 300 301 301 302 293 293 295 286 286 285
310 311 311 312 311 311 311 311 311 310 309 307 297 294 292 300 297 294 287 282 284 293 294 292 286 290 286 289 289 289 290 295 296 299 296 292 289 296 302 302 300 296 297 290 284 283 282
309 311 311 312 312 312 312 312 311 310 309 307 291 287 294 299 295 289 279 282 288 294 295 290 288 288 288 288 290 288 290 295 298 298 298 292 289 290 296 295 297 293 291 288 291 286 284
310 311 312 312 312 312 312 311 310 309 307 298 290 282 294 295 284 283 282 286 293 292 294 292 292 290 289 291 288 289 290 294 299 299 293 294 286 288 291 295 301 302 297 291 290 286 285
311 311 312 312 311 312 312 311 310 308 307 296 289 289 295 292 279 280 286 287 290 291 291 289 289 291 291 288 285 291 292 299 298 296 295 294 286 283 286 291 294 292 297 295 293 288 290
310 310 310 311 312 312 312 311 309 308 307 295 291 283 286 292 285 282 282 283 285 293 293 292 290 291 289 287 289 287 290 296 297 297 304 295 286 285 284 286 291 291 294 294 295 292 293
310 310 310 310 311 312 312 311 310 308 307 295 286 282 288 282 283 286 281 283 285 285 290 293 290 288 286 282 285 286 290 291 295 299 294 290 285 286 289 292 293 293 294 295 292 295 292
310 310 310 310 311 312 312 311 310 308 305 294 289 288 290 287 289 287 284 281 285 286 287 287 287 289 288 283 285 284 287 287 288 291 288 288 285 286 287 293 293 292 295 296 296 296 295
309 310 310 310 310 311 311 311 310 309 302 291 293 295 292 288 288 284 282 285 285 287 289 291 290 286 285 288 291 291 290 290 290 288 286 286 285 284 282 290 290 288 294 296 297 297 297
309 309 310 310 310 310 311 311 310 309 304 298 297 297 290 285 286 286 287 287 286 287 286 289 290 287 290 293 293 290 287 287 289 289 290 285 285 284 283 286 282 291 298 302 298 300 300
310 310 310 310 310 310 310 311 311 310 308 296 295 295 292 285 287 287 287 288 287 287 286 287 290 290 292 291 284 282 281 282 287 290 290 291 285 283 282 282 289 293 301 303 301 299 302
309 309 309 310 310 310 310 310 310 310 309 297 294 295 295 288 285 290 287 288 284 283 284 287 291 292 290 286 282 276 277 280 282 287 290 289 290 285 283 282 282 293 305 311 308 296 312
309 309 309 309 310 310 310 310 310 310 309 299 296 296 296 289 292 291 287 286 289 288 285 287 289 287 289 288 282 278 278 285 280 282 282 283 285 283 284 284 288 299 309 315 296 299 315
309 310 310 310 309 310 310 310 310 310 310 302 298 298 298 292 291 292 294 290 290 289 284 287 285 286 285 284 284 282 280 283 282 285 284 283 283 283 285 284 283 305 310 306 310 316 317
310 310 310 310 310 310 310 310 310 311 310 308 298 298 301 295 293 297 296 297 295 293 291 291 289 285 286 283 286 284 284 285 286 280 289 283 290 288 290 290 298 308 307 315 317 315 316

GFSGBSN_sfc_thetae_021.txt.gz
Theta_e
319 318 318 318 318 318 317 317 317 317 316 316 316 316 316 316 316 316 316 316 317 316 316 316 316 317 313 305 302 334 346 345 355 345 338 335 332 329 322 327 327 328 325 325 325 325 322
318 318 317 317 316 316 316 316 316 316 316 315 316 316 316 316 316 316 316 316 315 314 315 316 316 315 307 294 308 320 332 345 346 340 335 335 333 330 321 313 321 321 319 315 318 320 318
317 317 317 315 315 315 315 315 314 314 314 314 315 315 315 315 315 315 315 314 313 314 315 316 317 313 307 300 310 315 334 338 342 333 331 331 329 328 316 309 315 313 308 312 313 315 314
316 316 315 314 314 314 314 313 313 313 313 313 314 314 314 314 314 314 313 312 313 320 318 317 318 312 300 309 312 309 323 323 338 332 326 327 323 324 312 312 310 308 308 304 312 313 317
315 315 315 314 313 313 313 313 313 313 314 314 314 314 314 314 313 312 311 312 315 321 321 320 312 310 300 319 307 309 313 317 325 326 320 321 318 313 310 306 304 305 303 304 308 314 318
315 315 314 313 313 313 313 313 313 314 314 314 314 313 313 313 312 310 310 311 315 319 318 318 314 303 305 306 313 310 311 320 316 316 314 313 311 308 307 304 296 300 301 304 306 311 313
313 313 313 313 313 313 313 313 312 313 313 314 313 313 313 312 310 309 308 306 303 302 302 309 310 306 309 312 319 312 309 309 312 312 305 310 304 301 304 305 304 303 303 304 308 311 313
313 313 313 313 312 312 312 312 312 312 313 313 313 312 312 311 310 309 305 301 298 299 294 302 300 304 311 310 305 310 310 304 305 302 307 304 301 306 307 305 304 302 302 303 306 309 308
313 312 312 312 312 312 312 312 312 312 312 312 312 312 311 310 309 304 301 300 305 304 294 299 301 301 303 306 303 307 308 306 304 302 302 302 304 308 305 303 301 302 301 303 304 306 308
312 313 312 312 312 312 312 312 312 312 312 312 312 311 310 308 303 302 299 303 305 304 292 298 298 301 304 306 302 310 311 308 305 301 303 303 308 305 304 303 303 298 304 304 304 303 301
311 312 312 312 312 312 312 312 312 312 312 311 311 310 308 307 302 300 301 305 306 301 286 301 298 307 305 304 304 304 311 309 303 303 304 301 303 303 302 303 306 301 305 304 305 303 303
310 311 311 311 311 312 312 312 312 312 311 311 310 309 308 304 303 304 305 304 301 291 286 298 299 298 299 302 302 305 306 312 310 304 305 305 308 307 306 307 307 308 305 305 304 303 296
310 310 311 311 311 312 312 312 312 311 311 310 308 307 306 306 299 305 304 300 290 286 298 294 295 298 297 297 299 302 302 302 302 297 298 303 303 306 308 304 306 306 302 296 294 294 295
310 310 312 312 312 312 312 312 312 311 310 309 306 305 303 304 306 303 302 293 284 290 291 297 297 297 295 297 298 299 300 299 306 303 300 297 295 304 306 305 302 303 302 296 291 293 296
309 311 312 312 312 312 312 312 311 311 310 308 306 302 301 304 304 303 297 285 287 290 293 292 295 294 294 296 296 297 299 300 304 305 299 297 297 305 307 307 307 302 299 305 297 297 296
311 311 312 312 312 312 312 312 311 311 310 307 301 297 298 303 302 302 293 285 289 294 295 294 289 293 291 293 295 296 297 298 300 303 304 302 298 305 306 308 307 304 307 297 298 291 291
311 311 312 313 312 312 312 312 311 310 308 305 298 293 300 303 301 296 287 286 289 295 296 293 291 290 292 291 294 293 295 297 299 301 303 301 300 298 305 302 301 300 300 302 302 299 293
310 312 312 312 312 312 312 312 311 309 307 303 296 289 301 301 290 290 286 288 292 292 296 293 294 293 292 293 293 293 294 296 299 302 298 300 299 298 300 306 308 306 303 303 297 296 298
311 311 312 312 312 312 312 311 310 308 306 302 291 291 301 300 284 285 288 288 290 291 292 293 291 293 295 293 290 293 295 299 299 301 299 300 297 296 298 302 303 303 305 304 304 303 298
310 310 310 311 312 312 312 311 310 308 307 302 294 287 293 294 292 287 285 286 287 293 292 293 292 293 292 292 294 291 293 297 299 301 304 301 296 297 296 298 299 298 300 304 303 299 299
310 310 310 311 311 311 312 311 310 309 306 303 295 289 291 286 288 289 289 286 286 286 290 293 289 290 288 287 290 290 293 294 297 300 299 299 293 295 296 296 297 297 297 299 299 302 300
310 310 310 310 311 311 311 311 310 309 304 301 292 290 292 288 290 289 287 286 286 287 288 287 288 289 289 286 288 288 290 292 292 296 295 297 293 295 292 296 296 295 298 299 299 300 300
310 310 310 310 310 310 311 311 310 308 304 299 299 299 292 289 288 287 287 287 287 289 290 291 290 287 287 290 292 294 295 295 294 291 292 294 294 293 289 294 295 292 297 299 300 302 302
310 310 310 310 310 310 310 311 311 309 306 303 302 299 291 285 287 286 288 288 287 289 287 290 291 289 292 297 296 296 295 294 294 293 295 292 293 293 289 292 285 298 304 305 304 305 305
309 310 310 310 310 310 310 310 311 310 308 304 303 298 293 286 288 288 288 288 289 289 289 289 292 295 297 294 289 286 289 290 291 292 294 295 293 288 286 288 293 296 300 306 306 304 313
309 309 309 310 310 310 310 310 310 310 309 305 304 303 297 289 288 291 288 288 285 285 287 290 295 298 296 294 289 282 281 285 285 290 295 294 295 290 288 284 284 297 304 312 314 300 318
309 309 310 310 310 310 310 310 311 311 310 307 303 304 298 290 293 293 289 288 290 288 286 288 290 291 296 288 284 283 283 289 283 284 288 289 289 286 287 286 291 300 307 318 301 303 320
310 310 310 310 310 310 310 311 311 311 311 307 303 304 300 293 293 295 295 291 292 290 285 289 289 291 290 286 285 284 284 289 287 288 287 288 288 287 287 285 283 301 305 301 314 320 322
310 310 310 310 311 311 311 310 311 312 311 310 299 302 303 296 294 300 299 300 298 296 292 292 290 290 292 288 288 287 287 289 288 283 294 286 291 292 291 290 300 304 307 316 321 320 322

GFSGBSN_sfc_thetae_024.txt.gz
Theta_e
318 317 317 315 315 316 315 315 315 315 315 315 315 315 315 315 315 315 316 316 316 315 315 316 317 317 317 309 307 323 342 340 342 332 330 329 329 326 320 325 328 328 327 327 328 328 327
316 316 315 314 314 315 314 314 314 314 314 314 314 315 315 315 315 315 316 315 314 314 315 316 316 316 311 301 314 315 327 330 336 333 330 330 329 328 323 323 324 327 328 326 321 322 324
316 316 314 314 313 314 313 314 314 314 314 314 314 315 315 315 316 316 315 314 313 314 318 321 317 316 310 308 313 316 328 333 338 335 328 330 331 328 323 321 321 324 318 317 318 320 319
316 315 314 314 313 313 313 313 313 313 314 314 314 315 315 315 315 314 313 312 313 319 321 318 319 316 308 316 318 318 326 332 340 337 331 332 331 329 322 318 314 314 314 310 319 320 319
314 314 314 313 313 313 313 313 313 314 314 314 314 314 314 314 314 312 311 312 316 322 319 319 317 314 308 317 309 314 327 324 333 332 331 330 329 321 321 313 310 311 308 311 315 320 320
313 313 313 313 313 312 313 313 313 313 313 313 313 313 313 313 312 311 310 312 319 321 321 321 317 307 310 308 314 312 324 321 327 326 320 318 317 310 312 311 303 307 307 311 312 318 318
313 313 313 313 312 312 313 313 312 313 313 313 313 312 312 312 311 309 310 312 311 312 310 312 315 311 312 315 318 311 315 318 323 320 309 312 306 303 307 310 311 311 310 310 313 318 316
312 312 312 312 312 312 312 312 313 313 313 313 312 312 311 311 310 309 311 305 302 302 297 306 306 310 317 316 312 311 315 313 311 309 311 308 304 308 310 309 308 308 307 309 314 316 314
311 312 312 312 312 312 312 312 313 313 312 312 312 312 311 310 309 309 307 304 310 308 299 304 307 307 308 312 309 311 310 312 309 307 307 305 307 310 308 308 306 306 306 308 309 313 314
311 311 311 313 313 313 313 313 313 312 312 312 312 311 310 308 308 308 306 309 311 309 296 301 302 306 309 311 307 316 311 311 308 306 308 307 311 308 307 306 307 303 309 308 308 308 305
311 311 311 313 313 313 313 313 312 312 312 312 312 310 308 307 307 304 306 310 310 307 289 305 303 311 310 308 312 309 316 309 305 306 308 305 307 306 305 306 309 305 309 307 307 306 307
311 311 311 312 312 313 313 312 312 312 312 312 311 309 308 308 309 308 310 310 308 294 288 301 303 302 302 306 308 311 311 312 311 308 309 308 312 310 309 310 310 310 307 306 307 305 300
310 310 312 312 312 313 312 312 312 312 311 310 309 307 308 308 303 310 309 306 293 289 301 298 299 302 303 303 305 306 306 305 305 301 302 306 307 310 311 307 310 308 305 299 297 297 298
311 311 312 313 313 312 312 312 312 312 311 309 306 305 308 308 310 309 306 297 286 293 295 301 300 301 299 303 303 304 304 303 307 307 304 301 298 306 311 309 306 306 305 299 294 296 299
311 312 313 313 313 313 313 312 311 311 310 308 305 308 307 308 309 309 300 288 289 294 296 295 298 297 300 301 301 302 303 304 306 309 303 302 302 309 310 311 311 306 303 308 302 304 301
311 311 312 313 312 313 313 312 311 310 309 307 306 304 304 309 309 306 296 288 292 296 296 297 293 297 296 298 299 301 302 304 307 310 312 308 302 308 308 311 311 309 310 301 303 296 295
311 311 312 313 312 312 313 313 311 310 309 307 304 299 305 308 307 299 289 289 292 296 297 294 294 294 297 296 298 300 301 301 304 308 309 309 307 306 309 306 305 305 305 306 306 303 298
310 312 312 312 312 312 312 312 311 309 307 306 302 293 305 307 295 295 290 291 293 294 297 296 296 295 295 297 297 298 299 301 303 306 304 309 307 303 304 310 311 309 307 307 301 301 303
311 312 312 312 312 312 312 312 310 309 307 305 298 298 306 304 289 289 293 292 293 293 293 294 294 296 297 296 294 297 299 301 303 305 305 308 303 300 302 307 310 307 308 309 308 308 304
310 310 310 312 312 312 312 311 310 309 308 306 298 292 298 299 299 292 290 290 290 294 293 294 293 296 295 294 298 296 297 300 301 302 304 304 305 303 300 304 307 304 306 308 307 303 303
310 310 310 311 311 312 312 311 310 309 307 306 299 293 294 289 291 291 291 291 288 287 293 294 289 290 289 290 293 293 296 298 300 302 303 304 301 303 306 303 303 306 305 307 306 307 304
310 310 311 311 311 311 312 311 311 309 307 303 295 294 297 291 293 291 290 289 288 289 290 289 289 289 290 288 289 290 293 296 296 300 300 302 300 301 300 302 301 301 304 305 307 308 308
310 310 310 311 311 311 311 312 311 310 306 302 304 303 298 292 291 290 290 288 288 290 293 293 292 290 289 291 294 296 298 298 299 297 297 298 299 298 297 301 301 297 302 304 305 307 307
310 310 310 310 311 311 311 311 311 311 308 306 304 302 294 289 290 288 289 289 288 289 287 293 293 291 295 300 300 299 298 297 298 298 299 297 297 298 296 299 291 303 310 308 306 307 309
309 310 310 310 310 311 311 311 311 311 310 305 307 302 295 289 291 291 290 289 291 291 290 292 294 297 300 297 293 290 291 292 294 296 297 299 297 294 292 293 299 301 303 304 305 306 311
309 310 310 310 310 311 310 311 311 311 310 307 305 307 301 291 291 293 291 291 289 289 290 292 297 301 299 295 291 285 285 287 288 291 297 298 298 294 294 289 290 301 306 312 310 303 313
309 310 310 310 310 310 311 311 311 311 311 308 304 306 300 292 294 296 291 290 293 292 290 292 293 294 298 291 287 286 285 291 286 288 291 291 293 291 291 290 296 304 309 316 300 309 321
310 310 310 311 311 311 311 311 311 312 312 309 304 305 300 293 296 299 299 295 293 292 289 292 292 293 294 289 288 290 288 292 290 292 291 290 289 289 291 289 288 304 304 302 313 320 320
310 310 310 310 311 311 310 311 311 312 312 311 303 305 305 297 296 303 303 303 301 299 294 294 292 293 297 293 295 293 290 292 290 287 296 289 293 292 294 294 303 305 306 310 311 313 319

GFSGBSN_sfc_thetae_027.txt.gz
Theta_e
317 316 315 314 315 315 315 315 315 315 315 315 315 315 316 315 315 316 316 317 316 315 315 316 317 317 317 312 311 330 351 343 327 327 322 327 327 329 324 325 328 325 328 330 332 330 328
317 315 315 315 315 314 314 314 314 314 314 314 315 316 316 316 316 316 316 316 315 314 315 317 318 317 315 307 321 322 327 328 327 328 323 327 326 330 327 325 324 327 328 329 329 328 327
315 315 315 314 314 314 314 314 314 314 314 313 314 315 315 315 316 316 315 314 314 316 319 321 321 317 314 314 320 318 323 325 331 330 322 327 328 328 328 323 327 327 322 326 328 324 323
314 314 314 314 314 313 313 313 313 313 314 314 314 314 315 315 315 314 313 312 313 320 320 320 321 318 313 324 326 318 324 326 332 333 329 329 329 327 326 326 323 320 321 317 323 323 324
314 314 314 314 313 313 313 313 313 314 314 314 314 314 314 314 314 312 311 312 315 320 318 320 319 317 314 321 316 321 321 324 330 333 333 330 328 323 324 318 314 315 311 314 318 324 322
313 313 313 313 313 314 314 314 314 314 314 314 314 314 313 313 312 311 310 312 319 319 322 323 322 312 315 314 318 318 320 325 327 328 326 324 322 317 318 315 306 309 310 313 314 321 321
313 313 313 313 313 313 313 313 313 313 314 314 313 313 313 312 311 310 311 315 312 315 319 315 316 314 317 320 319 315 318 322 326 324 316 320 314 312 312 317 316 315 313 312 317 321 319
312 312 312 313 312 313 313 313 313 314 314 314 313 313 312 311 310 310 312 307 306 306 300 307 308 308 317 319 313 313 321 315 316 315 316 312 309 314 315 313 313 313 312 312 316 319 319
312 312 312 313 313 314 314 314 313 313 313 313 313 312 311 310 310 310 310 308 312 311 300 303 308 308 309 317 313 315 314 314 313 314 313 308 309 313 310 309 308 310 309 311 312 316 318
312 312 313 313 313 314 314 313 313 313 313 313 313 312 310 308 308 310 308 311 313 312 296 301 306 309 311 313 311 319 314 313 314 312 315 310 313 310 309 307 309 305 311 312 311 311 308
312 312 313 314 314 314 313 313 313 313 313 313 312 311 309 306 310 308 308 311 312 309 289 307 307 315 313 308 313 313 317 313 310 310 313 309 309 309 307 308 310 307 312 310 310 310 310
311 312 313 313 313 313 313 313 313 312 312 312 311 309 308 309 310 309 311 310 309 295 289 303 306 305 306 308 310 315 314 313 315 311 312 311 315 312 311 312 312 313 310 309 309 307 302
312 312 312 313 313 313 313 313 312 312 311 310 309 307 308 310 304 310 310 306 293 288 303 301 301 306 306 306 306 311 309 304 304 302 303 308 310 313 313 310 312 310 306 299 298 299 299
312 312 313 314 313 313 313 313 312 311 310 309 306 305 310 310 311 310 307 297 286 294 297 302 301 302 300 306 307 308 308 306 306 306 305 303 301 309 312 311 308 308 307 301 295 296 300
312 312 313 313 313 313 313 313 312 311 310 308 306 312 310 309 310 309 301 289 290 294 297 295 298 299 300 304 306 307 307 306 308 308 303 304 304 312 313 313 313 308 305 310 305 306 303
311 312 313 313 313 313 313 313 312 311 310 307 308 308 308 310 311 307 297 290 292 296 296 296 292 299 298 302 303 304 305 309 309 310 313 310 305 311 312 313 313 312 312 303 305 299 299
312 312 312 313 313 313 313 312 312 311 309 307 308 301 307 310 310 301 289 291 292 297 297 294 293 293 294 295 298 303 304 307 309 310 313 311 310 309 312 308 307 308 308 308 308 305 301
312 312 313 312 312 313 313 312 311 310 307 307 305 297 308 309 297 296 290 293 293 295 298 296 297 296 294 295 295 299 303 305 305 308 307 312 309 305 307 312 313 312 309 310 303 304 305
312 312 312 312 313 313 313 312 311 309 308 307 301 301 309 306 291 292 294 293 295 294 294 294 293 295 298 295 293 296 300 306 305 308 307 312 307 303 306 309 311 308 310 311 310 309 306
312 312 312 312 313 313 313 312 311 310 309 306 302 295 300 301 299 294 292 291 290 295 293 295 295 296 294 294 297 296 297 302 304 305 308 309 307 305 304 307 309 306 308 310 310 305 306
311 311 312 312 312 313 313 312 311 310 309 307 301 297 298 292 294 294 294 292 290 289 294 295 293 292 291 290 293 292 297 300 304 307 307 308 304 307 309 311 311 308 307 308 307 309 305
311 311 311 312 312 313 313 312 312 311 308 305 297 295 298 294 295 294 294 291 290 291 292 291 291 292 292 291 291 289 294 296 297 302 303 307 302 307 306 309 307 306 310 309 309 309 310
310 311 311 312 312 313 312 312 312 311 308 301 304 304 299 295 293 291 291 292 291 292 294 295 293 291 291 293 297 299 299 300 299 298 299 301 302 304 301 307 306 301 307 309 310 312 311
311 310 311 311 312 312 312 312 312 311 309 306 303 300 294 291 293 292 292 292 292 293 291 294 295 294 297 301 301 300 299 299 299 300 302 299 301 302 300 304 295 307 313 312 310 312 314
311 310 311 311 312 312 312 312 312 311 310 306 306 299 295 291 294 294 293 292 293 294 293 295 296 298 301 298 293 292 293 294 296 298 299 301 299 298 297 299 303 306 310 309 308 308 314
310 311 311 311 311 312 311 312 312 312 311 308 305 306 298 291 293 296 294 295 291 292 294 295 300 301 299 294 292 287 287 291 291 293 299 300 301 296 298 295 296 306 310 312 313 304 315
310 311 311 311 311 311 312 311 312 312 312 309 306 307 299 291 297 298 294 293 296 294 291 293 295 296 299 293 289 288 287 294 289 291 292 293 295 293 294 294 300 309 313 314 302 311 323
310 311 311 311 311 311 311 311 312 312 312 310 307 308 300 294 296 301 302 296 297 295 290 295 295 296 294 291 290 290 289 294 292 295 294 293 292 293 294 293 292 309 308 305 311 316 318
310 311 311 311 311 311 311 311 312 312 313 312 305 307 306 298 297 305 306 306 304 301 296 297 296 296 295 294 295 295 291 293 293 288 298 291 297 294 296 297 307 309 308 311 312 312 315

GFSGBSN_sfc_thetae_030.txt.gz
Theta_e
316 316 316 315 315 315 315 315 315 315 314 315 315 316 316 316 315 316 316 317 316 315 315 316 317 317 316 311 310 323 350 345 328 318 319 319 323 327 324 325 327 324 328 329 326 329 327
315 315 315 315 315 314 314 314 314 314 315 315 315 316 316 316 316 316 316 316 315 314 317 320 318 318 312 306 324 325 330 328 320 317 319 320 322 328 327 325 323 326 327 327 328 330 328
315 315 315 315 314 314 314 314 314 314 314 315 315 316 316 315 316 316 315 315 314 315 319 323 321 318 311 311 326 322 324 327 323 320 317 321 324 324 328 324 328 325 320 324 326 327 324
315 315 315 314 314 314 314 314 314 315 315 315 315 315 315 315 315 314 314 313 313 316 323 322 323 318 309 326 325 324 318 323 324 326 323 323 325 324 324 328 325 320 320 315 324 326 324
314 314 314 314 314 315 315 315 315 315 315 315 315 315 315 315 314 313 311 312 314 318 321 321 320 315 312 328 321 324 320 317 323 328 327 325 324 319 320 318 316 317 311 314 318 325 323
314 313 313 314 314 315 315 315 315 315 315 315 314 314 314 313 313 311 310 312 319 320 321 322 322 314 316 316 321 322 323 319 320 323 322 321 320 314 314 313 307 310 311 313 315 321 321
314 313 313 314 314 314 315 315 315 315 315 314 314 314 313 313 311 310 311 313 307 312 309 309 315 312 316 322 323 318 321 316 320 321 314 319 313 309 311 314 315 316 313 310 315 320 319
313 313 313 314 315 315 315 315 315 315 314 314 314 313 313 312 310 310 310 307 305 306 299 306 307 307 314 321 314 316 320 312 315 313 318 315 310 315 316 315 314 314 312 311 314 318 318
312 313 314 315 315 315 314 314 314 314 314 313 313 312 311 310 310 310 311 308 311 310 299 300 305 305 307 311 310 314 316 313 311 312 315 311 313 317 315 313 310 312 311 311 311 315 318
313 314 315 315 315 314 314 314 314 314 313 312 312 312 310 308 308 311 307 309 311 310 293 298 304 306 307 309 306 319 317 313 313 310 315 314 317 313 313 311 312 306 314 313 312 311 306
314 314 314 314 314 314 314 314 314 313 312 312 312 311 309 307 308 307 307 310 310 308 285 306 307 316 311 305 310 310 321 313 310 310 313 312 312 310 308 310 312 307 312 311 310 310 309
313 313 314 314 314 314 314 313 313 312 312 312 311 309 308 311 311 310 310 309 307 293 285 301 308 306 306 306 306 312 314 315 317 311 312 314 319 313 311 312 311 311 309 309 308 307 302
313 313 313 314 314 314 313 313 313 312 311 311 309 307 307 311 305 310 309 304 291 286 298 297 298 302 302 304 304 306 309 308 304 301 305 310 312 315 314 309 311 309 305 299 298 298 298
312 313 314 314 313 313 313 313 313 312 311 310 307 305 312 312 311 309 306 296 285 291 292 298 297 298 298 304 305 304 306 305 306 306 305 302 300 310 313 310 308 307 305 300 294 296 298
313 313 313 314 313 313 313 313 312 311 310 308 306 312 312 312 310 310 301 290 287 292 294 293 295 294 297 301 301 305 304 305 307 307 303 303 303 312 313 313 312 307 303 309 303 304 300
313 313 313 314 313 313 313 313 312 311 310 308 306 308 309 312 310 307 297 290 292 296 295 294 289 292 289 293 295 298 303 309 308 309 310 308 303 310 311 314 312 310 312 302 304 297 297
313 313 313 313 313 313 313 313 312 311 309 308 308 303 309 312 309 301 291 291 294 297 297 293 291 289 291 291 293 295 300 306 307 310 311 308 307 307 311 308 306 307 307 307 306 304 299
313 313 313 313 313 313 313 313 312 310 308 307 306 299 310 310 297 297 292 294 294 295 298 295 295 293 292 292 291 292 297 301 307 306 305 309 305 302 307 313 313 311 308 309 302 302 305
312 313 313 313 313 314 313 313 311 310 309 306 301 303 310 306 292 292 295 294 294 294 295 293 292 294 294 291 288 293 295 303 305 304 304 307 305 301 303 309 312 308 309 310 309 308 305
312 312 313 313 313 313 313 312 311 310 310 307 302 296 302 301 300 295 292 291 292 297 295 295 293 296 293 291 293 291 293 300 303 304 313 309 305 305 301 306 310 307 307 309 308 304 305
311 311 312 312 313 313 313 313 311 311 310 307 302 297 299 292 295 295 295 293 291 290 294 295 293 293 291 288 289 290 294 296 300 307 305 308 303 306 307 310 311 308 307 308 307 309 305
311 312 312 312 313 313 313 313 312 311 309 305 297 296 299 296 297 295 294 292 291 292 292 290 291 293 293 289 290 289 292 293 293 299 300 305 302 307 305 309 309 307 308 308 308 308 309
311 311 311 312 313 313 313 313 312 311 310 303 305 300 297 294 295 293 293 293 292 294 295 295 293 292 291 292 296 296 297 296 297 296 297 300 301 302 300 307 307 304 309 309 309 311 310
311 311 311 311 311 312 312 312 312 312 310 309 305 299 292 289 293 293 294 295 294 294 292 294 296 293 297 301 299 298 297 297 298 298 300 297 299 301 299 304 295 308 314 313 311 311 313
311 311 311 312 311 312 312 312 312 312 311 311 307 299 293 289 294 295 295 295 296 296 294 295 297 300 301 298 292 290 291 293 295 298 298 301 298 297 297 298 304 308 311 311 309 310 315
311 311 312 311 311 311 311 311 312 312 311 313 307 304 297 290 291 296 295 296 293 294 294 295 300 303 300 294 290 286 285 292 290 292 299 299 301 296 298 295 295 306 312 315 315 305 321
311 311 311 311 311 311 311 312 312 313 312 312 307 306 299 291 295 297 293 294 298 296 293 295 297 297 299 292 288 287 287 294 290 290 292 293 295 293 295 295 302 308 312 315 303 307 320
311 311 311 311 311 310 311 312 312 312 313 312 308 308 300 294 295 299 300 296 297 297 292 296 295 297 295 290 291 290 289 293 293 295 293 293 291 292 295 294 292 308 310 306 313 315 316
311 311 311 311 311 311 311 312 312 312 313 312 305 308 306 298 297 304 303 305 304 303 298 298 295 296 296 292 294 293 290 292 292 288 299 293 297 294 297 298 312 310 309 311 312 312 312

GFSGBSN_sfc_thetae_033.txt.gz
Theta_e
316 316 316 316 316 315 315 315 315 316 315 315 315 316 317 317 317 316 317 317 316 315 316 317 319 317 313 306 306 320 350 350 331 324 313 310 310 316 314 322 325 322 326 326 327 326 325
316 316 315 315 315 315 315 314 315 315 316 316 316 316 316 316 316 317 317 316 316 314 316 319 321 316 308 300 319 320 328 331 325 317 312 311 312 318 319 321 322 324 327 324 327 326 326
315 315 315 315 315 315 315 315 315 316 316 316 316 316 316 316 316 316 316 315 314 314 315 320 322 317 309 303 319 321 324 322 319 315 310 313 317 314 320 320 327 324 319 326 325 325 325
314 314 314 314 315 315 316 316 316 316 316 316 316 316 316 316 315 315 314 313 314 315 316 322 322 316 305 318 318 316 318 321 318 316 313 315 318 313 313 321 322 319 318 312 322 325 326
314 314 314 315 315 316 316 316 316 316 315 315 315 315 315 315 314 313 312 312 316 320 318 320 316 312 305 325 316 319 319 318 319 317 317 318 315 310 311 310 309 312 307 308 312 322 322
314 314 314 314 315 316 315 315 315 315 315 315 314 314 314 313 312 311 311 312 317 316 320 321 320 308 312 309 318 320 320 317 316 315 316 313 310 306 307 305 300 305 306 307 309 316 319
313 314 314 314 314 315 315 315 315 315 315 314 314 313 313 312 312 310 308 304 300 301 303 296 298 304 302 316 317 318 319 316 312 312 308 312 305 301 305 307 309 311 310 308 312 317 315
313 314 314 314 315 315 315 315 315 315 314 314 313 313 312 311 310 310 308 301 300 301 293 301 302 302 305 307 304 311 320 310 305 304 310 308 303 309 311 310 308 309 308 309 312 315 314
313 314 315 315 315 315 314 314 314 314 313 313 313 312 311 310 309 309 306 301 306 303 293 296 300 300 301 303 301 304 312 312 304 304 307 305 309 314 313 308 306 306 306 307 307 311 312
314 315 315 315 315 314 314 314 314 314 313 313 312 312 310 308 306 305 304 305 306 304 287 294 297 302 303 303 300 309 312 311 307 303 308 308 314 312 310 308 308 302 310 311 310 307 300
315 314 315 314 314 314 314 314 313 313 312 312 312 311 309 308 303 304 306 306 305 301 280 299 300 310 305 299 302 304 311 309 304 304 307 306 310 310 308 309 311 307 311 310 310 306 301
314 314 314 314 314 314 313 313 313 312 312 312 311 310 308 307 306 308 308 306 302 287 282 294 298 296 296 299 302 304 306 310 311 305 307 308 317 314 312 313 313 313 309 304 307 303 295
313 314 314 314 314 314 313 313 313 312 311 311 309 307 306 308 302 309 308 300 286 281 295 292 291 294 293 295 299 301 299 301 300 295 297 305 307 314 314 308 310 308 301 292 290 293 292
314 314 314 314 314 313 313 313 313 312 311 309 307 306 309 311 311 310 303 293 282 290 290 295 293 293 291 294 294 295 297 298 305 301 299 298 296 307 314 307 302 303 301 290 285 288 292
314 314 314 314 313 313 313 313 312 312 310 308 307 308 308 311 313 306 297 286 286 289 292 290 290 288 289 292 292 293 294 296 303 304 297 297 298 310 312 312 308 302 297 300 291 294 290
314 314 314 314 314 313 313 313 312 312 310 308 304 305 307 313 308 301 293 288 290 294 293 293 286 289 285 289 289 290 290 300 297 301 304 300 294 307 310 313 310 304 304 295 296 287 287
313 314 314 314 314 314 314 313 313 311 310 308 304 301 305 308 305 297 288 289 291 295 295 290 289 287 288 288 289 288 290 295 300 298 301 299 298 298 306 305 304 301 300 300 296 294 288
313 313 313 313 313 313 314 313 312 310 308 306 302 295 310 309 294 294 289 292 294 293 296 294 293 290 289 289 288 288 289 293 299 299 293 300 296 294 298 307 310 306 302 301 296 292 294
313 313 313 313 313 313 314 313 311 310 309 304 298 300 309 306 289 290 293 292 294 293 293 292 290 291 292 289 286 290 292 298 298 296 292 298 293 292 294 299 304 303 304 303 299 297 295
313 313 313 313 313 313 313 312 311 310 310 305 300 293 299 300 298 293 291 290 290 296 294 294 291 292 291 289 291 288 290 295 297 297 305 301 295 293 292 296 300 301 304 304 301 297 297
311 311 312 313 313 313 313 312 312 311 310 305 300 295 297 289 292 293 294 292 290 290 294 294 290 291 288 286 287 288 290 292 294 298 296 293 290 297 301 303 305 305 304 304 301 300 298
312 312 312 313 313 313 313 312 312 311 310 303 296 293 295 292 294 292 293 291 291 292 292 289 289 290 290 286 288 286 289 290 289 293 292 293 290 297 298 304 304 303 305 306 304 304 303
311 311 312 312 312 312 313 312 312 311 309 301 304 301 295 292 291 290 291 292 292 294 294 294 292 289 289 291 295 294 294 293 293 291 289 290 292 292 292 302 304 298 305 305 305 306 305
312 311 311 312 312 313 313 313 312 311 310 307 306 300 291 287 290 290 292 293 293 294 292 295 294 292 295 299 298 296 294 294 293 293 294 290 290 292 293 298 291 302 309 311 307 307 308
312 312 311 311 311 312 312 311 312 312 311 308 308 299 292 286 291 291 292 293 295 296 294 294 295 298 299 295 289 286 287 289 291 294 293 294 292 288 291 293 298 304 307 305 304 306 314
311 312 312 312 311 311 311 312 312 313 312 309 309 304 296 288 289 294 291 293 290 292 293 295 299 301 299 292 288 282 282 286 288 290 295 295 295 292 292 291 292 297 305 312 311 301 313
312 312 312 311 311 311 312 312 312 313 312 310 308 305 298 290 293 295 292 292 296 294 291 294 295 295 298 289 285 284 285 292 286 288 288 290 291 289 291 292 297 303 307 313 300 301 311
311 311 311 311 311 311 312 312 312 312 313 311 307 307 300 293 295 298 298 296 296 295 291 295 293 294 293 288 287 287 287 289 289 292 287 290 289 288 292 291 290 304 304 301 306 307 308
311 311 310 311 311 311 312 312 312 312 312 312 305 309 307 298 297 302 302 303 301 301 296 297 294 293 295 290 290 290 287 291 289 285 294 288 292 290 293 295 301 305 303 306 307 306 306

GFSGBSN_sfc_thetae_036.txt.gz
Theta_e
316 316 316 315 315 315 315 315 315 316 316 316 316 317 317 317 317 317 317 317 316 316 316 316 319 318 311 304 304 317 342 345 331 322 314 310 305 307 309 316 322 322 325 329 331 330 326
315 315 315 315 315 315 315 315 315 315 316 316 316 316 316 316 316 317 317 316 316 315 315 316 320 317 306 297 313 317 325 330 321 318 313 309 306 308 311 313 318 323 324 325 327 325 323
315 315 315 315 315 315 315 315 315 315 315 316 316 316 315 315 316 316 316 315 315 316 317 316 321 316 307 301 312 314 320 323 321 316 310 312 310 311 311 313 318 318 318 322 324 324 323
314 315 315 315 315 315 315 315 316 316 316 316 316 316 315 315 315 314 314 313 314 319 319 316 323 315 303 316 317 314 314 313 321 318 311 313 311 308 307 311 310 314 315 311 322 325 325
314 315 315 315 315 316 315 316 316 316 315 315 315 315 314 314 314 313 311 312 316 320 320 322 313 310 303 322 315 315 315 314 314 313 311 315 308 305 306 302 299 305 303 308 314 325 323
314 315 315 315 314 315 315 315 315 315 315 315 314 314 314 313 312 311 311 312 315 319 320 320 319 305 308 306 309 310 315 317 312 310 308 307 302 299 302 297 294 299 302 306 308 314 321
314 314 314 314 314 315 315 315 315 315 315 314 314 314 313 312 311 310 307 300 296 292 296 292 294 303 302 305 307 308 313 315 314 308 301 304 298 296 299 301 303 306 306 306 310 315 312
314 314 314 314 315 315 315 315 314 314 314 314 313 313 312 311 310 310 304 294 294 297 289 298 299 298 301 302 297 302 310 307 305 302 305 302 298 303 306 305 304 305 303 306 312 315 309
314 314 314 315 315 315 315 314 314 314 313 313 313 312 311 310 309 304 300 299 301 295 287 294 297 297 298 298 297 298 303 307 303 300 303 302 305 309 307 305 303 303 301 303 306 311 309
314 315 315 315 315 315 314 314 314 314 313 313 312 312 310 309 301 301 301 303 300 297 283 290 296 299 300 300 295 306 304 304 305 299 301 302 310 307 306 304 305 298 306 307 307 304 299
314 315 315 315 315 315 314 314 314 313 312 312 312 310 309 308 298 299 303 303 305 295 277 296 296 304 299 296 299 301 307 303 300 302 299 300 304 306 304 306 309 303 307 306 306 302 298
314 315 314 314 315 314 314 313 313 313 312 311 310 309 308 303 299 303 304 304 294 284 280 291 296 293 292 296 297 300 300 304 306 301 302 301 311 309 308 311 312 311 306 304 304 299 293
314 314 314 314 314 314 313 313 313 312 311 310 308 307 306 307 297 301 303 294 282 278 292 289 288 291 290 291 293 295 294 294 292 291 295 300 302 308 313 307 310 308 299 294 291 292 292
314 315 315 314 314 314 314 314 313 312 311 309 307 306 306 307 304 304 297 288 279 288 286 291 290 290 287 291 292 292 291 288 298 293 293 293 292 302 309 307 305 305 301 293 287 286 292
314 314 314 314 314 314 313 313 312 312 310 308 306 301 301 304 307 302 290 281 281 284 289 288 288 285 286 291 291 290 289 290 294 294 287 290 294 305 308 311 310 301 300 299 289 289 287
313 314 314 314 314 313 313 313 312 312 310 308 300 297 299 307 303 294 287 284 285 290 291 290 283 286 282 286 287 287 288 293 293 296 296 291 288 301 304 309 310 306 302 293 288 284 283
313 313 313 314 313 313 313 313 312 311 310 308 295 293 301 307 297 289 281 282 288 294 294 289 286 285 285 285 288 287 288 291 296 294 295 292 289 294 299 302 301 300 299 294 295 289 287
312 313 313 313 313 313 313 313 312 310 308 303 293 289 302 305 289 285 283 287 294 291 294 291 291 289 286 288 287 287 287 291 297 296 290 294 291 287 294 300 305 307 298 297 293 288 288
313 313 313 313 313 313 313 312 311 310 309 302 292 291 302 297 283 284 288 292 292 290 290 291 288 289 288 287 285 289 290 295 297 294 291 294 290 283 289 293 298 297 303 299 293 292 290
312 312 312 313 313 313 313 312 311 310 309 298 291 287 292 293 292 287 286 288 289 295 292 292 290 288 286 285 290 288 289 293 295 294 298 297 285 285 284 290 295 294 299 300 299 293 293
312 312 312 312 312 312 313 312 311 310 309 298 291 287 290 285 288 288 287 289 290 289 293 292 288 289 284 280 285 287 289 290 293 296 294 291 282 286 290 294 297 297 300 302 297 298 295
312 311 311 312 312 312 313 312 312 310 309 296 290 288 290 291 290 288 289 289 290 291 292 288 287 289 286 282 286 284 288 288 289 292 290 291 282 286 287 299 301 299 303 303 301 301 298
311 311 311 312 312 313 312 312 312 310 308 298 295 295 294 291 288 287 288 289 289 293 294 295 292 289 287 289 292 293 294 293 292 290 289 287 283 283 284 296 301 296 300 302 302 302 302
312 311 311 312 312 311 311 311 312 311 310 304 302 299 291 287 290 290 291 291 291 292 291 294 293 289 293 295 295 293 293 292 292 292 292 287 283 283 285 292 289 297 303 305 306 306 306
312 312 311 311 311 311 311 312 312 312 311 306 305 300 292 286 290 291 291 292 292 293 293 294 295 295 295 291 285 283 285 287 289 292 291 292 286 282 285 289 295 297 299 300 299 301 305
312 312 312 311 311 311 312 312 312 313 312 308 306 304 295 289 288 293 292 292 289 291 292 293 297 297 297 287 284 281 280 285 287 291 292 293 292 284 285 287 288 294 301 309 308 295 305
312 312 311 311 311 311 312 312 313 313 312 308 306 305 298 290 293 294 291 290 293 292 290 293 293 292 294 288 285 285 284 290 285 286 286 287 289 287 289 291 293 299 302 308 294 297 306
311 311 310 310 311 311 312 312 313 313 313 310 306 306 300 293 295 298 298 295 295 294 289 293 292 290 288 286 286 285 285 287 287 289 288 288 287 286 291 288 288 303 302 294 299 304 304
311 310 310 310 311 311 312 312 313 313 313 311 303 308 307 298 297 302 302 303 301 300 296 295 290 288 293 286 288 288 286 289 287 284 294 286 290 289 290 292 300 305 302 304 304 303 305

GFSGBSN_sfc_thetae_039.txt.gz
Theta_e
315 316 316 316 315 315 315 315 315 315 315 316 316 316 316 316 316 316 316 316 316 316 316 316 316 318 310 300 300 313 344 333 331 319 313 309 307 308 307 312 318 322 326 328 332 331 330
315 315 315 315 315 315 315 315 315 315 315 315 316 316 316 316 316 317 317 316 315 315 316 316 316 318 305 293 307 315 325 325 322 315 309 307 307 310 309 310 316 321 324 325 326 326 325
315 315 315 315 315 314 314 314 315 315 315 315 316 316 316 316 316 316 316 315 315 317 320 316 318 315 306 300 313 314 317 319 321 314 307 310 308 309 307 309 315 315 314 315 320 323 322
315 315 315 315 315 315 315 314 315 315 315 315 315 316 315 315 316 315 314 313 315 320 318 318 322 314 302 314 315 316 312 310 320 316 309 310 308 307 305 309 307 309 308 303 315 321 323
314 315 315 315 314 315 315 315 314 315 315 315 315 315 315 315 314 313 312 312 316 321 322 322 312 307 302 321 310 310 312 310 316 314 312 314 306 300 304 301 297 298 298 305 310 320 322
314 314 314 314 314 315 315 315 315 315 315 314 314 314 314 313 312 311 311 313 314 320 319 319 317 301 302 299 303 305 308 314 311 311 307 304 300 295 296 295 293 295 299 303 305 313 320
314 314 314 314 314 315 315 315 315 315 315 314 314 313 313 312 311 310 307 295 293 291 293 289 292 298 299 302 305 302 304 309 309 304 297 300 294 293 295 300 301 302 303 304 309 314 313
314 314 314 314 314 315 314 314 314 314 314 314 313 312 312 311 310 310 301 295 295 295 287 296 296 296 299 299 296 301 304 303 305 298 301 296 293 298 300 301 300 299 298 301 307 311 308
314 314 314 314 315 315 315 314 314 314 313 313 312 312 311 310 309 303 298 297 298 293 285 292 296 296 297 296 296 299 302 300 298 301 300 297 300 303 302 299 298 298 297 299 302 308 309
314 314 315 314 315 315 314 314 314 313 313 312 312 311 310 309 300 299 299 300 301 296 282 289 293 297 297 299 295 304 305 300 298 298 302 299 305 304 300 300 301 294 303 304 303 303 296
314 314 315 315 315 314 314 314 313 313 312 312 311 310 308 308 296 296 300 301 300 293 276 295 293 301 296 294 296 298 305 301 295 295 296 298 301 301 300 301 304 300 304 303 303 298 296
314 314 314 314 313 314 314 313 313 313 312 312 310 309 308 302 298 300 302 298 293 283 277 290 293 292 291 293 295 298 298 301 302 297 298 297 303 304 304 307 307 307 302 300 299 296 292
314 314 314 314 313 314 313 313 313 312 311 310 309 307 306 306 295 301 300 293 282 277 290 287 286 289 288 289 291 293 292 294 290 287 289 296 298 303 307 303 306 305 297 288 288 288 291
313 313 314 314 313 313 313 313 313 312 311 309 307 305 305 307 304 302 293 287 278 286 284 288 288 288 286 290 290 291 289 287 294 292 287 285 289 299 303 303 302 302 299 290 284 287 293
313 313 314 313 313 313 313 313 312 312 311 308 306 299 300 302 305 298 290 280 280 282 287 287 286 283 283 289 288 288 287 288 294 293 286 285 287 296 304 305 307 301 299 300 290 285 288
313 313 313 313 313 313 313 313 312 312 310 308 298 293 296 304 300 293 286 283 283 290 290 288 281 284 281 284 285 285 285 291 291 294 295 290 283 293 300 305 306 305 304 294 289 285 285
312 312 312 313 313 313 313 313 312 311 309 307 293 291 300 305 295 288 281 281 287 292 293 287 284 283 283 283 285 284 286 290 293 292 294 292 289 290 296 296 297 299 299 299 298 289 289
313 312 313 313 313 313 313 313 312 310 308 301 290 284 299 297 288 284 281 286 293 290 292 290 289 286 284 286 284 285 286 290 296 295 289 292 290 287 291 297 299 303 298 294 297 290 286
313 313 313 313 313 313 313 312 311 309 308 302 291 288 299 297 283 282 286 290 291 289 289 290 288 288 286 285 281 287 289 295 296 293 290 292 289 281 287 291 297 294 302 297 296 291 289
312 312 311 312 312 312 313 312 311 309 309 296 292 285 290 291 290 284 285 287 289 296 293 292 289 288 285 284 286 284 287 293 295 294 298 296 289 282 281 285 290 289 294 299 295 289 291
312 311 311 311 312 312 313 312 311 310 309 297 289 285 288 282 285 285 288 288 288 289 294 294 287 288 284 279 281 282 287 290 292 295 293 291 283 283 286 288 288 289 290 294 293 296 294
312 311 311 311 312 312 312 312 311 310 307 295 289 287 287 289 291 287 288 287 288 289 290 290 289 291 291 281 283 281 285 287 288 291 289 291 285 284 283 290 289 289 296 299 299 297 295
312 311 312 312 312 311 311 311 311 310 307 297 295 296 294 292 290 288 288 290 289 291 294 294 292 290 287 288 290 289 289 291 291 290 288 287 285 281 279 291 295 292 295 299 300 300 298
311 312 312 312 311 310 311 311 312 311 309 304 301 299 292 287 290 290 291 292 291 292 289 293 294 289 293 295 294 290 289 291 292 291 292 288 284 281 279 288 289 294 300 301 302 301 303
311 311 311 311 310 311 312 312 312 312 311 306 305 300 294 287 290 291 292 292 292 293 292 293 295 296 296 293 283 281 284 288 287 290 290 290 286 280 279 286 294 296 298 297 295 297 303
311 312 311 310 311 311 311 312 312 313 312 308 306 305 296 290 289 293 291 292 289 289 290 293 297 296 294 290 284 281 280 285 284 287 291 291 290 286 281 288 286 294 300 302 304 292 302
311 311 310 311 311 311 312 312 312 313 312 308 306 305 297 290 294 294 291 290 293 291 287 292 291 291 294 287 283 283 283 287 285 284 284 287 288 284 284 290 292 298 301 303 289 292 302
311 310 310 310 311 311 312 312 313 313 313 309 305 306 300 293 295 298 299 295 295 293 289 290 287 290 288 285 284 284 284 286 286 287 287 286 285 287 291 289 287 301 300 292 295 302 303
310 310 310 310 311 311 312 312 313 313 313 310 302 308 307 298 297 303 302 303 301 301 296 295 292 291 290 287 287 287 286 288 286 281 292 286 288 287 289 290 299 304 302 301 301 299 301

GFSGBSN_sfc_thetae_042.txt.gz
Theta_e
315 315 315 315 315 315 315 315 315 315 315 316 315 316 316 316 316 317 318 317 316 316 316 317 316 318 308 296 298 312 334 331 327 326 322 314 316 308 312 319 318 324 327 328 332 331 328
315 315 315 315 315 314 314 315 315 315 315 315 315 316 316 316 317 317 317 317 315 316 317 317 316 317 303 290 305 316 325 323 324 318 313 309 315 310 309 311 316 321 323 325 325 325 326
315 315 315 315 315 314 315 315 315 315 315 315 315 315 316 316 316 316 316 315 314 317 320 318 319 314 304 300 313 315 317 320 318 314 308 308 309 310 307 306 314 318 313 314 314 321 321
315 315 315 315 315 315 314 314 314 314 315 315 314 315 315 315 315 315 314 314 315 319 318 319 321 311 299 314 314 316 311 309 319 316 307 309 307 305 303 308 305 306 309 302 312 316 320
314 314 315 315 314 314 315 314 314 314 315 315 315 314 314 314 314 313 312 312 316 321 320 322 311 303 297 316 304 302 304 307 315 314 313 314 304 299 302 299 296 297 298 303 309 317 319
314 314 314 315 314 314 315 315 315 315 315 314 314 313 313 313 312 311 311 312 322 320 319 319 316 296 299 297 301 303 304 313 313 311 309 303 298 293 293 295 290 294 295 301 305 311 317
314 314 315 315 314 315 315 315 315 315 314 314 314 313 312 312 311 310 307 295 293 292 293 287 291 294 298 300 302 303 303 305 308 304 297 298 292 291 295 298 300 300 301 302 307 312 314
315 315 314 314 314 314 314 314 314 314 314 314 313 312 312 311 310 310 301 294 295 296 288 294 295 294 297 297 295 301 305 301 303 297 298 293 291 296 297 296 298 298 295 297 305 312 310
314 314 314 314 314 315 315 314 314 314 313 313 312 312 311 310 309 301 297 296 297 292 285 290 294 294 296 294 295 297 300 299 295 297 297 292 295 300 298 296 294 295 295 296 300 307 310
314 314 314 314 314 314 314 314 313 313 313 312 312 311 310 308 299 297 295 299 300 295 282 288 291 295 297 297 292 302 302 299 296 295 299 296 302 300 296 295 296 289 299 301 300 299 295
314 314 314 315 314 314 314 313 313 313 312 312 312 310 308 307 295 295 297 299 295 291 276 293 291 299 295 292 293 295 302 299 294 294 293 295 298 299 297 296 299 294 300 299 300 297 295
314 314 313 314 313 314 313 313 313 312 312 312 311 309 308 301 297 300 300 297 292 282 277 288 291 290 289 291 293 296 297 302 301 296 296 295 300 299 301 303 301 303 299 297 297 294 291
314 313 313 313 313 313 313 313 313 312 311 311 309 307 305 305 297 299 299 291 281 277 288 285 285 287 286 288 290 291 292 291 288 285 286 293 296 298 301 297 302 301 296 286 285 286 290
313 313 314 313 313 313 313 313 313 312 311 309 307 305 302 306 303 302 292 286 277 284 283 286 286 285 284 288 287 289 287 287 293 290 285 283 286 296 300 297 297 298 296 287 282 284 290
313 313 313 313 313 313 313 313 312 311 310 309 305 295 298 301 301 295 289 279 279 281 286 285 284 282 282 287 286 286 285 287 292 291 285 283 285 295 298 300 301 297 295 298 289 285 286
313 313 313 313 313 313 313 313 312 312 310 308 296 291 295 303 297 292 286 283 282 289 288 287 280 283 279 282 283 283 283 289 290 294 293 290 283 291 296 300 301 301 302 293 290 286 281
313 313 313 312 313 313 313 313 312 311 309 306 291 288 298 302 293 287 281 280 285 291 291 287 284 282 283 282 284 283 284 289 293 292 293 289 288 287 293 293 294 296 298 298 296 291 289
313 313 313 313 312 313 313 313 312 310 308 301 288 281 295 297 287 283 281 285 292 288 291 289 288 286 284 285 282 283 284 289 296 295 288 292 289 284 287 296 298 295 295 297 295 290 287
313 313 313 312 312 313 313 312 311 309 308 301 290 290 298 296 282 281 285 288 291 289 288 288 287 288 285 283 280 285 288 294 296 293 289 291 286 282 283 290 292 292 297 297 293 297 294
312 312 311 312 312 313 313 312 310 309 309 296 292 284 288 289 287 282 285 286 287 295 293 294 290 288 284 282 284 282 286 293 295 293 297 295 288 284 279 284 287 285 289 296 293 294 295
312 312 312 312 312 311 312 311 311 309 308 296 288 283 290 283 284 288 289 287 287 288 294 294 290 289 287 279 280 282 285 287 293 295 293 290 284 286 287 287 288 287 287 290 289 292 294
311 311 311 311 311 311 311 311 311 310 306 293 288 287 287 289 289 289 289 288 287 289 290 289 289 291 290 286 286 283 284 283 285 291 290 291 284 288 283 287 287 286 290 291 292 294 294
311 311 311 311 311 311 311 311 312 310 307 297 296 297 294 291 290 288 289 289 289 292 292 293 293 291 290 290 291 289 288 287 288 288 288 287 286 283 277 287 288 285 291 296 299 300 298
311 311 311 311 310 311 312 312 312 312 309 303 301 299 293 287 290 290 291 292 291 292 290 292 293 290 294 297 294 293 289 288 288 288 291 286 286 284 280 283 284 293 300 302 299 298 301
311 311 311 310 311 312 312 312 312 312 311 306 305 300 294 287 291 291 292 292 292 293 292 293 294 297 296 291 286 279 279 282 284 289 290 290 287 282 278 281 293 295 297 296 295 296 300
311 311 310 311 311 311 312 312 312 313 311 307 306 305 297 291 290 294 292 293 289 289 290 292 295 296 294 290 286 280 277 283 283 285 291 290 289 284 283 281 287 292 298 302 301 292 301
310 310 310 310 311 312 312 313 313 313 312 308 305 305 298 291 295 295 292 291 294 291 287 290 293 291 293 287 283 281 281 285 282 283 284 285 285 281 283 284 291 296 300 301 292 291 300
310 310 310 311 311 312 312 312 313 313 313 308 302 306 301 294 296 297 299 296 296 294 287 292 288 290 289 285 285 283 283 285 285 286 286 285 284 287 288 290 288 301 298 292 295 299 299
309 309 310 311 311 312 312 313 313 313 313 308 302 308 307 299 297 301 303 303 301 301 297 294 290 292 292 288 288 287 285 286 286 282 291 284 287 285 287 289 295 302 297 299 300 299 299

GFSGBSN_sfc_thetae_045.txt.gz
Theta_e
316 316 316 316 315 316 316 316 316 315 315 315 316 315 316 316 316 316 317 317 317 317 317 318 317 317 313 303 301 316 335 332 329 330 327 319 322 320 313 321 325 326 329 331 333 332 332
315 315 316 316 315 315 315 315 315 315 315 315 315 316 316 316 316 316 316 315 315 316 319 319 316 317 310 298 311 318 326 326 326 328 323 321 317 321 318 322 319 323 327 329 329 330 330
315 315 315 315 315 315 315 315 315 315 315 315 315 316 315 316 315 315 315 314 314 317 320 318 319 315 307 305 316 319 319 324 325 325 319 319 321 317 316 311 320 321 318 319 321 323 325
314 315 315 315 315 315 314 314 314 315 315 315 315 315 315 315 315 314 313 312 314 318 319 320 320 315 305 316 319 313 316 319 323 324 315 317 318 318 311 313 310 309 311 304 317 322 323
315 315 315 315 315 315 314 314 314 315 315 315 315 315 315 314 314 313 312 313 316 320 321 322 316 312 299 315 306 308 307 311 319 322 315 315 314 309 310 307 305 307 300 303 310 322 324
315 315 315 315 315 315 315 315 315 315 315 314 314 314 314 313 312 312 311 313 324 322 321 320 315 302 303 299 304 306 310 320 315 312 309 308 309 304 304 302 295 300 301 307 308 319 321
315 315 315 315 315 314 315 315 314 314 314 314 314 313 313 312 311 310 309 305 301 301 302 297 297 297 300 304 306 305 309 315 313 307 299 305 299 298 300 303 303 305 305 304 312 319 319
315 315 315 314 314 314 314 314 314 314 314 314 313 313 312 311 310 310 306 303 301 302 296 298 298 298 302 302 300 302 309 307 309 303 302 299 296 302 302 301 302 301 303 304 311 313 318
314 314 314 314 315 315 315 314 314 313 313 313 313 312 311 310 310 306 303 303 305 301 294 296 298 299 300 302 299 299 305 303 303 303 303 299 300 303 300 299 298 300 299 303 303 308 313
314 314 315 314 314 314 314 314 313 313 313 313 312 312 310 308 304 303 301 304 306 302 292 293 296 298 301 300 296 303 306 302 300 300 304 303 307 301 300 299 299 295 301 302 304 303 303
314 314 314 314 314 314 314 314 313 313 313 312 312 311 309 307 304 302 302 307 301 299 282 294 295 303 300 297 298 298 306 303 298 299 300 301 303 303 301 300 302 298 302 300 300 302 303
314 313 313 313 313 313 313 313 313 312 312 312 311 309 308 306 304 305 306 303 300 290 281 290 294 293 293 296 296 298 301 305 303 299 300 300 303 303 305 307 303 304 301 301 301 299 293
314 313 313 313 313 313 313 313 313 312 312 311 309 307 306 308 303 308 306 300 289 284 292 288 289 292 292 291 292 294 295 295 293 288 291 294 297 302 305 302 305 303 300 294 291 291 290
314 314 314 314 313 313 313 313 313 312 311 310 307 305 305 308 308 306 301 296 284 287 287 292 290 290 288 291 291 291 292 291 295 294 292 289 287 298 300 302 301 301 301 294 288 290 292
314 315 314 314 313 313 313 313 312 311 311 309 305 302 305 307 306 303 300 288 287 288 290 289 289 287 287 290 290 289 290 292 293 295 289 289 289 298 299 301 301 301 298 304 297 298 295
313 313 313 313 313 313 313 313 312 311 310 308 301 299 303 306 302 302 297 288 289 292 293 291 286 288 285 287 287 288 288 293 293 295 297 292 283 293 297 299 303 301 305 297 298 290 289
313 313 312 312 313 313 313 313 312 311 309 307 298 296 303 305 301 297 290 289 289 295 295 291 288 287 288 287 288 287 287 292 295 294 296 293 289 286 292 294 297 300 298 302 302 299 293
312 313 313 312 312 313 313 312 311 309 308 305 297 290 304 303 296 292 291 290 293 293 295 293 292 291 288 289 288 287 287 290 297 297 291 294 290 284 286 293 297 296 295 300 297 296 300
312 312 312 313 313 312 312 312 310 309 307 303 294 294 304 303 290 290 291 291 292 293 293 292 291 292 292 289 285 288 290 295 298 295 293 295 288 281 283 290 296 293 297 298 302 303 300
311 311 312 311 311 312 312 311 310 309 307 303 297 291 296 297 294 289 286 288 289 295 294 295 293 292 289 288 290 287 289 295 298 296 299 296 289 285 281 285 292 290 294 295 297 297 299
310 311 311 311 311 311 312 312 310 309 306 303 296 291 292 289 291 290 290 289 288 289 294 295 292 291 289 286 286 286 289 291 296 298 296 294 285 287 288 289 289 289 289 291 291 297 299
311 311 310 311 311 311 312 312 312 310 305 300 296 294 294 292 291 290 289 288 288 289 290 289 289 291 291 288 289 287 289 290 289 294 293 294 286 288 285 288 289 288 291 292 293 295 299
311 311 310 311 311 312 312 312 312 311 308 301 297 298 295 292 291 289 289 289 290 292 293 293 292 287 288 291 294 296 296 295 293 291 291 290 287 284 281 287 288 286 291 293 295 300 300
311 311 310 311 312 312 312 312 312 311 309 306 302 300 293 288 290 290 292 292 292 292 290 293 294 291 294 300 298 297 296 295 294 293 294 288 286 286 282 284 279 294 304 299 302 302 305
311 311 311 311 311 311 312 312 312 312 311 307 306 301 295 289 292 292 292 292 293 294 292 292 295 298 300 296 290 287 285 287 289 292 292 293 288 283 280 282 287 297 300 301 303 298 304
310 310 311 311 311 312 312 312 313 313 311 309 307 307 299 292 291 295 292 293 290 289 290 292 298 300 298 293 288 282 280 284 283 286 293 292 292 285 283 280 282 294 300 304 305 297 301
310 310 310 311 311 312 312 313 313 313 312 310 308 307 300 293 297 296 293 292 295 292 288 292 293 294 296 289 285 283 283 285 283 282 283 285 285 281 282 281 284 297 302 304 296 295 300
310 310 310 311 311 312 312 313 313 313 313 311 308 308 302 296 299 300 299 296 296 295 288 293 292 292 291 286 286 286 285 286 286 286 286 284 283 282 284 281 280 297 301 296 299 301 302
309 310 310 311 312 312 313 313 313 313 313 309 306 309 308 300 300 305 305 304 302 302 297 296 294 292 293 288 289 288 286 288 287 283 291 285 286 285 286 286 291 298 299 303 303 301 301

GFSGBSN_sfc_thetae_048.txt.gz
Theta_e
316 317 317 317 317 316 316 316 316 316 316 316 316 317 317 316 316 317 317 317 317 317 318 319 318 318 317 309 305 319 339 337 329 332 330 325 323 321 316 319 322 324 329 333 332 333 333
316 317 317 317 317 316 316 316 316 316 316 316 317 317 317 316 317 316 316 316 315 316 320 321 318 319 315 304 317 319 326 327 326 331 329 325 322 321 316 315 317 320 323 330 331 334 333
316 316 316 316 316 316 315 315 316 316 315 316 316 316 316 316 316 315 315 314 314 318 320 319 320 319 310 305 316 318 320 325 328 327 324 323 322 319 316 314 320 320 319 322 326 329 330
316 316 316 316 316 315 315 315 315 316 316 316 316 316 316 316 315 314 314 313 315 318 319 320 321 321 307 314 318 313 317 324 328 329 325 325 323 319 315 316 312 312 313 312 322 325 329
316 316 316 316 315 316 316 316 315 316 315 315 315 315 315 315 314 313 312 314 319 321 321 322 320 315 304 314 309 313 313 319 322 323 321 323 320 316 316 308 306 308 304 308 315 326 327
316 316 316 315 315 315 315 315 315 315 315 315 314 314 314 314 313 312 311 314 323 322 322 322 317 308 306 303 308 312 319 323 318 320 312 312 313 309 309 306 300 303 304 309 310 322 327
316 315 315 315 315 315 315 315 315 314 315 314 314 314 313 313 312 311 312 314 313 306 308 302 303 302 303 308 311 312 316 319 318 317 307 308 305 302 305 308 307 307 308 307 313 321 322
315 315 315 315 315 314 314 314 313 313 314 314 313 313 313 312 311 311 312 308 305 307 301 303 303 304 306 307 303 307 317 313 310 306 309 305 300 307 309 307 306 305 306 309 313 317 321
315 315 315 314 314 314 314 314 314 314 314 313 313 313 312 310 311 311 309 307 312 310 301 300 303 303 303 307 302 302 309 309 310 306 305 303 305 307 305 304 303 304 303 305 308 313 316
315 315 315 314 314 314 314 314 314 314 313 313 313 313 311 308 308 311 308 311 314 311 297 297 300 301 304 305 300 306 308 306 306 306 307 305 308 305 303 302 304 300 306 305 304 307 306
315 315 315 315 315 314 314 313 313 313 313 313 313 312 309 307 312 309 310 314 312 306 287 297 299 306 304 301 301 301 308 305 302 303 306 305 306 306 303 304 306 303 307 305 304 303 307
315 315 314 314 314 314 313 313 313 313 313 313 312 310 308 312 314 311 314 312 307 295 286 294 298 296 297 299 299 301 302 306 306 300 305 305 309 307 308 309 308 307 305 305 304 302 295
315 315 315 314 314 313 313 313 313 313 312 311 309 308 308 314 310 314 314 306 294 289 296 292 294 296 296 295 296 297 298 298 298 293 296 301 302 308 309 306 310 307 303 297 295 295 294
314 315 315 315 314 313 313 313 313 312 311 310 307 306 306 312 314 313 310 300 288 292 293 296 295 294 293 294 295 294 295 295 298 298 296 294 292 301 304 305 305 305 304 299 294 294 296
314 314 314 314 313 313 313 313 313 311 310 309 306 313 314 312 312 313 304 292 292 293 295 293 294 292 293 294 294 294 294 295 296 298 293 294 293 302 302 305 306 305 302 307 302 304 300
313 313 313 313 313 313 313 313 312 310 310 308 308 310 307 312 311 308 300 292 294 296 296 295 291 293 290 292 291 293 292 297 295 297 298 296 289 296 298 301 305 305 309 301 301 294 294
313 312 313 313 313 313 313 313 311 310 309 308 307 304 308 313 309 304 295 297 295 298 298 294 293 293 293 292 292 293 292 295 297 296 298 296 292 293 295 295 298 301 301 303 305 302 297
312 312 312 313 312 313 313 313 311 309 307 308 306 298 309 313 303 303 299 296 294 297 298 297 296 295 293 294 292 293 291 294 299 298 292 297 294 290 292 297 299 298 300 303 298 299 302
311 311 311 311 312 312 313 312 310 309 307 308 303 303 310 311 298 297 297 296 296 296 297 296 294 296 297 294 290 292 293 296 298 297 294 297 292 287 289 293 297 294 298 301 303 304 300
311 311 312 311 312 312 312 312 310 309 308 308 304 300 304 304 300 294 291 293 293 298 297 298 297 298 295 293 295 291 291 295 298 297 299 296 292 289 286 290 293 292 295 299 301 297 299
311 311 311 311 312 312 313 313 311 310 308 308 304 298 299 292 294 294 294 293 290 290 296 297 295 294 293 290 292 290 292 293 296 298 299 296 290 291 292 292 292 291 291 294 295 298 296
311 311 311 311 312 312 313 313 312 311 309 309 301 299 298 294 294 294 293 293 291 291 291 291 292 293 293 290 293 290 292 293 292 297 295 296 290 291 289 292 292 289 291 292 294 296 298
311 312 311 312 312 312 312 313 312 311 309 306 303 300 299 293 293 293 292 291 291 293 294 295 294 291 289 292 295 297 298 298 297 295 294 293 292 289 285 290 289 286 290 292 294 298 299
312 311 311 312 312 312 312 312 313 311 310 309 304 302 297 294 296 293 294 295 292 295 292 295 296 293 297 302 301 300 299 298 298 297 298 293 291 291 286 288 280 290 296 297 295 297 302
311 311 311 312 312 312 313 313 313 312 311 312 309 303 299 292 294 294 294 294 295 295 294 295 296 299 302 298 291 290 290 290 293 296 294 296 292 286 284 284 288 291 295 298 295 296 302
311 311 311 312 312 312 312 313 313 312 311 314 313 311 301 295 296 297 294 296 292 292 295 295 301 304 300 294 290 285 284 287 285 289 297 294 295 288 287 280 279 291 292 295 303 294 310
310 310 311 312 312 312 313 313 313 313 311 313 312 313 303 300 304 301 295 293 297 294 291 296 298 296 298 290 287 287 285 287 283 284 286 289 290 284 284 283 286 293 294 296 289 299 309
310 310 311 311 312 312 313 313 313 313 313 312 311 313 307 302 303 304 303 300 297 297 291 295 297 296 292 288 288 288 286 288 285 288 287 286 284 284 285 282 279 295 292 290 302 304 303
310 310 311 311 312 313 313 314 313 313 313 311 308 313 312 302 305 309 308 309 306 305 299 300 297 296 294 289 290 289 287 290 288 285 289 284 288 286 286 288 295 293 293 302 303 302 302

GFSGBSN_sfc_thetae_051.txt.gz
Theta_e
317 317 318 318 318 317 317 317 317 317 317 317 317 318 318 317 317 317 318 317 317 317 318 320 321 319 319 314 311 320 339 338 336 326 332 329 324 324 318 320 325 325 327 332 334 335 334
317 317 318 317 317 317 317 316 316 316 317 317 317 317 317 317 317 317 317 316 316 316 319 323 321 320 320 309 318 320 328 332 329 322 329 329 324 326 320 319 320 323 325 330 334 332 333
317 317 317 317 317 316 316 316 315 316 316 316 317 317 317 317 316 316 315 315 316 317 321 321 321 321 317 310 318 320 326 325 324 325 327 329 327 323 320 316 320 320 318 322 331 333 329
317 317 317 317 316 316 316 315 315 315 315 316 316 316 316 316 315 315 314 314 318 320 320 321 323 326 310 316 320 316 321 326 329 331 331 328 327 321 320 319 314 314 317 316 326 330 331
317 317 316 316 316 316 316 316 316 316 316 316 316 316 316 316 315 314 313 313 321 322 322 324 325 322 308 316 312 316 318 322 326 328 327 327 323 317 318 311 309 309 307 311 316 329 328
317 316 316 316 316 316 316 316 315 315 315 315 315 315 315 315 313 312 312 312 323 322 324 324 321 312 309 307 312 315 319 323 321 323 319 319 316 312 313 310 302 304 306 311 312 323 326
316 316 316 316 315 315 316 315 315 315 315 315 315 314 314 314 312 311 312 317 316 314 313 307 308 306 307 312 314 315 322 321 322 318 309 313 309 305 310 312 311 310 308 309 314 321 322
316 316 315 315 315 315 315 314 314 314 315 315 314 314 313 313 311 311 314 311 309 310 304 307 307 308 309 311 306 311 320 315 313 310 313 308 304 310 312 311 309 308 307 309 314 320 324
316 316 315 315 315 315 315 314 315 314 314 314 314 314 313 311 310 310 312 309 315 314 304 305 307 306 307 310 305 305 312 314 311 309 311 307 308 311 309 309 307 307 306 308 311 316 320
316 317 316 315 315 315 315 314 314 314 314 314 314 313 312 309 308 314 311 315 316 314 300 301 302 305 307 308 303 308 310 310 310 308 307 308 311 308 307 306 308 305 309 308 309 312 308
316 316 316 316 315 315 314 314 314 314 314 314 313 312 310 308 315 312 313 316 315 312 289 301 302 309 306 304 304 305 309 308 305 306 310 306 307 306 305 306 309 306 311 308 307 306 308
316 315 315 315 314 314 314 314 314 314 313 313 312 310 309 314 317 314 316 316 311 297 289 297 301 300 301 302 303 304 304 307 309 305 307 308 313 310 309 310 310 311 308 308 307 305 298
316 315 314 314 314 314 314 314 314 313 312 311 309 307 309 316 312 317 316 311 297 291 301 297 298 300 299 299 300 300 301 301 299 295 297 302 305 310 311 307 311 309 306 299 297 297 296
315 314 315 315 314 314 314 314 313 312 311 309 307 306 310 314 316 316 313 303 292 296 297 300 298 298 296 299 300 299 299 298 302 301 299 297 295 303 309 307 307 307 306 300 295 297 299
314 314 314 314 314 314 313 313 312 311 310 309 306 315 316 315 315 315 307 296 296 298 299 296 298 295 297 298 297 297 299 298 301 301 297 296 297 305 306 308 309 307 304 309 303 306 302
314 313 313 314 314 313 313 313 312 311 310 308 313 312 310 315 316 311 302 295 298 301 300 299 294 298 295 297 295 297 298 300 299 300 302 300 295 303 303 306 307 306 311 303 303 296 296
313 313 312 313 314 313 313 313 312 311 309 308 312 307 312 317 315 306 299 301 301 303 301 299 297 297 297 296 297 297 297 299 300 299 300 300 298 298 300 298 299 300 300 304 306 303 297
312 312 313 313 313 313 314 313 312 310 308 310 312 304 315 317 305 308 302 301 296 301 302 300 300 298 297 298 296 296 296 299 302 300 296 299 297 293 296 302 303 302 301 302 298 300 304
312 311 313 313 313 314 314 313 311 309 309 311 309 309 315 315 300 303 302 300 300 300 300 300 298 300 300 295 293 296 297 301 300 299 297 299 295 290 293 298 300 297 300 303 304 304 302
312 312 313 313 313 314 314 313 311 310 310 311 309 304 308 308 305 301 299 298 297 301 300 300 299 300 298 295 298 295 295 298 299 300 300 298 296 294 290 294 296 296 296 299 301 298 300
312 312 312 312 313 313 314 313 312 310 310 311 309 302 304 300 300 301 300 298 295 294 300 300 297 296 296 293 294 293 297 297 299 300 299 298 291 294 295 295 295 294 295 297 297 299 297
312 312 312 313 313 313 313 313 313 311 309 312 305 304 306 301 300 299 298 294 293 293 294 294 294 296 296 293 294 293 293 296 296 298 297 298 291 293 292 295 295 292 295 295 295 296 299
312 312 312 313 313 313 313 314 313 311 310 308 309 309 305 295 298 296 294 295 294 297 298 298 296 295 294 296 299 301 302 300 299 298 297 296 293 291 288 294 293 289 293 294 296 297 296
312 312 313 313 313 313 313 314 313 312 310 312 310 309 302 298 299 296 296 296 296 296 295 297 299 295 299 304 303 302 301 300 300 298 299 295 295 294 289 291 282 294 299 298 296 297 299
311 312 312 312 313 313 313 314 314 312 312 314 313 308 302 298 299 297 296 297 297 298 297 297 298 301 304 301 295 292 294 293 296 298 298 299 296 290 286 287 290 293 295 295 294 293 301
311 311 312 312 313 313 313 314 313 312 312 314 314 312 308 301 300 301 299 299 295 297 298 298 303 306 304 298 292 286 287 289 290 292 298 297 298 290 290 284 281 293 297 301 299 291 302
311 311 312 312 313 313 313 313 314 313 312 312 312 316 311 305 306 304 300 299 300 299 294 300 300 299 302 292 288 288 288 290 286 286 289 291 293 286 289 285 290 297 298 299 286 292 304
311 311 312 312 312 313 313 313 314 314 313 313 315 319 310 308 308 307 306 301 302 301 295 301 299 299 294 290 289 289 288 290 286 288 289 289 288 287 288 285 282 299 298 290 298 298 296
310 311 311 312 312 313 313 314 313 314 314 312 310 318 317 306 309 313 312 311 308 307 305 303 299 297 296 291 291 290 288 290 288 285 291 287 292 289 291 291 299 299 297 299 297 297 298

GFSGBSN_sfc_thetae_054.txt.gz
Theta_e
318 318 318 318 318 318 317 317 317 318 318 318 318 318 318 317 317 317 318 318 317 317 318 319 322 321 317 314 315 323 343 339 333 323 323 330 326 325 319 322 323 322 325 327 333 333 336
318 318 318 318 317 317 317 316 316 317 317 317 317 317 317 318 317 317 317 317 316 318 318 321 323 320 316 313 318 320 323 332 325 319 322 332 327 327 322 320 318 323 325 326 331 333 334
318 318 318 318 317 317 316 316 316 316 316 316 317 317 317 317 317 316 316 316 316 320 321 322 323 320 320 316 318 319 323 327 326 320 320 331 330 324 323 317 321 319 317 320 323 332 331
318 317 317 317 317 316 316 316 315 315 316 316 316 317 317 317 316 316 315 315 315 322 322 322 323 323 319 317 319 317 321 325 327 324 322 331 330 323 321 322 316 312 314 311 320 330 332
317 317 317 317 317 317 317 316 316 316 315 316 316 316 316 316 316 315 313 313 316 324 324 323 323 321 315 318 313 316 318 321 323 323 328 331 326 320 317 313 309 310 304 309 314 327 329
318 317 317 316 316 316 316 316 316 315 315 315 315 315 315 315 314 313 312 313 320 322 325 324 321 313 314 308 312 315 318 324 321 322 322 322 318 312 312 309 301 304 304 308 310 318 325
318 317 316 316 315 316 316 316 315 315 316 315 315 315 314 314 313 312 312 316 314 315 315 311 311 310 309 313 315 315 320 317 320 320 311 316 310 306 309 310 311 309 307 306 311 317 323
318 317 316 315 316 316 316 315 315 315 315 315 315 314 314 313 312 311 311 311 310 311 304 312 309 308 310 312 307 313 321 314 314 311 312 309 305 312 311 313 311 310 307 306 311 315 320
317 316 316 316 316 316 316 315 314 315 315 314 314 314 313 312 311 310 313 311 316 315 304 306 309 307 308 310 307 308 312 314 311 308 310 305 308 311 310 309 308 308 306 306 307 313 318
317 316 316 316 316 315 315 314 314 314 314 314 314 313 312 310 309 315 311 315 317 315 299 302 303 306 307 308 304 311 311 310 309 307 308 309 312 310 307 307 308 304 310 309 307 307 306
317 316 316 316 316 315 314 314 314 314 314 313 313 312 310 309 309 312 314 316 316 312 289 302 303 310 308 304 306 306 310 308 303 306 308 305 308 308 307 307 309 306 311 309 308 305 307
317 316 315 315 314 314 314 314 314 313 313 312 312 310 309 313 312 315 316 316 312 296 289 298 303 301 301 303 304 306 305 308 309 304 306 306 313 310 308 310 310 311 308 308 308 304 297
316 315 314 314 314 314 314 313 313 312 312 311 310 308 308 313 313 317 315 311 296 291 303 298 299 301 301 301 301 302 302 301 298 295 296 303 305 310 312 306 309 308 304 297 296 296 295
315 314 314 314 314 314 313 313 313 312 312 310 308 306 314 314 316 315 312 303 292 298 299 302 300 299 297 301 300 300 298 298 303 301 298 296 294 303 310 308 305 305 304 298 292 294 297
315 314 314 314 314 312 313 313 312 312 311 309 307 316 315 316 315 313 306 296 296 299 301 299 299 295 296 299 298 299 299 298 302 303 296 295 297 306 306 309 308 305 303 307 301 303 299
314 313 313 314 313 313 313 313 313 312 311 309 310 314 311 316 315 310 302 296 300 303 302 301 294 298 295 299 297 298 298 302 300 303 304 299 294 303 305 308 308 305 308 301 302 294 294
313 313 313 314 313 313 314 314 313 312 310 308 311 309 314 319 316 307 299 301 303 305 303 299 298 298 298 298 299 298 298 301 302 301 302 299 297 297 303 301 300 301 300 303 304 302 297
313 313 313 314 314 314 314 314 312 310 308 311 314 304 316 318 305 307 302 303 296 303 305 302 301 300 298 299 297 297 297 300 303 302 297 301 297 293 296 303 305 302 300 300 295 298 302
313 313 314 314 314 314 314 314 312 310 310 309 310 310 317 316 300 301 304 302 302 301 302 301 299 301 302 298 294 297 298 303 303 300 298 301 295 290 292 298 301 298 299 300 300 300 298
313 313 314 314 314 315 314 313 311 310 310 310 311 305 309 309 308 303 301 299 299 302 301 302 300 301 299 297 299 296 297 301 302 300 303 300 295 293 290 294 297 296 298 299 297 296 297
313 313 313 314 314 315 315 314 312 311 310 311 310 303 305 299 301 302 302 300 297 296 300 301 298 298 296 293 295 295 297 299 301 303 299 298 291 294 295 296 296 296 296 297 296 297 296
313 313 313 314 314 314 315 314 313 312 309 312 305 304 306 302 302 301 299 297 295 297 297 296 296 297 297 294 295 293 296 296 296 301 298 299 291 294 292 295 296 294 296 296 297 298 298
313 313 313 313 314 314 315 315 314 312 310 311 312 312 307 298 301 299 297 297 296 299 299 300 298 296 295 297 299 300 300 300 300 297 298 297 294 291 287 293 293 290 295 296 296 299 298
312 312 313 313 314 314 314 315 315 313 311 314 312 311 306 298 299 298 299 298 298 298 296 299 300 296 300 305 303 302 301 300 299 299 300 295 296 294 288 291 282 294 301 300 297 298 300
312 312 313 313 314 314 314 315 314 314 312 316 315 309 305 301 301 300 299 299 301 301 299 299 300 303 305 301 296 293 294 295 296 298 297 299 295 290 286 286 290 293 297 297 296 295 300
312 312 312 313 313 314 314 314 315 314 313 316 314 315 310 305 301 302 301 300 298 298 299 299 304 307 304 297 293 287 286 290 289 292 299 298 298 293 290 284 281 292 298 300 300 290 301
311 311 312 313 313 314 314 314 315 315 313 313 315 318 312 307 307 306 301 300 303 300 298 300 301 301 303 293 290 288 287 290 286 286 289 291 293 289 288 287 289 297 299 301 287 290 302
311 311 312 312 313 313 314 314 314 315 314 314 316 319 313 309 308 309 308 305 305 303 297 301 301 300 297 291 289 288 287 289 287 289 289 287 288 288 289 286 283 301 300 293 299 302 302
311 310 311 312 312 313 314 314 314 314 314 313 314 319 318 310 310 315 313 312 310 308 305 304 301 301 300 295 294 291 288 291 289 285 293 287 289 286 288 290 298 300 299 302 302 300 301

GFSGBSN_sfc_thetae_057.txt.gz
Theta_e
319 319 318 318 318 318 317 316 316 317 317 316 316 317 317 317 318 318 318 318 317 317 319 319 321 322 313 308 310 326 346 344 333 323 313 316 322 320 316 319 321 319 321 325 330 332 336
318 318 318 318 318 317 317 316 316 316 316 316 316 317 318 317 318 318 318 317 316 316 321 321 323 321 309 307 316 324 332 331 323 318 313 318 325 326 320 319 316 320 320 320 324 333 335
318 318 318 317 317 317 316 316 315 316 315 316 316 317 317 317 317 317 317 316 315 316 322 323 324 319 315 314 316 315 315 328 323 318 311 320 328 325 320 315 320 316 310 314 317 326 330
319 318 317 317 317 317 317 316 316 316 316 316 316 317 317 316 316 316 316 314 314 316 322 322 323 317 312 322 312 314 314 318 326 320 315 320 327 324 317 318 316 309 306 301 313 321 329
319 318 317 317 316 317 317 316 316 316 316 316 316 316 316 316 316 315 313 313 315 318 323 323 317 313 310 318 310 311 311 314 320 320 317 319 319 317 315 307 303 305 296 301 306 315 327
320 319 318 317 316 317 317 316 316 315 316 316 316 315 315 315 314 313 312 313 318 315 321 322 319 308 314 309 309 312 313 314 316 314 313 312 315 308 306 300 295 299 298 300 302 311 324
320 318 317 316 316 317 316 316 315 315 315 316 315 315 314 314 313 311 309 307 308 305 307 307 307 310 310 309 311 310 315 313 316 314 307 313 305 302 303 305 306 305 304 302 304 310 318
320 318 316 316 317 317 316 315 315 315 315 315 315 314 313 313 312 311 308 303 304 304 298 309 311 310 308 307 305 311 316 306 310 305 310 305 302 309 311 309 307 305 302 302 307 309 308
319 318 317 316 317 316 315 315 314 315 315 315 314 313 312 311 310 310 306 307 311 309 297 303 306 305 303 304 303 306 310 311 308 305 307 301 305 312 310 307 304 303 300 302 302 306 311
318 317 317 316 316 315 315 314 315 314 314 314 313 313 312 310 306 307 307 311 310 309 291 299 300 303 305 303 299 309 308 305 305 304 305 304 309 307 306 304 304 296 305 306 304 300 294
318 317 316 316 315 315 314 314 314 314 313 313 313 312 310 308 304 304 311 310 308 305 284 301 300 307 303 299 301 302 308 303 298 300 301 300 304 305 304 304 305 301 307 304 304 298 296
317 316 315 315 315 315 314 313 313 313 313 313 312 311 309 310 306 307 311 311 306 290 286 297 301 299 297 299 301 304 304 304 303 299 300 300 306 306 306 309 308 308 303 301 300 296 290
316 315 315 315 314 314 313 313 313 313 312 312 310 308 307 310 306 313 310 304 290 286 300 295 295 298 297 297 299 298 298 295 291 286 289 298 300 304 307 302 304 302 295 287 287 289 289
316 315 315 314 314 313 313 313 313 313 312 310 308 306 311 313 312 311 306 296 287 296 295 299 298 297 294 298 297 299 295 292 298 295 290 288 288 297 305 302 298 298 295 289 284 286 290
315 315 314 314 314 313 313 313 313 313 311 310 307 313 311 314 315 308 299 290 292 295 298 297 296 292 292 295 294 296 293 293 297 297 288 289 291 301 303 306 305 298 294 298 291 295 289
315 314 314 314 314 314 314 313 313 312 311 309 306 309 311 313 311 305 297 293 297 300 300 299 293 295 292 295 293 293 293 298 298 300 298 293 286 296 301 303 305 300 301 292 292 285 285
314 314 314 314 314 314 314 314 313 312 310 309 309 307 312 316 312 303 294 298 301 304 303 298 295 294 295 294 295 295 295 298 300 299 298 292 288 290 296 294 294 295 293 294 293 292 287
314 314 314 313 314 314 315 314 313 310 309 309 310 303 313 314 302 304 299 300 301 301 304 301 300 298 296 296 294 294 294 297 302 300 294 295 289 285 289 297 299 297 292 291 287 288 292
314 314 314 314 314 315 315 314 312 310 310 306 305 307 313 312 297 298 302 300 300 299 299 298 298 298 298 294 291 296 297 302 302 299 294 294 288 283 285 289 294 293 294 290 290 288 287
314 314 314 314 315 315 315 314 312 311 311 307 307 302 306 307 304 299 298 297 296 301 299 299 298 299 295 292 295 293 295 300 302 300 305 299 288 285 282 286 292 290 293 295 289 283 285
313 313 314 315 315 315 315 314 313 311 310 308 309 300 304 296 298 299 298 296 294 293 298 299 297 295 293 288 291 291 295 297 300 303 299 293 285 288 290 292 293 292 292 293 291 290 285
313 313 314 314 315 315 315 315 314 312 310 310 302 301 304 299 301 298 297 295 294 295 296 294 294 295 295 290 291 289 292 292 291 296 294 294 287 288 288 292 292 290 293 294 294 294 293
313 313 313 314 315 315 315 315 314 312 311 309 311 311 305 299 298 296 295 296 296 298 298 298 298 295 293 295 298 297 297 295 294 292 291 291 289 287 283 290 290 286 291 293 294 296 293
313 313 313 314 314 315 315 316 315 313 311 311 311 309 304 295 297 296 298 298 297 298 296 298 300 296 299 303 302 299 298 297 296 294 294 290 289 290 283 286 277 290 297 297 295 296 297
313 312 312 313 314 314 316 316 316 315 312 313 313 309 305 297 300 299 299 298 300 300 298 299 300 302 303 300 292 289 291 292 294 296 295 296 290 285 279 281 286 290 293 293 291 291 298
312 312 312 313 313 314 315 316 316 316 313 314 314 316 309 303 298 303 301 300 296 295 298 300 304 305 301 295 291 286 283 287 286 290 295 294 294 290 286 279 277 287 295 298 296 285 297
312 311 312 312 313 314 315 316 316 316 315 312 315 319 312 306 305 306 299 299 302 299 296 299 300 299 300 291 288 284 284 289 282 283 285 286 287 284 286 285 288 293 296 301 287 286 298
311 311 311 312 313 313 315 315 316 316 316 312 316 319 312 307 307 309 307 304 303 301 296 300 299 298 295 289 287 286 285 287 286 287 286 285 284 285 286 284 280 295 295 289 293 295 296
311 311 310 312 312 313 314 315 316 315 315 313 313 320 318 309 308 313 314 313 311 308 303 302 299 298 296 293 292 291 287 289 287 282 291 283 289 285 285 286 294 296 294 296 296 294 294

GFSGBSN_sfc_thetae_060.txt.gz
Theta_e
319 319 319 318 318 318 317 316 316 316 316 316 317 317 317 318 318 318 318 318 317 317 317 321 320 322 312 306 304 325 345 342 335 320 310 310 314 316 310 317 321 317 320 325 328 335 331
319 319 318 318 318 317 317 316 316 316 316 316 316 317 317 317 317 317 317 317 316 316 317 322 323 322 306 304 321 329 331 332 324 317 312 310 316 323 318 316 316 319 318 318 334 332 331
319 319 318 318 318 317 316 316 316 316 315 316 316 317 317 317 317 317 316 315 315 316 317 323 323 318 310 308 319 329 329 324 321 318 309 312 316 316 321 314 320 318 311 310 322 333 331
320 319 318 318 317 317 317 316 315 315 315 315 316 316 316 316 316 316 315 314 314 316 317 323 323 315 306 325 322 315 325 323 322 318 313 313 316 316 318 320 314 307 303 298 311 331 332
321 320 318 317 317 317 317 316 315 316 316 316 316 316 315 316 315 315 313 313 315 318 320 324 312 309 307 324 308 309 309 309 321 315 314 316 311 310 313 306 300 302 297 299 303 316 328
322 320 318 317 316 317 317 316 316 315 316 316 315 315 315 315 314 313 312 312 314 317 320 322 319 305 309 309 307 309 309 315 316 315 312 309 304 301 303 299 292 296 297 296 298 305 323
321 320 318 317 316 316 316 315 315 315 315 315 315 315 314 314 313 311 308 303 300 301 306 302 305 306 308 309 308 306 311 309 313 308 301 306 301 299 303 303 303 302 300 299 304 308 307
321 319 318 317 316 316 315 314 314 315 315 315 315 314 313 313 312 310 306 298 302 301 295 305 308 309 312 308 302 305 310 304 308 302 305 303 299 306 309 307 305 303 300 299 303 307 305
319 318 318 316 316 316 315 315 315 315 314 314 314 314 313 312 310 307 302 303 308 302 293 300 303 303 305 302 300 301 309 306 305 302 303 300 304 310 309 306 304 301 298 300 300 304 319
318 316 316 316 316 315 315 315 314 314 314 314 314 314 312 310 304 302 302 307 305 303 287 294 297 301 301 302 296 307 306 303 302 302 303 303 309 306 305 304 303 294 302 303 303 297 294
317 316 316 315 315 315 314 314 314 314 314 314 314 313 310 308 298 299 305 305 306 300 282 299 296 304 300 297 298 301 305 301 296 297 297 297 301 303 302 303 305 301 305 302 301 295 292
316 315 315 314 314 315 314 313 314 314 313 313 313 311 309 305 301 303 306 306 300 287 283 294 298 297 295 295 298 301 302 301 301 296 296 296 302 301 301 306 307 307 301 297 295 292 287
315 315 314 314 314 314 314 314 314 313 313 312 310 308 307 308 299 304 304 298 287 282 296 293 292 294 293 293 295 297 296 292 290 285 285 294 296 299 303 298 301 300 292 286 286 285 286
316 315 315 314 314 314 314 314 314 313 312 310 308 306 307 309 304 305 298 292 284 293 292 296 294 293 291 293 293 296 293 290 293 290 286 285 286 294 300 298 297 294 292 287 282 283 287
315 315 315 314 314 314 314 314 313 312 311 310 307 304 305 307 309 302 294 286 286 292 297 295 294 290 291 294 292 292 292 291 294 293 286 285 288 298 300 298 300 296 292 294 288 287 287
315 315 315 314 313 314 314 314 313 312 311 309 300 302 303 311 307 298 291 291 292 298 299 296 289 292 288 291 291 291 290 296 295 297 292 289 285 291 298 298 300 298 299 291 288 283 282
314 315 314 314 313 314 315 314 313 312 310 309 304 301 306 307 305 296 290 292 297 300 301 295 292 291 291 290 291 290 291 296 298 297 295 289 286 288 292 289 288 290 289 291 290 289 284
314 315 314 313 314 315 315 314 313 311 309 305 301 296 308 307 297 294 289 293 299 297 299 296 296 294 292 292 290 291 291 294 300 297 291 290 285 283 287 293 295 292 289 287 285 284 287
315 315 314 315 315 315 315 314 312 310 308 299 298 300 307 305 289 289 293 296 297 295 295 295 294 294 293 290 287 292 294 300 300 297 292 291 284 281 284 287 292 290 291 288 286 283 282
314 314 315 315 315 315 315 314 312 311 310 301 299 293 298 298 295 292 290 292 292 299 297 297 294 293 290 288 289 289 291 297 299 300 307 296 284 283 279 283 288 287 291 292 285 280 282
313 313 314 315 315 315 315 314 313 311 310 303 298 293 296 291 293 293 294 293 293 291 296 296 293 293 289 284 286 287 290 291 296 301 295 290 282 284 285 289 290 290 290 291 287 286 283
313 313 314 315 315 315 315 315 314 312 309 302 296 295 297 292 294 294 292 290 292 293 293 291 291 294 292 286 287 286 288 286 286 291 291 290 285 286 285 291 291 289 291 292 291 292 291
313 313 313 314 315 315 316 315 314 312 308 302 304 302 297 293 292 290 289 291 294 294 295 297 296 292 291 293 295 293 291 290 290 287 286 287 286 283 279 288 288 283 288 290 291 292 291
313 313 312 314 314 315 316 316 315 313 309 304 303 301 294 290 292 292 296 297 296 295 292 297 297 292 296 299 297 293 290 291 292 291 288 286 285 284 280 284 275 286 293 294 292 294 294
312 312 312 313 314 315 316 316 316 314 312 305 305 303 297 290 295 296 297 296 295 294 294 298 298 297 297 294 287 285 286 287 290 291 289 289 285 280 281 277 284 289 291 291 290 289 297
312 312 312 313 313 314 316 317 317 315 313 306 307 307 302 294 292 301 296 295 290 289 293 297 299 298 296 289 285 279 280 283 283 287 290 290 289 284 284 278 276 286 292 296 296 283 294
312 311 311 312 313 314 315 316 317 316 314 306 305 308 304 297 297 298 294 293 296 292 290 292 294 294 294 284 286 283 283 289 276 281 282 283 283 281 284 282 286 290 294 297 282 284 293
312 311 311 312 312 313 314 316 317 316 315 307 306 310 304 298 301 304 303 298 297 294 290 293 291 292 288 282 285 285 284 286 284 286 286 284 281 282 282 282 279 294 293 287 290 293 294
311 311 311 311 312 313 313 315 316 315 315 312 303 310 310 301 301 307 309 309 304 302 296 295 292 292 291 287 287 283 285 287 285 280 291 282 284 281 285 282 291 292 291 294 295 293 293

GFSGBSN_sfc_thetae_063.txt.gz
Theta_e
320 320 319 318 318 318 317 316 316 315 315 316 317 317 317 318 318 318 318 318 317 317 317 318 321 321 310 303 302 324 337 345 334 314 308 307 311 312 309 314 318 317 320 322 324 327 330
321 320 319 319 318 317 316 316 316 315 315 316 316 316 317 317 317 317 317 316 316 316 316 318 323 321 304 297 317 334 328 332 324 313 308 311 312 317 314 313 313 319 320 318 324 328 329
322 321 319 319 318 317 316 316 315 315 315 315 316 316 316 316 316 316 316 315 315 315 317 318 323 317 308 302 320 331 326 323 319 313 308 308 314 316 318 315 319 317 313 313 327 327 328
322 322 320 319 317 317 316 316 315 315 315 315 315 316 316 315 315 315 314 314 314 316 317 319 325 312 305 319 321 325 325 320 319 314 309 311 314 312 314 319 313 305 302 297 322 327 331
323 321 320 318 317 316 316 315 314 314 315 315 315 315 315 314 315 314 313 313 315 318 319 323 310 307 306 323 315 314 325 315 316 314 313 315 312 307 309 305 299 300 296 298 306 329 328
323 321 319 318 316 316 316 315 314 315 316 315 315 315 315 314 314 313 312 312 314 318 320 320 318 304 307 307 305 307 313 317 317 312 310 307 302 299 300 298 293 295 296 296 298 320 324
321 319 318 317 316 315 314 314 315 314 315 315 315 314 314 314 313 311 307 301 298 297 307 300 299 303 307 310 307 305 307 313 311 308 300 302 297 295 299 303 304 301 298 297 301 306 302
319 317 317 316 315 315 314 314 314 314 314 315 314 314 314 313 312 310 305 296 298 299 294 304 307 308 310 308 302 303 308 303 305 300 302 301 296 304 308 306 303 301 298 297 302 305 302
316 316 315 315 315 315 315 315 314 314 314 314 314 314 313 312 310 305 300 300 304 301 292 298 302 302 302 306 300 299 304 304 304 301 301 298 303 309 308 305 302 298 296 297 299 302 318
316 316 315 315 314 315 315 315 314 314 314 314 314 314 312 309 301 299 300 302 304 300 287 292 295 301 301 301 295 304 308 303 300 301 302 301 307 306 303 303 302 294 302 303 301 296 291
316 316 315 315 315 315 315 314 314 314 314 314 314 313 310 308 298 299 302 303 302 298 280 297 294 302 297 296 297 299 303 300 297 297 299 298 299 302 301 301 303 300 304 301 299 294 290
316 315 314 314 314 314 314 314 314 314 314 313 313 311 309 303 299 302 305 300 299 287 283 292 296 294 294 294 296 299 300 301 299 295 294 295 299 299 301 304 305 306 300 295 292 290 285
315 315 314 314 313 314 314 314 314 314 313 312 310 308 307 307 298 301 301 297 286 282 294 292 290 292 291 291 293 294 294 291 289 285 284 292 294 297 300 295 298 297 291 285 284 284 285
315 315 315 315 313 313 314 314 314 313 312 311 308 306 306 308 301 304 297 292 283 291 290 294 292 292 290 291 291 294 291 288 293 289 284 284 284 293 298 294 293 293 292 286 281 282 286
315 315 314 313 312 312 314 314 313 313 312 310 307 303 303 305 308 299 295 285 285 290 295 293 292 289 290 293 292 291 290 290 293 291 284 284 286 296 298 296 295 293 290 292 286 284 286
315 315 314 313 313 314 314 314 313 313 311 309 302 302 302 308 304 298 294 290 290 296 296 295 288 290 287 290 290 289 289 294 293 295 290 287 284 289 295 296 295 292 296 289 286 282 281
314 314 314 314 315 315 315 315 313 312 310 308 303 299 304 304 302 296 288 289 294 298 299 293 290 289 288 288 289 288 290 294 297 295 293 288 285 288 290 288 287 288 286 285 287 286 283
314 315 314 314 314 315 315 314 313 311 308 303 300 293 308 304 293 289 287 291 297 295 297 295 294 292 290 289 288 289 290 293 299 295 290 289 283 283 285 291 295 292 286 283 282 283 284
315 314 313 314 315 315 315 314 312 310 309 299 298 298 305 303 289 287 291 294 296 294 293 293 291 292 291 288 286 290 293 297 300 297 293 291 283 279 280 285 290 288 289 286 283 280 280
314 314 313 314 315 316 315 314 312 311 309 302 296 291 296 296 292 290 288 290 290 298 295 295 292 291 289 287 288 287 289 294 297 298 306 294 282 281 278 281 286 285 289 289 284 281 281
313 313 313 314 315 316 316 314 313 311 309 301 294 291 293 288 290 291 292 292 291 290 294 294 292 291 286 284 285 285 289 290 294 297 294 288 282 283 284 287 289 288 289 290 285 285 282
313 313 313 314 315 316 316 315 314 311 308 301 295 293 294 290 291 291 290 288 291 291 291 291 290 292 290 285 285 283 287 286 285 290 287 288 283 284 284 289 289 287 290 290 290 290 289
313 313 313 313 314 315 316 316 314 311 307 300 299 299 294 292 290 288 288 290 292 292 295 296 295 290 289 291 294 293 292 290 287 285 285 285 283 281 278 286 286 282 287 289 289 291 289
312 313 312 313 314 315 316 316 315 313 308 302 300 298 293 289 291 291 295 296 295 293 291 294 295 291 295 297 294 292 290 288 291 288 286 285 283 281 278 281 273 284 292 293 291 294 294
312 312 312 313 314 314 316 317 316 314 312 305 303 300 294 288 293 294 295 293 293 293 293 296 297 296 295 292 286 284 284 285 287 289 287 286 283 279 277 274 282 287 289 288 287 288 293
312 312 311 312 313 314 315 317 317 314 312 305 304 303 299 292 291 299 294 293 289 288 291 294 297 296 294 288 283 278 276 281 282 285 286 287 286 282 281 276 275 285 291 294 293 284 292
311 311 311 312 313 314 314 316 316 316 313 305 305 305 302 296 297 295 292 292 294 290 288 290 294 293 291 282 277 275 280 288 274 278 279 279 279 277 283 283 284 290 292 295 282 283 291
311 311 311 311 312 313 314 314 316 316 315 306 305 306 302 296 298 301 302 297 296 292 288 292 290 289 286 281 277 284 283 285 281 286 280 281 278 272 281 279 274 292 291 284 287 291 293
311 311 311 310 310 312 313 314 315 315 315 308 303 306 306 300 299 304 307 308 304 301 295 292 289 289 289 284 283 286 285 287 283 272 291 282 281 277 281 280 288 291 290 295 296 293 293

GFSGBSN_sfc_thetae_066.txt.gz
Theta_e
323 322 321 319 318 318 317 316 316 316 315 316 317 317 317 317 317 317 318 317 317 317 317 317 319 321 309 301 300 326 334 335 331 311 307 308 313 311 310 313 316 315 320 322 324 323 327
324 322 321 319 318 317 317 316 316 315 315 316 316 316 316 316 316 317 316 316 315 315 316 317 319 320 302 292 311 329 332 330 318 309 306 310 312 315 312 312 314 319 319 318 318 318 326
325 323 321 320 318 317 316 316 315 315 315 315 315 315 316 316 316 316 315 315 314 315 316 317 322 317 305 297 320 328 328 319 315 310 305 307 315 313 315 313 318 316 311 312 313 325 325
325 322 321 319 317 317 316 315 315 315 315 315 315 315 315 315 315 315 314 314 313 316 316 318 324 311 304 315 323 323 320 317 318 310 308 308 313 311 311 316 310 303 301 298 316 325 329
322 321 319 317 317 316 315 315 315 315 315 315 314 314 315 314 314 314 313 312 316 319 318 323 309 306 303 323 315 320 320 315 314 312 310 314 308 305 306 303 300 299 295 297 302 326 327
320 319 317 317 316 315 314 314 314 314 315 315 315 315 315 315 314 312 311 311 316 320 320 320 317 302 305 307 306 315 320 317 313 311 308 304 300 298 298 298 294 295 295 295 297 321 323
317 315 316 316 315 315 314 314 315 314 315 315 315 315 314 314 313 311 307 300 295 295 306 298 297 304 303 309 308 303 314 313 311 306 298 300 295 293 297 302 303 300 298 297 300 307 304
316 316 316 315 314 314 314 315 315 315 315 315 315 314 314 313 312 310 304 296 297 298 293 303 306 306 308 307 302 302 313 305 305 299 301 297 292 300 304 305 303 300 297 296 301 304 300
315 315 315 315 314 314 315 315 315 315 315 315 314 314 313 312 311 304 297 298 302 300 292 296 300 301 301 304 301 298 304 305 303 299 299 295 301 306 306 304 301 297 295 296 297 302 308
316 316 315 313 313 314 314 315 315 315 315 314 314 314 311 310 300 299 298 302 301 299 286 291 294 300 300 300 294 303 306 305 301 299 301 300 305 305 302 302 302 292 302 302 300 295 289
316 316 314 313 314 314 314 314 314 314 314 314 314 312 310 308 298 299 302 301 299 297 279 295 294 301 295 294 297 298 301 300 297 298 300 298 301 302 300 301 303 300 303 301 299 293 289
315 314 314 314 314 313 314 314 314 314 314 314 313 311 309 302 298 301 302 299 297 286 281 291 294 293 293 293 295 298 298 299 297 294 293 297 298 301 303 305 304 304 298 293 290 289 285
315 315 314 314 314 313 313 314 314 314 313 312 310 308 307 306 297 300 300 296 286 282 293 291 289 290 290 290 293 294 293 289 287 284 284 290 293 296 299 294 297 296 291 284 283 283 284
316 315 314 314 313 314 314 315 314 313 313 311 308 306 306 307 303 303 296 292 282 291 290 293 291 293 290 291 292 293 291 288 293 287 283 284 284 291 296 292 291 292 291 285 281 281 285
316 315 313 313 314 314 315 314 314 313 312 310 307 302 301 304 307 298 294 284 284 291 294 292 291 289 289 291 290 290 288 289 291 290 283 283 285 294 296 295 294 291 288 291 285 283 284
315 315 313 313 314 315 315 314 314 313 312 309 301 300 300 304 303 299 292 288 290 296 296 294 287 289 286 288 288 287 287 292 292 294 289 286 284 289 294 295 293 291 292 287 285 282 281
314 314 314 314 315 315 315 315 314 313 311 308 302 296 303 302 300 295 286 287 293 297 298 293 291 289 288 287 288 287 288 293 296 294 292 286 285 286 289 287 285 288 286 284 286 284 283
314 314 314 314 315 315 315 315 313 311 309 304 299 293 305 302 292 286 285 289 295 293 295 293 293 291 289 288 286 288 288 290 297 294 290 288 285 283 283 290 292 290 286 283 284 283 282
314 314 314 314 315 316 316 315 313 310 309 300 297 295 302 300 288 286 290 292 294 293 292 291 290 290 289 285 285 289 290 295 296 297 291 289 282 278 281 284 288 287 288 283 282 280 280
314 313 313 313 315 316 316 314 312 310 309 302 294 290 295 295 290 289 287 289 289 296 294 294 291 290 288 286 287 286 288 293 295 297 304 293 282 281 279 281 285 285 288 288 283 281 281
313 313 313 313 315 316 316 315 313 311 309 300 293 290 291 287 290 290 290 290 290 289 293 293 291 289 286 283 284 285 288 289 293 296 292 287 282 282 284 288 288 287 288 289 285 285 283
312 313 313 313 315 316 316 315 313 311 308 300 295 292 291 288 289 290 290 288 289 290 291 290 289 291 290 284 284 282 286 284 284 289 286 286 283 284 282 288 288 286 289 290 289 289 288
312 313 312 313 315 316 316 316 313 311 306 299 297 296 293 291 288 287 287 289 291 291 294 295 293 289 289 290 292 290 290 287 285 284 284 284 282 279 276 285 284 281 286 288 289 290 289
312 312 312 313 314 315 316 316 314 312 307 301 298 296 292 288 290 290 293 294 293 292 290 293 294 289 293 294 293 291 289 289 290 287 284 283 281 280 277 278 272 282 291 291 291 292 292
312 312 312 313 314 315 316 317 316 313 311 304 300 299 292 288 291 293 293 292 291 292 292 294 295 294 292 291 285 283 282 283 286 287 286 284 282 278 275 272 281 286 288 287 286 287 291
311 312 312 312 313 314 315 316 316 314 311 304 302 301 296 290 290 297 293 292 288 287 290 293 295 294 292 285 282 277 274 281 281 284 284 286 284 281 276 276 275 284 290 293 292 284 290
311 311 311 311 312 314 314 315 316 316 313 305 303 302 301 294 295 294 291 291 292 288 287 288 290 291 289 280 276 274 273 287 273 276 278 277 278 277 280 279 283 289 291 294 281 282 291
311 311 311 311 311 313 314 314 315 315 315 306 304 304 301 295 296 301 300 295 294 291 288 291 289 288 284 279 277 282 282 285 281 280 279 276 273 272 281 278 273 292 290 284 287 290 292
310 311 311 311 309 312 313 314 314 315 314 307 301 304 304 300 298 302 304 305 303 300 293 290 288 287 287 283 282 283 284 286 281 271 284 279 280 276 278 278 287 291 289 292 293 292 293

GFSGBSN_sfc_thetae_072.txt.gz
Theta_e
326 324 323 321 319 317 317 316 316 316 317 316 316 315 316 316 316 317 317 317 317 317 317 317 318 320 320 310 307 330 334 335 330 330 323 321 320 319 319 323 329 327 329 330 329 327 327
324 323 320 318 317 317 316 316 316 316 315 315 315 315 316 316 316 317 316 316 315 315 316 317 318 319 314 304 324 328 326 329 326 324 320 321 318 321 318 321 323 328 328 327 326 323 325
320 318 317 318 317 316 316 316 315 315 315 315 315 315 315 315 316 316 315 314 313 314 316 317 319 320 311 307 328 326 331 327 324 322 318 322 323 320 321 318 325 325 321 324 325 325 327
317 318 317 317 316 315 315 315 315 315 315 315 315 315 315 315 315 315 314 313 314 318 317 318 321 321 309 320 329 325 328 326 321 322 320 323 326 321 319 324 321 319 320 316 324 326 329
317 317 316 316 316 315 315 315 315 315 315 315 315 315 315 315 314 314 312 312 320 320 319 322 322 318 309 325 323 322 323 320 319 319 320 320 323 318 319 314 312 315 312 315 319 328 329
317 316 316 316 315 315 315 315 315 315 315 315 315 316 316 314 313 313 311 312 318 323 324 323 321 311 314 312 322 322 323 320 315 315 313 313 316 312 314 311 304 308 312 316 314 326 328
316 316 316 315 315 315 315 315 315 316 316 316 316 316 315 314 312 311 312 318 313 314 314 308 308 307 312 317 324 319 322 318 316 313 307 310 307 304 309 313 314 313 314 313 314 324 321
316 315 315 315 315 315 315 315 315 315 315 316 316 315 315 313 312 311 314 310 309 309 305 311 311 310 313 315 310 316 322 315 311 305 308 305 303 310 313 314 314 313 312 312 313 315 316
316 315 315 316 316 316 315 315 315 315 316 316 315 315 313 312 311 311 312 310 313 313 305 305 309 309 310 312 309 313 317 314 310 305 305 304 306 311 312 314 312 312 311 313 311 313 315
316 315 315 316 316 316 315 315 316 315 315 315 315 314 312 310 307 315 311 313 315 313 301 300 304 307 310 312 305 317 318 313 310 307 306 305 309 307 310 311 313 308 314 312 311 309 306
316 315 315 316 315 316 315 315 315 315 315 315 314 312 310 306 315 313 312 316 315 311 290 301 303 312 312 308 307 310 319 313 308 308 309 305 305 306 308 311 315 311 315 313 312 311 309
317 315 315 315 315 316 315 315 315 315 315 314 312 310 309 311 316 313 315 315 310 299 289 298 302 303 304 305 305 309 310 312 312 309 311 309 312 310 312 316 316 316 312 311 311 310 302
316 316 314 315 315 315 315 315 315 314 314 313 310 308 309 314 312 318 319 311 298 294 301 296 298 303 303 301 302 305 304 304 304 301 302 305 308 312 315 312 316 314 309 300 298 299 300
317 316 314 314 315 315 315 315 315 314 313 311 308 307 312 317 318 318 314 305 293 296 297 302 300 301 298 301 301 303 303 301 303 303 304 299 297 307 311 312 310 310 309 302 295 297 300
317 316 314 315 315 315 315 315 315 314 312 310 307 319 318 316 318 317 309 298 296 297 300 299 300 297 298 299 301 301 301 300 301 303 300 301 298 303 304 306 308 309 306 311 303 304 302
316 315 315 314 315 315 316 315 315 314 312 309 322 318 314 317 317 315 307 295 299 301 301 302 296 298 295 297 298 300 299 302 300 302 304 302 297 302 302 305 306 307 311 302 303 297 296
315 315 315 315 315 315 316 316 314 313 310 309 318 312 315 317 316 312 301 299 300 303 302 300 298 297 297 298 298 298 297 300 302 301 303 302 302 299 303 301 302 303 303 305 306 304 299
315 315 315 315 315 316 316 315 314 311 309 309 315 308 316 317 308 307 300 300 298 302 304 300 300 300 298 298 298 297 296 298 303 304 298 301 301 297 299 301 302 303 303 305 300 301 303
315 315 315 315 315 316 316 315 313 311 309 318 312 309 316 315 302 300 301 300 301 301 301 300 299 300 300 298 296 298 298 300 303 304 302 300 298 294 295 299 301 301 302 303 304 305 303
314 314 314 315 315 316 316 315 313 311 309 315 311 304 308 309 308 303 299 298 297 301 300 301 300 302 301 299 301 298 298 300 302 304 303 303 298 295 293 297 301 298 298 301 303 300 302
313 313 314 315 315 316 316 315 313 311 309 315 309 302 304 300 301 301 301 299 296 296 300 301 298 298 298 297 298 297 299 300 302 302 304 304 298 298 297 297 298 298 297 298 300 301 300
313 313 314 314 315 316 316 316 314 312 309 316 308 307 306 303 302 301 298 298 297 298 299 297 297 298 300 298 298 297 299 301 299 303 302 303 298 300 296 297 297 296 297 297 297 298 301
313 313 313 314 314 316 316 316 315 312 312 313 315 311 308 298 301 302 300 298 298 301 301 301 300 300 298 298 302 303 303 302 302 300 298 300 300 297 294 296 295 292 297 297 298 300 301
312 312 313 313 314 315 316 316 316 313 311 319 315 313 310 300 302 300 300 300 300 301 299 301 302 301 301 306 305 304 302 302 301 301 302 298 298 298 297 294 286 296 300 300 299 300 303
312 312 312 313 313 314 316 317 316 314 311 320 320 314 311 302 302 301 301 300 302 303 302 301 303 304 307 304 300 296 296 297 297 299 300 302 299 294 292 291 293 294 297 297 298 297 301
312 311 311 312 313 313 315 316 316 315 312 321 319 320 313 307 303 303 301 302 302 301 301 302 306 307 305 303 301 292 294 294 293 294 301 298 302 297 293 289 287 297 298 301 301 294 301
312 311 311 311 312 312 313 315 316 316 314 318 319 321 316 310 308 307 306 304 305 303 303 303 303 303 304 302 298 296 295 295 292 291 293 296 297 293 293 292 295 299 299 302 291 295 302
313 311 311 311 311 311 312 314 315 315 315 315 318 322 317 311 310 309 309 307 306 307 304 304 302 301 300 296 298 296 296 294 292 293 293 293 293 294 295 291 288 302 299 296 301 302 301
313 311 311 311 311 310 311 312 314 315 315 313 318 321 320 314 312 315 314 314 313 312 309 306 303 301 304 301 301 299 296 297 295 293 297 292 297 298 296 298 301 305 302 304 302 302 301

GFSGBSN_sfc_thetae_075.txt.gz
Theta_e
322 321 319 318 318 317 317 317 317 317 316 316 316 316 316 317 317 318 318 318 317 317 317 318 319 320 321 313 312 335 333 335 327 332 326 322 321 325 323 327 332 330 330 332 331 330 331
318 318 318 318 318 317 316 316 316 316 316 317 316 316 316 316 316 317 317 317 316 316 316 317 319 320 317 307 324 330 325 321 323 329 325 323 322 326 321 323 328 333 332 330 330 328 328
318 318 318 317 317 316 316 316 316 316 316 316 316 316 316 316 316 316 316 315 315 316 317 318 319 321 315 312 326 327 324 320 325 328 322 324 324 320 321 320 328 329 327 328 326 326 326
318 317 317 317 317 317 316 316 317 316 316 316 316 315 315 316 316 316 315 314 315 320 320 319 320 321 314 320 328 326 329 323 326 327 323 324 324 322 320 324 323 323 325 320 325 327 330
317 317 317 317 316 316 316 316 316 316 316 316 316 316 316 316 316 314 313 313 316 320 321 320 321 322 311 327 322 328 328 319 321 323 323 323 323 319 319 315 315 318 315 317 320 326 328
318 316 317 316 316 317 317 316 316 316 316 317 317 316 315 315 315 313 312 312 318 321 323 325 322 313 318 314 320 323 327 323 318 318 317 316 316 315 315 313 306 310 313 316 318 323 327
317 317 316 316 316 317 317 316 316 316 317 316 317 316 316 316 313 312 313 320 318 317 316 313 311 312 313 320 324 320 322 320 317 315 309 312 308 308 311 313 313 314 314 313 319 325 323
317 316 316 316 317 317 316 317 317 317 316 317 317 316 316 314 312 312 316 315 312 313 308 314 312 312 316 321 314 317 323 314 312 307 310 309 305 313 314 313 312 313 312 315 318 323 323
316 316 316 316 316 317 317 317 316 316 316 316 316 315 313 312 312 312 317 313 318 317 308 309 312 311 313 318 312 313 319 316 311 308 308 306 308 313 311 311 311 314 313 315 314 316 321
317 317 316 316 316 316 316 316 316 316 316 316 315 314 312 311 307 318 313 317 319 317 303 303 306 310 314 313 309 318 320 316 312 307 308 308 311 309 310 311 315 310 315 316 314 313 308
318 317 316 316 316 316 316 316 316 316 316 315 314 313 311 307 317 314 315 319 318 315 293 304 306 316 314 310 311 314 319 315 309 309 310 306 307 307 308 312 315 311 315 314 316 312 312
318 317 316 316 316 316 316 316 316 315 315 314 313 311 310 314 318 317 319 319 315 299 292 300 306 305 307 309 308 313 312 317 315 311 312 310 313 311 310 314 317 317 315 314 314 312 304
318 316 316 315 316 315 315 316 315 315 314 313 311 309 311 320 316 321 320 314 300 295 303 299 302 305 306 305 305 308 308 307 305 303 304 308 309 312 313 311 317 316 312 303 301 302 302
317 317 316 316 315 315 315 316 316 315 314 312 309 307 315 321 323 321 317 307 295 299 301 304 303 305 302 304 304 305 305 303 307 308 306 302 300 308 312 313 312 313 311 303 297 298 302
317 316 316 315 315 315 316 316 315 314 313 310 307 321 322 323 322 321 312 299 299 301 302 302 302 301 301 303 303 305 304 303 306 308 302 303 303 312 312 316 316 311 308 313 306 308 304
317 316 316 316 315 315 316 316 315 314 312 310 322 320 317 322 322 318 309 298 302 305 305 305 299 301 297 300 301 302 303 305 304 306 309 306 300 307 308 310 313 310 315 306 307 299 298
316 315 316 316 315 315 316 316 315 313 311 309 319 315 318 322 321 313 301 302 303 306 307 304 300 300 300 300 301 301 301 304 305 306 308 306 306 303 306 305 305 307 307 310 310 306 301
316 316 316 316 316 316 316 316 314 312 309 306 317 309 319 320 309 310 304 304 300 305 307 304 305 302 300 302 301 300 300 303 306 307 302 305 304 301 302 308 308 308 308 309 303 303 306
316 315 316 316 316 316 317 315 313 311 310 321 314 311 319 318 304 303 305 302 305 304 305 303 302 304 305 300 299 301 301 304 306 306 305 306 302 297 299 303 307 304 307 308 309 308 305
316 315 315 316 316 317 316 315 313 311 311 316 312 306 310 314 312 305 302 301 299 304 303 305 304 306 304 300 303 300 299 302 305 307 305 308 303 300 296 300 304 302 304 306 306 303 304
315 314 314 315 316 317 317 315 314 312 311 317 312 305 308 303 304 304 304 302 299 298 303 304 302 303 304 301 301 300 303 302 304 305 307 307 297 301 301 301 303 304 303 303 303 305 303
315 314 314 315 315 316 317 316 314 312 310 317 312 311 309 307 305 304 300 301 300 301 302 300 300 300 303 302 304 301 303 304 303 305 305 307 300 300 297 300 300 299 301 301 303 304 305
315 313 313 314 315 316 317 316 315 312 313 316 319 316 311 302 304 304 301 301 300 303 303 304 303 303 301 302 305 307 308 308 307 306 303 304 302 300 295 299 297 294 299 301 302 304 306
315 313 313 313 314 315 316 317 316 313 312 322 317 316 311 302 304 303 302 302 302 304 302 304 306 304 304 308 307 306 305 305 304 304 306 303 303 302 297 300 289 298 303 303 301 304 308
315 312 312 313 313 314 316 317 317 315 313 322 322 317 312 306 304 303 303 303 305 306 304 304 304 307 310 307 303 299 299 299 300 302 302 304 303 298 295 296 298 299 300 299 300 300 305
315 312 311 312 313 313 315 316 317 316 313 322 322 325 316 311 305 306 304 305 305 303 304 304 308 312 309 305 303 296 296 297 296 297 303 302 304 299 297 292 291 299 303 305 305 297 305
316 312 310 311 312 312 313 315 316 316 314 318 322 327 319 311 310 310 308 308 308 306 305 305 305 305 308 305 301 300 299 299 295 294 296 298 299 296 297 295 299 304 303 305 293 298 306
316 313 310 311 311 311 312 314 315 316 316 316 322 326 320 312 312 311 311 310 309 309 305 307 304 304 303 300 301 301 298 300 297 300 298 298 297 297 298 295 292 306 303 298 306 308 307
316 313 310 311 311 310 311 312 314 315 316 314 321 326 325 317 316 317 315 317 315 315 312 308 307 303 306 304 304 303 300 301 299 296 301 296 301 299 300 300 307 308 306 310 309 308 305

GFSGBSN_sfc_thetae_078.txt.gz
Theta_e
319 319 319 319 318 317 317 317 317 317 317 317 317 317 317 317 317 318 318 318 318 317 317 318 319 320 319 315 311 333 340 337 319 325 331 325 319 324 323 327 333 328 331 333 332 338 336
319 319 318 318 318 317 317 316 316 317 317 316 316 317 316 316 316 317 317 317 316 316 317 318 318 320 314 308 324 332 322 317 318 325 329 325 320 326 325 325 330 333 330 330 330 329 332
319 318 318 318 317 317 316 316 316 317 316 316 316 317 316 316 317 317 316 316 315 316 318 319 319 319 315 313 325 328 322 316 320 324 324 325 324 323 323 319 329 330 328 329 328 327 328
318 318 317 317 317 317 317 317 317 317 317 316 316 317 317 316 316 316 316 315 314 317 322 322 320 318 312 322 325 324 322 318 321 325 328 326 325 320 319 322 322 322 324 319 325 325 329
319 318 317 317 317 317 317 317 317 317 317 317 317 317 316 316 316 316 315 314 315 323 322 322 317 316 312 325 319 324 325 318 320 325 326 323 321 317 318 313 314 317 314 316 318 325 328
319 318 317 317 317 317 317 317 317 317 317 317 317 316 316 315 315 314 314 313 319 320 321 320 322 313 316 314 318 324 327 322 318 320 318 317 315 312 313 311 305 310 312 316 317 322 325
318 317 317 317 317 317 318 318 318 317 317 317 317 317 316 315 314 313 313 319 315 317 318 312 313 314 315 321 322 321 324 318 318 316 309 313 308 305 310 312 313 314 313 312 321 323 322
318 318 317 316 317 317 317 317 317 317 317 317 317 316 315 315 314 313 313 318 313 314 307 315 315 314 317 320 313 316 322 313 312 307 311 309 304 310 314 314 311 311 310 312 318 323 326
318 317 317 317 317 317 317 317 317 316 316 316 316 316 314 313 312 311 316 316 318 317 307 311 313 312 314 319 314 313 317 315 309 307 307 305 307 312 312 311 309 309 309 312 315 317 323
319 318 318 317 317 317 317 317 316 316 316 315 315 314 313 311 306 318 315 317 318 317 302 305 307 311 314 316 312 319 319 314 311 306 308 307 311 309 309 309 310 306 314 315 316 314 308
319 319 317 317 317 317 316 316 316 315 315 315 315 314 312 309 315 315 317 318 319 314 292 305 307 316 313 309 311 313 320 315 310 308 308 305 307 307 306 309 312 311 316 314 315 313 311
319 318 317 317 317 316 316 316 316 315 315 315 315 313 311 313 316 317 318 318 315 299 292 301 307 305 307 309 309 314 313 317 315 310 310 308 312 310 309 312 315 317 314 312 313 312 303
319 318 317 317 316 316 316 316 316 315 315 314 313 311 311 320 315 321 319 314 300 294 306 300 301 305 305 305 306 309 308 306 305 302 303 308 309 310 312 308 314 314 311 302 300 302 301
320 318 317 317 316 316 316 316 316 315 314 312 309 309 313 319 323 321 317 307 294 300 299 306 304 304 302 306 305 306 306 303 308 307 305 302 299 309 312 308 308 311 310 303 296 297 301
320 318 317 316 316 316 316 316 315 315 313 311 308 319 318 324 324 321 312 301 296 298 304 303 302 300 301 304 304 304 305 304 307 308 302 302 303 311 312 312 312 310 307 313 306 307 302
320 317 316 316 316 316 316 316 315 314 313 311 317 319 321 320 323 319 307 299 302 305 305 305 299 302 298 300 301 302 302 307 305 309 310 306 301 309 310 312 314 310 314 305 307 298 297
320 317 316 317 316 316 316 316 315 314 312 310 317 314 320 320 319 312 302 302 304 306 307 304 303 301 300 301 302 301 301 305 307 307 309 307 306 304 309 307 307 309 308 308 308 306 300
319 317 316 316 316 316 317 316 314 312 310 308 318 309 319 318 309 309 303 305 301 306 306 305 305 304 303 303 301 301 300 303 307 307 303 307 304 301 303 309 311 311 309 308 303 303 306
319 316 316 316 316 317 317 315 314 311 311 316 314 311 318 318 302 305 305 303 306 305 305 304 303 303 305 302 300 303 302 305 307 306 305 307 301 298 300 304 307 304 307 308 308 308 306
319 316 315 316 316 317 317 315 313 312 311 315 314 306 310 313 310 306 303 301 300 304 304 307 305 306 302 301 303 302 301 303 306 307 309 309 301 300 294 298 304 302 305 307 306 301 303
318 315 315 316 316 317 317 316 314 312 311 316 313 305 309 303 304 305 305 302 299 300 303 305 304 304 303 300 299 299 303 303 305 304 305 305 298 301 303 303 302 304 303 305 303 305 303
318 315 315 315 316 316 317 316 315 313 310 318 310 309 310 307 306 305 301 301 301 302 304 300 300 301 303 302 302 301 304 303 301 305 304 306 300 303 299 303 301 300 304 303 304 304 305
318 315 314 314 315 316 316 316 315 313 313 316 317 317 312 304 306 304 301 301 301 304 303 305 304 303 301 304 307 308 309 309 306 306 304 303 301 299 296 301 300 295 300 301 302 305 308
318 315 313 313 314 315 316 317 316 314 312 320 318 318 312 304 304 303 302 303 303 305 303 305 307 305 306 308 308 307 306 305 305 306 307 303 304 301 297 298 289 300 306 304 302 305 310
318 316 313 313 313 314 315 317 317 315 313 318 321 318 313 305 305 304 303 303 305 306 305 304 305 308 310 308 303 298 298 299 301 302 303 304 302 298 295 291 297 300 302 302 300 301 310
318 316 313 312 313 313 314 316 317 316 314 317 323 324 319 309 306 307 304 306 305 304 305 304 308 311 310 306 302 296 294 299 296 299 303 303 304 300 298 293 290 299 303 306 305 297 308
318 317 313 312 312 313 313 315 316 317 315 315 321 327 321 312 311 310 308 308 308 306 305 306 306 306 309 304 299 300 298 301 296 296 297 297 298 296 296 295 298 305 304 306 294 297 308
316 317 314 311 312 313 312 314 315 316 316 315 322 326 321 316 313 312 311 309 309 309 305 307 305 305 304 300 301 302 299 302 298 300 300 298 297 297 297 295 293 307 304 298 306 309 307
316 317 314 311 312 313 312 312 314 315 316 315 319 326 325 317 316 318 315 316 315 315 311 309 306 307 307 304 303 304 300 300 299 295 303 297 301 301 300 302 310 309 308 312 311 309 308

GFSGBSN_sfc_thetae_081.txt.gz
Theta_e
320 319 318 318 318 318 317 317 317 317 317 317 317 317 316 316 317 317 317 318 317 317 318 318 319 319 316 309 308 327 344 342 325 317 318 326 323 315 314 323 331 326 327 333 335 334 335
319 318 318 318 317 317 317 316 317 316 316 316 316 316 316 316 316 317 317 317 316 317 317 318 319 319 311 300 327 329 323 319 312 313 318 327 321 318 318 322 327 327 326 327 333 332 333
319 318 317 317 317 317 316 317 317 317 317 317 317 317 317 316 316 317 316 316 316 316 317 319 320 318 309 307 326 324 317 308 309 314 322 328 327 314 318 317 325 331 320 325 329 332 331
320 318 317 317 317 316 318 317 317 317 317 317 317 317 316 316 316 316 316 316 315 316 319 322 321 314 305 318 319 322 317 311 313 315 324 324 322 315 312 316 316 322 322 314 323 326 333
320 318 318 317 317 318 318 318 318 318 318 316 316 316 316 316 315 315 314 315 316 318 323 324 313 310 307 323 315 318 317 312 310 315 318 325 317 310 312 306 302 309 305 313 318 327 329
320 318 317 317 318 318 318 318 318 318 316 316 316 316 316 315 315 314 313 313 315 317 319 318 315 306 311 313 314 317 318 315 311 313 316 314 307 303 304 300 295 302 305 309 313 320 327
320 319 318 318 317 318 318 318 318 318 316 316 316 316 315 315 315 313 311 313 308 309 315 305 307 312 314 318 318 315 321 316 314 311 304 308 301 298 302 306 307 308 308 309 318 323 320
320 319 318 318 318 318 318 318 317 316 316 316 315 315 314 314 314 313 309 309 315 307 301 314 312 313 316 316 310 316 320 308 308 303 306 302 298 306 309 309 308 307 303 306 317 325 322
321 319 319 318 318 317 317 317 317 315 315 315 315 314 314 314 312 307 309 313 318 310 299 305 312 311 310 314 310 310 315 311 305 303 304 300 304 310 307 307 306 304 301 303 312 318 323
320 319 318 318 317 317 317 317 317 316 315 315 315 314 313 312 307 312 311 315 316 311 293 301 305 309 310 312 309 316 316 312 306 302 304 302 307 307 304 304 305 297 307 308 315 311 306
320 319 318 317 317 317 317 316 316 316 316 316 316 315 313 310 307 307 313 311 311 307 287 305 305 313 308 304 309 311 316 311 304 304 302 300 302 302 302 304 307 303 308 309 313 307 307
320 319 318 317 317 317 316 316 316 316 316 316 315 314 312 310 309 311 316 316 309 293 289 301 305 303 302 304 306 310 311 313 311 306 305 304 309 305 304 307 308 310 307 308 310 307 300
320 319 318 317 317 316 316 316 316 315 315 314 312 311 309 315 310 318 317 308 294 290 304 300 299 302 300 301 303 305 305 302 299 293 295 303 303 305 307 301 306 304 300 294 292 294 298
321 319 317 316 316 316 316 316 316 315 314 312 310 309 311 315 316 318 314 305 292 298 299 305 304 300 297 301 302 305 303 298 304 302 296 295 294 304 306 302 300 301 299 294 289 291 295
321 319 317 316 316 316 316 316 315 315 313 311 308 314 315 317 318 317 309 295 296 298 302 301 301 296 296 301 301 301 300 300 302 303 294 297 298 308 308 306 303 301 299 304 297 296 293
321 319 317 316 316 316 316 316 315 314 313 311 310 312 313 322 322 315 303 298 301 304 303 304 298 299 295 299 299 298 299 304 304 307 304 299 294 303 309 308 306 301 307 297 297 291 291
321 319 317 316 316 316 316 316 315 314 312 310 313 309 317 318 318 309 299 300 303 305 304 301 299 299 299 299 301 300 299 302 304 303 303 299 297 301 305 299 298 302 300 302 299 297 292
321 319 316 316 316 316 317 316 314 312 310 309 314 306 320 313 305 307 301 301 301 304 306 303 302 301 300 301 299 299 299 302 305 304 298 302 296 294 298 305 306 302 302 303 294 293 299
320 319 316 315 315 316 316 316 314 311 311 311 309 311 313 313 300 301 302 302 303 302 302 303 302 301 302 300 298 301 302 304 306 304 299 300 294 290 296 300 300 297 302 298 298 297 297
320 319 317 315 316 316 316 315 313 312 311 310 310 304 308 309 306 301 300 300 299 303 302 303 304 303 299 298 299 297 300 303 305 303 314 307 296 292 291 296 298 295 299 300 296 291 299
319 319 316 315 316 316 316 315 314 313 311 311 312 301 306 298 300 300 302 301 299 298 303 303 303 303 301 297 298 296 302 302 303 307 302 298 292 295 299 302 300 298 299 301 297 297 299
319 319 316 315 315 316 316 316 315 313 310 318 306 305 308 302 305 305 300 299 299 300 301 300 299 301 304 298 299 298 300 300 297 301 295 298 293 297 294 300 300 297 300 302 301 306 307
319 318 316 315 315 315 316 316 315 313 311 317 316 316 312 305 303 300 298 299 300 304 303 303 303 302 301 302 306 306 305 304 303 298 299 296 295 293 289 299 299 292 297 298 305 308 306
319 319 317 314 314 315 315 316 316 314 312 312 319 315 310 304 301 300 302 303 302 303 302 303 305 303 304 305 303 300 301 301 301 300 300 296 296 294 289 294 285 296 303 302 300 308 309
318 319 317 314 314 314 315 316 317 315 313 312 319 315 314 305 303 302 303 302 304 304 303 302 304 305 306 304 297 294 292 293 297 299 295 297 295 291 288 287 293 298 301 298 297 302 310
317 319 318 315 313 314 314 314 316 316 314 314 317 324 316 310 303 307 304 307 302 302 302 303 306 306 305 301 299 291 290 295 295 296 297 297 297 293 293 289 285 295 301 305 303 295 309
315 317 318 315 313 313 314 314 315 316 315 313 316 326 319 312 309 310 306 306 307 305 302 303 303 302 303 299 295 293 292 301 291 294 293 291 292 289 291 289 295 301 302 304 292 295 305
315 316 318 316 312 312 314 313 314 315 316 314 316 325 318 313 314 313 312 310 308 308 302 304 302 303 299 295 297 297 294 297 293 295 294 293 290 289 291 287 286 305 302 297 302 303 304
314 315 317 316 312 313 313 313 314 314 315 315 317 327 326 315 315 319 316 319 316 314 308 305 303 304 303 299 299 300 296 296 295 289 298 289 297 292 294 294 303 305 304 306 306 303 304

GFSGBSN_sfc_thetae_084.txt.gz
Theta_e
319 318 318 318 317 317 317 316 316 316 316 317 316 316 316 316 317 316 317 317 316 316 317 318 319 320 313 305 306 321 349 341 336 318 311 315 320 319 314 318 330 327 328 333 334 333 334
318 318 318 317 317 316 316 317 317 317 317 317 317 317 316 316 316 317 317 316 316 316 317 317 318 319 308 295 316 330 326 320 314 311 311 319 323 322 314 316 327 330 327 332 333 333 335
319 318 317 317 318 317 317 317 318 318 318 317 317 317 317 316 316 317 316 316 316 317 316 317 319 317 308 303 320 325 317 309 306 309 314 316 324 320 312 311 321 328 321 327 329 332 331
319 319 317 317 318 318 318 318 318 318 317 316 316 316 316 316 316 316 315 315 316 317 317 320 320 312 301 315 313 316 314 306 308 308 314 323 323 316 310 312 320 323 320 313 326 330 331
320 319 319 317 318 318 318 318 318 318 317 316 316 317 316 316 315 314 314 314 315 318 320 323 308 306 301 322 313 313 313 308 305 308 311 320 315 309 308 303 299 314 309 314 320 331 329
321 319 319 317 317 318 318 318 318 318 316 316 315 316 315 315 314 314 313 314 314 316 319 318 315 303 308 310 311 314 314 312 306 307 310 309 306 301 301 298 293 297 302 310 316 326 328
321 319 319 318 318 317 318 318 318 317 316 315 315 315 314 314 314 313 308 308 306 306 309 300 303 308 312 313 314 311 314 310 307 306 301 305 298 295 299 301 304 303 302 305 318 325 320
321 319 318 318 317 317 317 318 317 317 316 315 315 314 314 313 313 311 305 303 310 306 296 311 309 311 314 313 307 311 315 305 303 300 303 300 296 302 305 306 305 303 300 303 321 324 319
320 320 319 318 318 318 317 317 317 317 316 315 316 316 314 312 311 304 304 307 313 308 295 301 309 309 309 309 307 307 312 307 303 300 301 297 301 308 306 303 302 300 297 300 312 320 320
321 319 319 318 317 317 317 317 316 316 316 316 316 315 314 312 306 305 305 310 310 307 289 296 298 308 308 308 304 315 314 309 303 300 301 300 305 305 304 303 301 294 304 306 314 309 303
322 319 319 317 317 317 317 316 316 316 316 315 316 315 312 311 302 302 308 307 308 301 283 305 302 311 304 304 307 307 314 308 301 302 299 297 300 301 300 302 302 300 305 305 311 307 311
321 319 319 317 317 317 316 316 316 316 316 316 315 313 311 307 304 307 309 310 302 291 286 301 303 300 299 300 303 307 308 309 308 303 302 301 306 302 301 304 304 306 304 308 306 304 296
321 320 319 317 316 316 316 316 315 315 315 314 312 310 308 312 304 309 309 304 293 291 303 300 298 300 296 298 300 302 303 299 297 292 292 300 301 304 304 299 301 301 297 291 290 294 294
321 320 319 317 316 316 316 316 316 315 314 312 309 308 307 311 309 309 307 300 289 297 298 303 303 300 294 297 298 301 300 296 300 297 293 291 292 301 304 300 297 296 297 292 288 289 294
320 320 319 316 315 316 316 316 315 314 313 311 308 304 306 311 312 309 302 290 291 296 302 299 299 294 294 296 297 299 298 296 300 298 293 291 294 305 307 304 302 296 294 300 295 292 293
320 320 319 317 315 315 316 316 315 314 313 310 303 304 305 312 313 307 297 293 296 303 304 300 293 296 293 297 298 296 297 299 300 302 297 295 292 298 305 305 302 298 302 295 293 288 287
320 319 319 317 315 315 316 316 315 313 312 309 306 303 312 312 311 301 292 294 301 303 303 298 295 296 294 296 298 298 295 299 301 301 299 295 292 294 301 296 297 299 296 298 296 293 290
319 319 319 317 315 315 316 316 314 312 310 309 303 299 313 307 297 297 294 297 300 299 301 299 298 297 297 299 296 298 296 297 303 301 296 297 290 288 296 303 304 302 297 297 295 294 297
318 319 319 317 315 316 316 315 313 311 310 304 301 303 310 307 293 293 296 297 298 296 297 299 298 297 300 298 296 298 299 302 303 301 294 296 290 287 292 297 299 296 296 293 294 294 295
318 319 319 317 315 316 316 315 313 312 311 305 302 299 299 298 294 294 292 293 293 300 298 299 299 300 297 295 298 297 299 301 302 300 315 303 290 291 288 295 295 293 296 296 292 289 296
318 320 319 317 315 316 316 315 314 313 311 307 304 299 296 291 293 292 293 295 296 295 299 298 298 300 296 290 294 296 299 300 300 306 300 296 290 291 298 297 297 296 296 298 292 295 297
318 319 319 317 315 315 316 315 315 313 310 311 300 301 303 296 296 294 293 291 295 295 296 296 298 302 300 294 295 293 296 295 295 300 297 294 292 292 293 301 299 295 298 301 304 308 305
318 319 319 318 315 315 315 315 315 313 309 307 311 309 305 299 293 292 291 293 299 299 299 302 302 298 296 298 302 301 299 298 296 295 295 296 290 289 287 297 298 291 295 297 304 309 306
317 318 319 318 315 315 315 315 316 314 311 305 309 307 302 299 293 294 299 301 300 299 297 299 300 297 300 301 300 298 296 295 296 294 294 291 291 288 286 290 285 295 301 300 303 306 307
316 317 319 318 315 314 315 315 316 315 313 305 307 307 304 299 300 297 298 298 298 298 297 299 300 300 300 298 293 288 289 291 295 295 292 292 289 286 285 284 291 298 299 297 295 299 308
316 315 317 318 315 314 314 315 316 315 313 307 306 313 308 303 296 303 299 300 296 294 295 298 300 301 300 295 293 286 283 291 291 295 294 293 291 288 287 284 282 292 300 303 304 294 306
315 315 315 318 316 312 314 314 315 315 314 309 306 312 309 303 305 302 300 298 300 297 294 295 295 296 298 292 291 285 286 296 286 289 289 289 286 285 286 285 292 299 301 303 290 292 305
314 314 314 317 316 313 313 314 314 314 315 309 308 312 309 303 306 308 306 302 303 300 295 297 296 298 293 290 291 287 286 289 287 291 289 289 284 282 286 282 283 302 302 294 297 299 302
313 313 314 317 315 313 313 313 313 314 314 313 309 315 316 306 307 311 311 309 310 307 301 297 298 297 296 293 293 293 289 291 289 283 293 286 292 288 290 289 298 301 301 302 303 301 300

GFSGBSN_sfc_thetae_087.txt.gz
Theta_e
318 318 317 317 317 316 316 317 317 317 318 318 317 317 316 316 316 317 317 316 316 316 316 317 317 319 312 301 302 312 349 336 339 322 311 313 317 320 316 319 328 324 329 333 331 331 333
318 318 317 317 317 317 317 318 317 317 317 317 317 317 316 316 316 317 317 316 316 315 316 316 317 319 306 291 305 325 327 330 322 311 308 313 321 323 316 316 325 328 331 330 332 329 334
319 318 318 318 318 318 318 318 317 317 317 316 316 316 316 316 316 316 316 315 315 315 316 316 317 316 306 299 319 323 319 311 307 309 306 312 322 319 315 309 318 329 324 326 330 332 330
320 319 318 317 317 318 317 317 317 317 317 316 316 316 317 316 315 315 314 314 315 316 316 317 319 310 297 311 313 311 313 307 307 304 309 316 316 316 312 314 316 321 320 313 325 330 332
321 320 319 318 318 317 317 317 318 317 316 316 316 316 315 315 314 314 314 314 315 317 318 320 307 302 298 318 310 309 314 306 303 304 308 316 314 308 307 302 298 305 307 311 321 330 328
320 320 319 318 318 318 318 317 317 316 316 315 315 315 315 314 313 313 313 313 314 315 319 319 314 301 306 308 310 311 311 308 304 304 308 307 304 300 298 297 293 297 304 310 317 325 326
320 320 319 318 318 318 317 317 317 317 316 316 315 314 314 314 312 312 307 307 304 302 307 298 300 306 310 313 314 309 311 307 305 304 299 304 298 295 299 300 302 302 300 301 317 327 324
321 319 320 318 317 317 317 317 317 317 316 316 316 315 315 313 311 310 303 300 305 304 298 307 307 308 312 311 306 308 311 302 301 297 301 298 295 300 303 304 302 302 299 306 319 323 322
322 320 319 319 318 317 318 317 317 317 316 315 315 314 314 313 312 304 301 303 309 307 295 299 308 306 306 309 305 305 308 305 299 298 299 296 299 306 304 302 301 296 296 300 312 318 320
322 320 318 319 317 317 317 317 317 316 316 315 315 315 314 312 303 303 303 306 307 304 288 295 297 305 307 306 302 311 312 307 302 298 300 298 304 304 301 301 300 292 301 306 316 309 305
321 320 319 319 317 317 317 316 316 316 316 316 315 315 312 309 301 301 306 307 305 299 284 303 303 309 303 302 304 306 312 307 300 300 299 297 299 299 299 301 302 299 302 304 315 305 306
321 321 319 320 317 316 316 316 316 316 315 315 315 313 311 306 303 307 309 306 301 291 287 299 304 301 297 299 302 306 307 308 306 301 299 300 303 301 301 303 303 304 301 303 302 300 296
320 320 320 319 317 316 315 316 316 315 315 314 312 310 308 310 303 306 307 303 291 287 301 298 297 300 296 295 298 300 301 297 296 291 290 297 299 301 302 296 298 298 295 291 292 293 294
321 320 320 319 316 315 315 316 315 315 314 312 309 307 307 310 307 309 305 296 287 295 296 300 300 297 295 295 298 298 298 295 298 296 291 290 290 299 301 299 295 295 294 290 287 289 293
320 320 319 319 316 315 315 316 315 314 313 311 307 302 304 308 310 307 301 289 289 293 299 298 297 293 293 296 296 296 296 296 298 297 292 289 292 302 304 302 300 294 293 298 292 291 291
320 320 319 319 316 315 315 316 315 314 313 310 303 303 304 310 311 304 296 291 293 300 302 298 291 294 292 294 295 293 293 297 298 300 296 293 290 296 303 303 300 298 300 293 292 287 286
319 319 319 319 317 315 316 316 315 313 312 309 304 302 308 309 308 299 290 292 299 301 305 295 293 294 294 296 297 294 293 297 299 300 299 292 291 293 299 295 292 296 295 295 294 292 289
318 318 319 319 316 315 316 315 314 312 310 307 301 297 310 306 298 293 292 296 299 296 299 298 296 295 295 297 296 295 293 295 301 300 295 294 288 287 293 299 300 296 292 295 293 291 293
317 318 319 318 316 315 316 315 313 311 310 302 298 298 308 305 291 292 294 295 295 295 295 297 297 296 298 294 293 297 298 301 301 298 294 294 288 286 290 294 298 294 294 291 291 294 294
317 319 320 318 317 316 315 314 313 312 311 304 300 293 297 295 291 291 290 291 291 301 298 297 297 298 296 294 297 296 298 301 301 300 313 301 289 289 288 292 294 291 294 294 290 288 291
318 319 320 319 317 315 315 314 313 312 310 304 301 295 295 289 292 291 291 293 294 293 297 298 299 298 293 291 294 296 299 298 301 305 297 295 290 291 296 296 296 294 295 298 291 292 294
317 318 319 319 317 315 315 315 314 312 309 305 300 300 301 295 293 291 290 289 293 293 295 295 296 298 298 292 294 292 297 294 294 299 295 294 291 291 292 301 297 294 297 297 304 304 302
316 317 319 319 318 315 315 315 315 313 308 305 306 306 302 299 290 290 289 292 297 297 298 301 301 296 295 296 300 299 298 296 293 293 291 292 289 289 287 293 299 293 294 295 301 305 303
317 316 318 319 318 315 315 315 315 314 310 303 306 305 300 297 292 294 298 299 298 297 295 297 299 295 297 300 297 295 293 293 296 291 291 289 289 286 286 289 284 296 301 302 303 304 304
316 316 316 317 318 315 315 316 316 314 313 303 303 305 302 297 298 295 297 297 297 296 295 297 298 298 298 297 292 287 290 290 296 294 290 290 288 286 284 283 289 295 298 297 298 298 305
316 315 315 316 319 316 314 315 315 315 313 304 305 309 307 297 297 301 297 298 294 292 294 296 298 299 298 293 291 284 282 289 290 293 292 291 289 287 285 284 282 291 299 301 300 293 306
315 314 313 315 318 315 313 314 315 315 313 307 304 309 307 302 305 301 298 297 297 294 293 293 295 296 295 291 289 283 285 294 285 287 287 286 285 283 285 283 290 298 301 303 292 290 304
313 314 313 314 317 315 313 314 314 314 314 308 306 308 306 300 302 307 306 301 300 297 293 295 295 296 291 290 289 284 284 288 285 290 288 287 282 280 283 281 282 300 300 291 296 298 301
312 313 313 314 316 314 313 313 313 313 314 311 305 309 312 303 303 308 308 309 308 305 298 295 296 295 294 292 292 290 287 289 285 282 290 286 291 287 289 287 295 299 299 300 299 299 299

GFSGBSN_sfc_thetae_090.txt.gz
Theta_e
319 319 318 317 317 317 317 317 317 317 317 317 317 317 316 316 317 317 317 316 316 315 315 316 316 317 310 298 299 311 349 336 330 321 310 311 318 322 316 320 327 322 328 330 332 331 331
320 318 318 318 317 318 318 317 316 316 317 317 316 316 316 316 315 316 316 316 315 315 315 316 316 318 304 293 305 323 326 330 324 314 308 314 321 325 321 318 323 328 329 329 331 331 333
320 319 319 319 318 317 318 318 317 316 317 317 316 316 316 315 315 315 315 314 314 314 315 315 316 316 304 299 312 323 322 313 314 308 306 309 324 319 318 312 326 327 322 328 327 330 330
319 319 319 318 318 318 318 318 317 316 316 316 316 316 315 315 315 314 313 313 314 315 315 315 318 308 295 306 310 311 310 306 307 304 308 310 316 315 313 313 317 320 319 314 327 329 330
319 320 320 319 318 318 318 317 317 316 316 315 316 315 315 314 313 312 312 314 315 316 316 318 305 301 295 316 309 309 311 305 303 303 305 315 314 308 306 300 298 309 305 310 320 329 328
321 319 319 319 318 318 318 318 317 316 316 316 315 314 314 314 313 311 312 313 315 316 318 318 313 300 305 306 309 307 310 305 302 302 305 305 302 299 298 296 293 300 304 308 315 322 326
322 320 318 319 318 318 318 318 317 317 316 315 315 315 314 314 313 310 306 306 302 298 305 297 298 303 307 311 311 306 310 306 304 302 297 301 299 296 301 299 301 303 302 304 315 325 323
323 322 319 319 319 318 317 317 317 317 316 315 314 314 313 313 312 310 304 298 302 303 297 306 306 305 308 308 304 305 309 302 299 295 301 298 296 301 305 302 302 300 298 308 318 326 321
322 322 319 319 319 317 317 317 317 317 317 315 314 314 313 312 311 305 300 301 306 305 294 298 305 304 303 307 303 304 306 302 298 297 298 296 299 304 303 300 299 295 295 298 311 318 321
321 321 320 318 319 317 317 317 316 316 316 316 316 314 313 311 303 303 301 305 305 303 289 296 299 303 305 305 300 309 309 305 299 297 299 298 302 302 300 300 299 293 300 306 316 311 305
321 320 320 318 319 317 316 316 316 316 316 316 316 315 312 308 301 301 305 304 302 298 283 302 303 307 302 300 303 304 310 305 298 298 299 297 298 299 298 299 301 299 302 304 315 305 306
321 321 320 319 319 317 315 315 316 316 315 315 314 313 310 305 303 306 308 303 300 291 286 298 303 300 296 298 300 304 305 307 304 299 298 299 301 300 300 302 303 304 299 302 303 301 297
322 320 320 319 318 316 315 315 315 315 315 314 312 310 307 309 302 305 305 302 290 285 299 295 295 298 296 294 297 299 300 296 295 290 290 296 297 299 300 295 297 297 292 291 291 294 292
321 319 319 319 318 316 315 315 315 315 314 312 309 307 306 309 306 306 303 295 285 294 294 298 298 294 293 293 297 299 297 294 296 295 290 290 288 297 300 298 294 293 293 289 287 289 294
321 320 319 319 318 316 315 315 315 314 313 311 307 300 302 306 308 305 300 288 287 291 297 296 295 292 292 295 295 297 295 295 297 296 291 288 290 300 300 298 299 293 290 294 290 289 292
320 318 319 319 318 315 315 315 314 314 313 310 302 301 303 308 309 302 295 291 292 298 300 296 290 293 290 294 293 294 293 296 296 299 295 292 288 294 301 300 299 296 299 292 290 286 285
319 318 318 319 318 315 315 315 314 313 312 309 302 301 306 308 305 298 290 291 297 298 302 296 293 293 292 294 295 294 293 297 298 298 297 292 290 292 296 294 292 295 294 292 292 291 290
319 317 318 319 317 316 315 315 313 311 310 306 298 297 306 304 297 292 291 294 297 294 297 296 295 293 295 297 294 294 292 295 300 299 295 294 288 287 291 296 298 294 292 293 291 290 292
318 318 319 319 318 317 315 314 313 311 310 301 298 297 306 302 290 289 293 293 295 294 295 295 295 296 299 296 292 296 296 300 301 298 295 296 289 286 289 292 295 293 293 289 290 294 294
318 318 319 319 318 317 315 314 312 311 310 302 299 293 296 292 289 290 289 289 291 299 297 297 297 296 295 295 297 296 297 301 302 305 309 302 290 290 286 288 291 291 293 295 289 289 291
318 317 318 319 319 317 315 314 313 312 310 302 298 293 295 289 292 290 290 291 293 292 296 298 297 297 292 290 291 295 296 299 300 304 297 296 292 292 295 295 295 294 294 296 296 290 293
317 317 318 319 319 317 315 315 314 312 309 303 299 298 299 294 292 289 290 290 291 292 294 295 295 296 296 293 292 291 293 294 293 297 294 295 292 293 292 297 298 296 297 299 303 303 301
317 317 317 318 319 317 315 315 314 312 307 304 304 303 300 296 289 289 288 291 294 296 296 298 298 295 293 294 297 295 295 296 293 291 291 292 290 290 287 292 298 293 295 299 302 304 302
317 317 316 317 318 318 315 315 315 314 310 302 303 303 297 293 291 293 296 297 296 295 293 296 298 293 296 297 296 294 295 297 295 290 288 289 288 288 287 288 284 295 301 304 303 304 304
316 316 316 315 317 318 315 316 315 314 312 302 301 303 300 293 295 294 296 295 295 294 293 295 297 297 297 296 291 287 288 288 294 292 290 289 288 285 284 283 288 294 296 296 296 299 304
315 316 315 315 316 318 315 315 315 315 313 302 302 306 304 296 294 299 296 296 292 291 293 294 297 297 298 293 291 283 281 287 288 291 291 290 288 288 284 282 281 289 299 304 301 291 305
313 314 314 314 315 318 315 314 315 315 313 305 303 306 306 300 302 299 295 295 296 292 292 292 294 295 295 291 288 281 284 293 284 286 285 285 284 283 285 283 289 296 300 303 291 291 305
313 312 313 313 314 317 314 313 314 314 314 307 305 307 304 299 300 306 304 299 298 295 292 294 294 295 290 290 288 283 283 286 284 288 287 286 282 279 283 282 282 299 299 292 296 300 304
313 312 312 312 314 317 314 313 313 314 314 311 304 307 309 302 302 306 307 307 306 304 297 294 294 293 293 291 290 288 285 287 284 280 290 285 290 286 287 287 294 297 297 300 300 301 303

GFSGBSN_sfc_thetae_093.txt.gz
Theta_e
319 318 318 318 317 317 317 317 317 316 317 317 317 316 316 316 316 316 316 316 316 316 315 315 316 317 315 305 306 311 343 336 337 321 316 315 318 326 320 322 326 325 329 331 333 334 332
319 319 319 318 319 318 318 317 317 317 317 317 316 316 316 316 315 315 315 315 315 314 314 315 316 318 310 301 314 329 329 330 327 317 314 320 324 330 324 321 324 329 331 331 333 332 332
318 319 320 319 318 317 317 317 317 317 317 316 316 315 315 315 315 315 314 314 313 313 314 315 316 317 308 305 314 330 324 320 320 316 312 317 330 326 324 316 323 331 326 329 330 332 330
320 319 319 320 318 318 317 317 317 317 317 316 316 316 315 315 314 313 313 312 313 314 315 315 318 315 301 310 315 323 317 313 316 314 314 315 327 324 321 320 321 324 326 319 328 330 330
322 320 318 320 319 318 317 317 317 316 316 316 316 315 314 314 313 313 311 312 314 315 316 318 313 309 301 318 312 317 316 312 314 311 311 316 317 318 314 309 317 318 315 317 321 330 328
323 322 320 318 319 318 318 318 318 317 316 316 315 315 315 314 313 312 311 312 318 320 319 318 315 306 310 309 313 315 315 312 308 309 310 311 313 313 310 307 304 312 313 317 318 325 326
323 323 321 318 320 318 318 318 318 317 316 316 315 314 314 313 312 311 309 314 308 307 312 305 306 305 308 315 314 311 314 309 309 308 305 309 310 309 310 308 309 317 315 312 317 326 324
322 322 321 319 320 319 318 317 317 317 317 317 316 314 313 313 312 310 308 307 310 310 304 308 309 307 310 312 306 309 315 305 304 300 306 307 307 312 311 308 307 309 310 309 322 326 323
322 321 321 319 318 319 317 317 317 317 317 317 316 314 313 313 311 308 306 307 311 311 303 303 307 307 308 310 306 308 312 307 303 303 306 304 309 309 308 306 305 306 306 317 316 320 320
322 320 320 319 318 319 317 316 317 316 316 316 316 314 313 311 306 309 307 311 310 310 298 302 305 308 310 310 306 312 314 308 305 302 307 309 308 307 305 305 307 304 308 312 319 316 309
322 321 320 320 318 318 317 316 316 316 316 316 316 313 311 310 308 307 310 312 309 304 289 304 306 313 309 306 308 308 314 310 303 304 306 304 305 305 304 306 307 306 307 310 319 314 314
322 321 320 320 319 319 316 315 315 315 315 315 314 312 310 307 308 312 313 310 306 297 288 300 305 304 303 304 307 309 310 312 310 305 306 306 308 308 307 308 309 309 309 312 315 313 303
322 321 320 319 318 318 315 315 315 315 314 314 312 309 308 311 310 312 312 310 298 292 301 298 299 303 302 300 304 306 305 304 303 298 299 303 303 306 307 304 306 306 302 298 299 300 298
322 320 319 319 318 318 315 315 315 314 314 312 309 307 309 312 313 313 312 305 292 297 298 303 301 300 299 300 302 303 304 302 303 303 300 297 295 304 306 305 302 304 303 298 294 297 301
321 319 318 318 318 317 315 315 314 314 313 311 307 308 310 312 313 312 309 297 295 298 301 300 301 298 299 300 300 302 301 303 305 305 299 297 297 305 305 307 307 301 299 307 302 302 302
320 319 318 318 317 317 316 315 314 314 313 310 310 310 312 313 314 311 306 295 299 301 303 301 297 299 297 299 300 301 299 301 302 304 305 302 297 303 306 306 305 305 307 300 301 296 296
320 318 318 319 318 317 316 315 314 313 311 309 310 311 312 314 312 309 300 299 301 303 304 300 298 299 299 300 301 300 298 300 302 302 305 303 301 300 304 303 302 303 302 303 304 302 298
319 318 318 319 318 318 316 315 313 312 310 308 308 306 313 311 307 302 302 301 297 300 302 302 301 301 300 300 300 298 297 300 302 305 300 302 302 299 298 302 304 304 304 305 299 300 305
319 318 318 319 318 318 317 314 313 311 310 308 307 307 313 311 300 300 301 299 301 301 300 301 300 302 302 300 299 300 300 303 305 302 301 302 299 296 297 301 304 303 302 302 305 308 305
319 318 318 319 319 318 316 314 312 311 310 309 307 302 304 302 299 301 298 297 299 302 302 303 303 302 302 300 302 300 300 304 305 307 308 307 299 299 296 298 301 301 303 301 303 301 304
318 318 318 318 319 319 317 314 313 312 310 309 306 302 301 300 300 299 300 299 297 297 302 305 303 301 299 299 298 298 300 302 305 306 304 304 298 300 301 302 303 303 305 307 301 301 302
318 318 318 318 319 319 317 315 314 312 309 311 308 307 306 304 298 299 297 298 297 298 300 301 300 300 302 300 300 298 299 301 299 304 304 304 298 299 298 301 303 300 305 309 308 307 307
316 317 317 317 318 319 317 315 315 312 309 312 312 311 309 299 297 299 299 299 299 301 301 303 302 301 300 300 302 304 302 300 299 300 300 301 299 299 296 299 302 298 301 304 306 309 309
315 316 317 316 316 318 317 315 315 314 310 309 311 312 307 299 300 301 300 302 300 301 299 300 304 302 303 305 304 303 303 304 303 299 299 301 299 298 296 299 291 300 306 307 306 308 310
314 315 316 315 315 317 318 316 316 314 312 311 310 312 309 301 301 300 302 301 302 301 300 300 303 304 305 305 300 297 298 299 301 301 299 302 301 295 295 295 296 299 300 301 302 303 310
315 315 315 315 314 316 318 316 315 314 312 311 311 314 314 305 301 302 301 302 302 301 301 301 304 306 307 304 301 293 294 295 295 298 303 301 303 301 296 291 289 298 303 307 306 299 312
315 315 313 314 314 315 318 315 314 315 313 312 312 314 315 309 310 306 304 303 303 301 302 302 303 303 305 303 299 298 297 299 296 294 296 297 297 295 296 294 296 302 305 307 297 300 310
315 315 313 313 313 314 317 314 314 314 314 313 314 315 314 308 310 311 308 305 304 304 303 302 303 303 302 300 300 298 300 299 298 299 298 295 296 296 295 293 291 305 305 300 305 309 309
314 314 313 312 313 314 317 313 313 314 314 312 314 314 316 312 310 312 314 314 312 311 307 303 305 303 304 302 301 299 298 298 295 294 300 297 300 301 299 299 304 307 307 309 309 308 311

GFSGBSN_sfc_thetae_096.txt.gz
Theta_e
319 319 319 318 318 318 318 318 317 317 317 317 317 317 317 316 316 316 316 316 316 316 316 316 317 318 318 312 311 321 339 334 326 327 320 317 317 327 329 328 329 329 331 333 335 336 333
319 319 319 320 319 318 317 317 318 318 317 317 317 316 316 316 316 316 315 315 315 315 315 315 317 318 314 306 318 330 325 327 325 323 320 319 318 332 330 327 326 332 331 333 335 335 333
321 319 319 320 318 317 317 317 317 317 317 317 316 316 316 315 315 315 314 314 313 313 315 316 317 319 312 309 318 331 326 327 326 322 319 321 325 333 330 319 327 331 327 330 332 332 330
323 321 319 319 320 319 318 318 317 317 316 316 316 316 316 315 315 314 313 312 312 315 316 317 318 318 306 314 322 324 322 323 324 321 320 325 337 332 326 325 330 328 328 321 329 333 332
323 322 320 318 320 319 318 318 318 318 317 317 316 315 315 315 315 313 312 312 314 316 317 318 319 314 307 317 315 320 317 314 317 318 318 323 331 326 323 320 323 322 318 321 324 331 329
323 323 321 319 319 320 319 318 318 317 317 317 316 315 315 315 314 313 312 312 317 319 320 321 317 312 314 312 317 318 319 317 313 314 313 318 324 321 318 317 313 313 319 323 323 326 324
323 322 322 320 318 320 319 318 318 318 318 317 317 316 314 314 313 312 313 320 316 315 317 311 310 309 310 318 320 316 317 314 313 311 307 312 315 316 317 317 314 319 316 320 325 329 322
323 322 321 321 318 319 319 318 317 317 318 317 317 315 314 314 313 312 314 314 314 314 307 313 312 312 314 315 311 315 317 310 308 304 310 308 308 319 321 314 314 319 319 319 325 329 326
323 322 321 320 319 318 318 317 317 317 317 317 317 315 314 313 311 312 316 314 319 317 309 309 311 310 312 314 310 311 315 311 307 304 307 305 309 319 316 312 311 315 317 317 320 323 324
323 322 321 320 319 319 319 317 316 316 317 316 317 314 313 312 310 319 315 318 319 317 304 305 308 311 313 314 309 316 316 312 306 303 306 307 312 313 314 314 313 311 314 320 322 318 309
323 322 320 320 319 319 318 316 316 316 316 316 316 313 311 308 317 315 316 321 319 314 293 306 308 316 314 311 312 311 317 312 305 304 308 306 309 311 310 314 315 311 313 316 319 317 315
323 322 321 320 319 319 318 315 315 315 315 315 314 312 311 312 318 319 321 319 315 301 292 302 308 307 307 310 310 312 313 315 313 307 309 309 315 313 313 315 315 313 312 314 318 316 308
322 321 320 319 319 318 317 315 315 315 314 314 311 309 311 318 317 321 320 317 303 296 305 301 303 306 306 305 307 309 308 307 305 301 300 306 308 312 314 311 314 312 310 302 302 304 305
322 320 319 318 318 317 317 315 315 314 314 312 308 308 312 318 322 319 318 309 296 299 301 306 305 305 302 305 306 307 307 304 309 307 303 301 299 308 312 310 308 310 310 303 297 301 304
321 319 318 319 318 317 317 315 314 314 313 310 307 319 319 322 321 320 314 303 300 301 304 303 305 301 301 304 305 306 306 305 308 309 303 301 301 310 310 312 311 309 306 313 307 308 305
321 319 319 319 318 318 317 315 314 314 312 310 319 320 320 321 322 318 310 298 303 306 307 305 300 304 299 302 302 304 304 308 308 309 312 306 300 307 309 311 311 309 312 306 307 300 299
321 319 318 319 319 318 318 316 314 313 311 310 319 313 319 323 321 314 305 303 304 307 307 304 302 303 303 302 303 303 303 306 308 309 311 309 305 304 308 305 304 306 305 307 309 307 301
320 319 318 319 318 318 318 315 313 312 309 311 317 310 321 321 310 312 307 304 299 303 307 306 306 305 304 304 302 303 302 305 307 309 306 310 306 302 303 309 311 309 307 308 301 304 306
320 319 318 318 318 319 318 315 313 311 310 319 316 316 321 317 305 306 307 303 305 303 303 304 304 306 308 305 302 303 304 307 309 307 307 309 304 300 301 305 309 306 308 310 309 308 306
318 319 319 319 318 319 318 314 312 311 310 317 315 307 312 315 313 306 304 303 302 306 304 306 306 307 306 305 307 303 303 305 308 309 310 309 306 304 299 302 307 305 306 308 308 303 304
317 318 318 318 318 318 318 315 313 312 310 316 316 309 309 304 306 307 306 303 300 300 305 306 306 305 304 302 303 302 305 305 307 312 309 308 303 306 306 307 307 306 306 306 306 307 304
316 317 318 318 318 318 318 316 314 312 310 320 315 312 314 310 307 305 301 303 300 301 303 301 303 304 306 305 305 300 303 304 304 307 308 310 302 306 303 306 306 306 308 308 307 307 308
316 316 317 317 317 317 318 316 315 313 311 319 322 321 316 302 306 305 305 303 301 303 305 307 306 305 303 305 307 308 308 307 305 306 307 306 306 302 299 304 305 301 306 307 310 311 311
316 315 316 317 316 316 318 317 315 314 312 319 320 320 314 304 306 306 304 303 302 304 302 302 308 306 307 311 310 309 309 309 308 307 310 306 308 305 299 302 293 305 310 310 309 311 313
316 316 315 315 316 315 317 318 316 315 313 319 322 319 316 307 308 305 305 304 306 307 304 302 307 310 313 309 305 302 302 303 304 306 306 311 308 302 299 298 302 303 306 306 306 307 313
315 316 316 314 315 315 316 319 316 315 313 318 322 324 320 310 306 308 306 307 306 306 305 304 310 314 312 309 304 298 298 300 299 301 308 306 310 303 300 296 294 304 306 310 310 303 314
315 315 316 314 314 315 316 318 315 315 313 316 322 325 320 313 312 311 307 306 310 308 308 307 308 308 312 305 301 301 300 304 298 297 300 301 303 300 299 297 300 307 308 311 300 304 315
314 315 315 315 313 313 315 317 314 314 314 315 323 327 320 315 316 314 312 311 311 310 306 310 307 308 307 303 304 304 303 306 302 304 302 300 299 299 301 297 294 309 308 304 310 314 315
314 314 315 315 313 312 314 317 314 313 313 313 320 324 325 318 316 319 319 319 317 316 314 311 310 307 310 307 307 308 303 305 302 299 307 301 304 306 302 304 311 313 313 314 315 314 315

GFSGBSN_sfc_thetae_099.txt.gz
Theta_e
319 320 320 320 320 319 318 318 318 318 318 318 318 317 317 317 317 317 317 317 317 317 317 317 318 319 320 315 315 331 339 335 323 327 325 321 318 328 328 333 332 329 331 334 334 335 335
321 320 320 320 319 319 318 318 318 318 318 318 318 317 317 316 316 316 316 316 315 316 316 317 318 319 317 309 321 328 325 319 318 325 322 321 319 324 329 333 330 333 333 332 334 336 336
323 321 320 319 321 320 319 319 318 318 318 318 317 317 317 316 316 316 315 315 315 314 316 317 318 320 315 313 321 330 324 321 321 324 321 322 323 322 334 329 333 334 327 330 331 335 330
324 323 320 320 321 320 319 319 319 318 318 317 317 317 317 317 316 316 314 314 313 314 317 318 319 321 312 318 324 326 327 325 324 325 324 324 324 326 333 331 331 331 327 319 328 332 332
324 324 322 320 319 320 319 319 319 319 318 318 318 317 316 316 315 315 314 313 315 317 318 320 321 319 310 316 316 324 324 322 322 322 323 323 329 330 330 323 321 328 316 319 323 332 329
324 323 323 321 319 319 320 319 319 319 319 319 318 318 316 315 315 314 313 313 318 318 320 323 322 313 315 313 319 319 320 320 316 316 315 315 325 323 324 321 313 317 314 322 322 327 328
324 323 322 322 320 319 320 319 318 318 318 318 318 317 316 315 315 313 314 323 320 320 321 314 313 311 313 319 322 318 319 316 315 313 309 312 314 315 319 322 320 318 316 314 325 326 322
324 323 322 321 321 319 320 319 317 317 318 318 318 317 315 314 314 313 315 317 316 317 310 315 313 313 316 319 314 316 320 312 310 306 311 309 309 318 322 321 318 321 318 313 324 327 322
324 323 322 321 320 319 320 318 317 317 317 317 317 316 315 314 313 313 320 318 322 322 312 311 313 312 313 316 313 314 316 313 309 305 307 307 310 316 319 319 314 316 318 313 312 323 322
323 322 321 320 320 319 319 318 317 317 317 317 317 315 314 313 309 322 317 323 324 322 307 307 310 313 315 315 310 319 319 313 309 306 308 309 313 312 318 317 316 310 321 319 317 320 314
323 322 321 320 320 319 319 318 316 316 316 316 316 314 312 309 319 318 320 324 324 320 296 307 310 319 317 312 313 313 320 315 308 306 308 306 308 310 313 315 319 313 318 321 320 319 318
323 321 320 320 320 319 318 317 316 316 316 316 314 312 311 315 319 322 324 324 321 304 293 304 309 309 309 311 311 314 313 317 315 309 309 309 314 313 314 316 319 319 315 316 320 319 306
323 321 320 319 319 318 318 317 316 315 315 314 311 309 311 322 320 325 324 319 306 299 306 303 305 307 307 307 309 309 308 307 306 302 302 307 309 314 316 312 317 318 312 304 303 303 306
322 320 319 319 319 318 318 318 316 314 314 312 309 308 314 321 326 324 321 312 299 301 303 307 306 306 303 306 307 308 308 306 310 309 305 301 300 310 313 313 311 314 313 306 300 302 305
321 321 319 319 319 318 318 318 315 314 313 311 308 322 323 325 324 325 316 305 302 303 305 305 307 303 303 304 305 307 307 306 309 311 304 303 302 312 313 314 314 311 310 316 307 310 304
321 321 319 319 319 319 318 317 315 314 313 311 320 321 321 326 326 322 312 299 305 308 308 307 302 307 302 303 302 305 306 310 308 312 314 309 302 310 311 313 313 311 315 308 309 301 298
320 321 319 319 319 318 319 317 314 314 312 310 320 315 323 326 325 316 306 306 306 309 308 305 304 303 306 303 304 303 304 308 311 312 312 311 308 306 309 307 306 307 307 311 311 309 302
319 319 319 319 318 318 319 317 314 312 310 309 320 310 324 326 312 312 310 306 300 305 308 306 307 307 305 305 304 304 304 306 311 311 307 311 308 303 305 310 312 311 308 309 304 305 308
317 318 319 319 318 318 319 317 313 311 310 321 317 317 324 321 307 307 309 305 306 305 305 304 306 307 309 306 303 306 305 310 310 309 309 311 305 301 302 307 310 307 309 309 309 309 306
317 317 319 319 319 318 318 317 313 312 311 316 318 309 314 316 316 309 306 305 304 308 305 305 307 308 307 305 308 305 305 308 310 310 316 313 307 304 300 303 308 304 307 309 308 304 304
318 317 317 319 319 318 318 317 314 312 312 317 318 312 313 307 308 309 308 306 302 302 307 307 306 306 306 303 305 305 307 308 309 312 313 310 305 307 307 309 309 307 306 307 306 309 306
316 317 317 318 318 318 318 318 315 313 311 320 317 313 313 314 309 307 303 306 302 302 304 303 303 305 307 305 307 302 306 306 306 309 310 313 305 308 305 308 308 306 308 308 308 308 309
314 316 317 316 318 318 317 318 316 313 312 322 325 323 318 306 308 307 308 305 303 304 306 308 307 307 305 308 310 312 311 310 311 307 307 309 307 307 300 307 307 302 308 308 309 311 310
314 315 317 316 316 317 317 318 317 314 313 320 323 322 315 308 307 308 305 305 303 305 304 304 309 307 311 314 313 313 310 308 309 308 310 308 305 304 304 305 296 306 312 313 311 313 314
315 315 316 317 315 316 316 317 319 315 314 316 324 322 318 309 309 308 306 305 307 308 306 304 307 313 314 310 306 303 304 306 306 307 309 310 306 303 298 296 303 307 309 309 309 310 315
315 315 316 316 316 315 316 317 319 315 314 315 323 326 321 314 309 309 307 308 307 308 307 306 311 315 312 309 304 300 295 301 300 304 310 308 310 305 304 296 296 302 310 313 312 305 316
315 315 315 316 316 315 315 316 318 315 314 315 322 330 322 314 314 313 308 308 312 311 310 309 308 308 312 306 303 301 301 306 302 299 301 303 304 301 302 299 300 310 311 313 301 304 317
314 315 314 315 316 315 314 315 317 314 315 315 322 331 324 316 317 315 315 312 312 312 308 312 309 309 308 305 305 305 303 308 303 306 304 303 301 301 302 298 297 312 310 305 315 317 318
314 314 315 315 315 314 313 315 317 313 314 313 317 328 327 320 319 322 320 320 318 318 314 313 312 310 312 308 309 310 305 307 303 299 309 302 306 305 305 306 315 315 316 318 318 317 317

GFSGBSN_sfc_thetae_102.txt.gz
Theta_e
321 321 320 321 321 320 319 319 319 319 319 318 319 318 318 318 318 318 318 318 318 318 318 318 319 320 318 316 314 333 348 340 320 317 321 323 319 324 325 330 332 328 330 334 334 335 334
324 322 321 320 321 321 320 320 319 319 319 319 318 318 318 317 317 317 317 317 316 316 317 318 319 320 316 308 323 332 327 325 315 317 321 324 319 322 328 329 329 333 332 332 335 332 334
324 324 321 321 321 321 320 320 320 320 319 319 318 318 318 318 318 317 317 316 316 316 317 318 319 319 313 313 321 326 325 317 316 319 320 323 323 319 323 326 336 332 328 330 333 335 332
324 324 322 321 320 321 320 320 320 320 320 319 319 318 317 317 317 317 316 315 315 316 317 319 320 319 312 320 323 325 326 320 318 321 324 325 323 319 320 331 329 328 329 321 329 332 331
325 324 323 321 320 320 320 319 319 319 319 319 319 319 318 317 317 316 315 314 316 319 319 321 320 317 312 317 313 322 325 321 322 320 323 324 321 317 321 322 322 327 318 320 323 332 330
325 325 323 322 320 321 320 320 319 319 319 319 319 319 318 317 316 315 314 314 320 319 321 323 321 314 316 312 316 323 323 323 319 318 317 316 316 315 320 319 312 316 318 321 321 326 328
326 325 324 323 320 320 321 320 319 319 319 319 319 318 317 316 316 315 313 320 319 318 321 315 314 312 314 318 322 317 319 318 317 314 308 312 307 310 318 321 322 317 319 319 317 323 323
325 324 322 322 320 320 321 320 318 318 318 318 318 318 317 316 315 314 314 315 316 317 310 319 314 312 316 319 312 316 319 311 309 305 309 308 304 312 320 322 323 318 315 315 315 317 321
324 324 322 321 320 320 320 319 318 317 318 318 317 317 316 315 314 313 317 317 323 322 312 312 312 312 312 314 311 313 316 313 308 305 306 305 308 313 315 316 316 318 316 312 310 313 317
324 322 321 321 320 319 320 319 318 317 317 317 317 316 315 313 311 321 319 323 324 324 306 307 310 312 313 313 309 319 318 313 310 305 306 306 312 310 311 312 317 313 319 316 314 308 304
323 322 321 320 320 319 319 319 317 317 316 316 316 314 313 310 316 316 321 324 324 320 295 308 310 319 316 310 312 313 319 313 307 307 307 304 307 308 308 311 319 312 322 317 315 309 309
323 322 321 320 320 320 318 318 318 316 316 316 315 313 310 315 317 320 324 324 321 304 295 305 310 309 308 311 311 314 314 316 315 309 308 307 312 311 310 315 318 317 317 316 314 310 304
322 322 321 320 320 319 318 318 318 316 315 314 313 311 311 319 320 325 324 318 305 298 307 304 305 307 307 306 308 309 307 307 305 301 302 305 306 312 313 309 315 316 312 304 303 301 303
321 322 321 319 319 319 318 318 317 315 314 313 310 310 313 319 323 325 321 311 299 303 304 307 306 307 302 308 307 308 306 303 308 308 304 300 298 308 313 311 309 312 312 303 297 299 304
321 321 321 319 319 319 318 318 317 315 313 312 309 321 319 324 323 322 315 304 304 304 307 305 306 304 304 306 305 307 306 305 308 309 303 303 302 310 312 314 313 310 307 314 306 308 305
319 320 321 319 319 319 318 318 317 314 313 311 316 320 320 325 326 320 311 303 307 308 307 306 301 305 301 304 304 304 305 309 308 311 312 308 302 309 311 313 313 312 314 305 308 299 298
318 319 319 320 319 319 318 318 317 313 312 311 317 315 322 325 323 314 306 307 307 309 307 304 303 303 304 303 306 304 304 308 311 310 313 310 308 307 310 307 306 307 306 308 309 309 300
317 317 318 319 319 319 319 318 316 312 310 311 319 309 325 323 310 312 307 309 301 306 308 306 307 305 304 307 304 304 305 308 312 312 308 311 308 303 305 311 312 310 307 308 303 304 307
318 317 317 318 319 319 318 317 315 311 311 316 316 316 325 321 305 308 310 307 306 305 305 304 304 308 308 306 301 304 308 311 312 310 308 310 305 300 302 307 310 306 308 308 308 308 306
316 318 318 318 319 319 318 317 315 312 312 315 316 311 315 315 314 311 308 306 304 309 306 306 305 308 306 305 308 301 304 309 311 310 321 314 306 303 299 303 308 304 305 308 306 302 303
315 316 318 318 318 319 318 317 316 313 312 315 316 313 315 306 308 309 308 307 303 302 307 307 305 306 305 302 302 305 306 308 309 310 311 309 303 306 306 307 308 308 305 306 306 306 304
314 315 316 318 317 318 318 317 316 314 311 317 314 315 318 312 310 308 303 305 303 304 304 304 303 306 306 304 304 301 306 303 307 311 309 311 305 308 305 308 308 306 308 307 307 307 308
314 314 315 317 317 317 318 317 317 314 311 321 323 324 318 309 309 306 306 307 305 306 306 306 307 306 306 309 311 311 310 311 312 309 308 308 308 306 303 307 307 302 307 308 308 309 309
313 314 316 316 317 317 317 318 317 316 312 316 322 321 316 308 309 307 307 307 304 306 305 305 307 307 311 315 313 311 310 309 309 309 311 308 308 305 302 304 296 307 314 312 312 311 318
313 314 316 317 317 317 316 317 318 318 314 314 318 320 317 312 312 309 307 306 307 308 305 305 307 312 315 309 305 304 303 305 306 307 309 311 308 302 297 296 301 306 309 309 310 310 316
314 315 316 316 316 317 316 316 317 318 314 314 318 325 319 314 311 311 307 308 306 308 308 306 311 314 312 307 304 299 296 299 301 303 308 310 312 306 302 297 294 305 311 315 314 302 315
314 315 315 316 316 316 317 316 316 318 315 313 317 324 319 315 317 313 308 308 310 311 308 310 308 308 311 306 301 301 297 301 294 298 301 302 304 298 296 297 301 309 312 314 300 305 317
314 315 315 315 315 316 317 315 316 318 316 313 316 327 320 318 318 317 314 312 312 311 308 312 308 310 307 304 304 304 302 301 301 306 305 303 302 302 304 299 296 313 311 304 315 318 320
314 314 315 315 315 316 316 314 315 317 315 313 313 327 328 318 320 324 320 319 317 318 314 315 312 314 311 307 308 308 304 305 305 299 309 302 308 305 306 307 316 317 319 321 320 318 318

GFSGBSN_sfc_thetae_105.txt.gz
Theta_e
324 322 322 321 321 322 321 321 321 320 320 319 319 319 319 319 318 318 318 318 318 318 318 318 319 320 316 309 311 329 347 341 321 310 308 314 315 315 324 330 330 329 330 331 332 329 332
325 323 322 322 321 322 321 320 321 321 320 320 319 319 319 318 319 319 319 319 317 317 317 318 319 321 312 301 325 328 331 328 314 308 312 316 317 318 318 328 327 332 330 333 331 334 334
325 324 322 322 321 321 321 321 320 320 320 320 320 320 319 318 318 319 318 318 317 317 317 318 320 318 309 307 320 327 322 317 313 309 311 317 321 315 314 314 333 332 326 331 331 333 332
325 324 323 321 321 321 320 321 320 320 320 320 320 320 319 319 318 317 317 316 316 317 318 319 320 315 306 319 316 317 319 313 311 311 314 319 319 314 310 323 327 326 325 318 330 331 332
326 325 324 321 320 321 321 321 320 320 320 320 320 319 319 318 318 317 316 315 316 319 321 320 315 309 307 321 310 314 315 316 310 310 313 320 317 309 310 307 312 323 312 317 322 332 329
326 325 324 323 320 321 321 321 319 319 319 319 319 319 318 318 317 316 314 315 318 317 320 320 319 308 315 311 313 313 315 320 315 313 311 311 308 303 304 303 302 311 313 318 317 320 322
326 325 322 322 320 320 321 320 319 318 319 318 318 318 318 317 316 315 312 312 312 311 314 312 310 311 312 315 318 314 318 315 315 309 302 307 300 298 303 310 314 319 317 312 318 320 316
325 323 322 322 320 319 320 320 319 318 318 318 318 317 317 316 315 314 310 308 313 311 305 315 317 314 311 313 310 313 315 307 307 301 304 300 297 304 308 318 320 317 312 313 315 318 315
324 321 320 319 319 319 320 319 319 317 317 317 317 317 316 314 313 309 310 312 318 317 305 311 315 309 307 308 307 310 311 308 303 300 300 297 302 308 306 318 316 316 314 313 312 315 315
323 322 320 319 319 319 319 319 319 318 317 316 317 316 314 311 310 315 314 320 320 317 299 306 305 308 310 309 304 313 315 310 305 300 302 299 306 306 305 312 316 311 319 316 313 309 303
322 323 321 320 320 319 318 318 319 318 316 316 316 315 313 310 309 309 315 320 317 313 290 307 307 315 310 304 308 309 316 310 303 303 300 298 301 301 302 306 319 315 320 315 312 308 310
322 322 322 321 320 320 319 318 318 318 316 315 315 314 312 311 310 313 316 317 315 298 294 303 308 306 305 306 308 311 311 311 310 305 305 302 307 304 304 310 319 322 316 314 312 310 301
321 322 322 321 320 319 318 318 318 317 315 314 312 311 310 314 312 319 317 312 298 295 309 303 301 305 303 303 305 307 305 303 298 293 295 302 302 304 308 308 319 317 311 301 298 297 297
319 320 321 320 319 319 318 318 318 316 314 312 310 309 311 315 317 317 315 305 296 305 304 305 303 304 300 305 305 306 303 298 304 301 297 294 292 301 308 303 309 313 307 298 294 297 301
316 318 319 320 319 319 318 318 317 315 314 311 309 316 316 317 317 317 307 299 301 304 304 301 302 300 302 305 305 303 302 300 302 303 294 294 297 307 308 309 306 304 301 309 302 303 301
317 316 317 319 319 319 319 318 317 315 313 311 310 314 316 323 321 314 305 299 305 306 304 302 296 301 300 302 302 302 302 306 305 307 304 300 295 304 309 308 308 302 308 297 303 295 294
319 318 316 316 319 319 319 318 316 315 312 310 313 310 319 324 320 310 300 304 309 306 305 301 298 298 302 302 303 302 303 307 308 307 307 302 299 300 306 301 300 300 298 299 304 302 297
317 318 318 316 318 319 319 318 315 313 310 312 316 306 320 319 306 306 303 307 307 305 306 303 302 301 300 304 300 303 302 306 311 308 303 304 298 294 299 307 308 302 299 298 294 295 300
315 316 317 318 318 319 319 317 315 312 311 309 311 313 323 318 300 301 309 308 306 302 303 301 300 302 305 303 299 305 305 311 311 308 302 303 297 292 295 301 305 299 301 298 297 296 294
315 315 315 317 318 318 319 317 314 313 312 310 312 307 315 315 312 304 305 306 305 308 305 305 304 303 301 302 304 303 303 308 310 309 322 310 297 295 291 297 303 302 302 301 297 292 294
315 314 314 316 317 318 318 317 315 314 313 310 313 310 314 306 304 305 307 305 304 302 306 304 304 303 302 298 301 300 303 305 309 314 307 302 295 298 302 305 305 304 304 303 297 298 294
315 314 314 315 316 318 317 317 316 314 312 310 309 310 315 312 312 306 302 303 303 304 304 301 301 304 305 301 303 299 304 304 303 307 305 303 297 302 301 307 307 304 306 307 305 302 311
315 314 314 316 317 317 318 317 317 315 311 315 321 321 316 310 310 304 302 307 305 305 305 307 305 304 304 307 309 308 309 308 307 304 302 302 301 299 294 303 303 300 303 306 308 309 309
314 314 314 316 317 317 318 317 317 316 313 310 314 315 313 308 311 310 308 307 305 304 305 305 305 303 309 311 307 305 304 305 306 302 303 301 301 299 294 299 290 303 309 309 309 310 310
313 313 315 316 317 317 317 318 317 317 316 311 312 312 313 308 313 313 310 306 306 305 305 304 307 308 308 304 299 299 301 302 304 308 302 304 302 297 293 291 300 305 308 306 303 304 313
312 314 315 316 316 316 317 318 317 316 316 311 312 315 315 310 310 316 311 307 302 303 305 306 309 308 307 301 299 295 292 295 297 302 308 310 309 300 294 291 290 302 310 313 310 301 313
312 314 315 315 315 316 317 317 317 316 317 312 311 316 317 310 314 316 311 306 308 309 306 306 306 305 305 300 297 297 296 301 293 296 299 300 299 296 296 296 300 309 312 313 299 303 314
314 314 315 315 315 316 316 317 317 315 318 312 311 315 318 314 315 319 317 312 310 308 305 308 306 305 303 299 299 301 296 298 297 302 304 299 296 296 294 291 292 312 310 302 309 313 315
314 314 315 315 315 316 316 317 316 315 317 314 309 320 323 318 314 316 316 317 317 315 311 312 311 311 309 304 305 305 300 299 298 295 304 297 303 301 301 298 305 312 312 315 316 312 313

GFSGBSN_sfc_thetae_108.txt.gz
Theta_e
324 322 322 322 322 322 321 321 321 321 321 320 320 320 319 319 319 319 319 319 318 317 317 318 319 320 313 304 309 325 345 343 325 311 305 305 309 312 309 326 331 327 326 330 331 331 330
325 324 322 321 322 321 321 321 320 320 320 320 320 320 320 319 319 319 319 319 318 318 317 318 319 321 308 298 316 332 327 324 312 305 304 307 312 317 312 323 327 332 331 329 330 328 331
325 324 323 321 320 321 320 321 320 320 320 320 320 320 320 319 319 319 318 318 317 317 317 318 319 318 308 302 321 330 326 320 314 305 306 311 312 311 311 308 331 333 326 327 327 331 328
325 325 324 321 320 321 321 321 320 320 320 320 320 319 319 319 318 318 317 316 316 317 318 320 320 312 301 315 316 312 320 311 313 306 306 312 313 310 308 310 315 326 324 317 326 327 326
326 324 323 322 320 321 320 320 320 319 319 319 319 319 318 318 318 317 315 315 317 319 321 320 310 307 305 324 310 312 314 312 306 304 307 313 309 307 307 302 304 323 310 316 322 326 327
325 322 321 321 320 319 320 320 319 318 318 318 318 318 318 318 317 315 314 315 315 316 319 320 318 305 310 312 310 310 310 311 307 305 306 305 304 299 300 298 294 307 313 314 313 319 323
324 322 322 321 319 319 320 320 319 318 318 318 317 317 317 317 315 313 309 307 306 305 310 308 308 309 312 312 315 310 311 312 311 305 299 302 298 295 300 302 304 318 314 312 315 319 318
323 321 320 320 320 319 319 320 319 319 318 317 317 316 316 315 314 312 307 302 306 309 301 312 315 314 316 311 307 311 313 306 305 300 301 298 295 302 305 306 310 316 312 312 315 318 316
323 322 320 319 319 319 318 318 318 318 318 316 316 316 315 314 313 307 305 309 313 310 300 307 311 312 312 306 304 305 308 304 300 299 297 295 299 305 304 303 314 314 313 311 311 315 316
321 322 321 320 319 319 318 318 318 318 318 316 316 315 314 311 309 307 306 313 312 311 295 302 302 306 306 306 301 309 311 307 302 298 298 296 302 302 301 303 315 307 318 316 313 309 302
321 322 322 321 320 319 318 317 317 318 317 317 315 314 312 310 303 303 309 310 314 307 287 307 303 313 306 302 303 306 312 306 302 301 298 297 298 298 298 301 318 313 318 314 313 307 308
320 320 321 321 320 319 318 317 317 317 317 316 314 312 311 307 303 309 313 312 307 295 290 301 305 303 301 302 303 307 308 309 308 303 301 301 306 301 299 314 320 319 314 313 312 307 298
317 317 318 320 320 319 318 317 317 316 316 315 312 310 309 311 302 309 310 306 295 291 307 300 297 301 299 299 302 304 303 300 298 292 291 299 301 305 321 314 318 314 305 299 298 298 297
317 317 316 317 318 319 318 318 317 316 315 313 309 308 307 310 308 310 307 301 291 302 302 303 298 299 298 301 303 303 300 298 301 297 293 291 291 299 309 314 310 310 302 299 294 294 300
318 318 316 315 317 318 318 318 316 315 314 312 308 304 306 310 311 309 302 293 296 300 299 297 297 296 298 301 301 302 301 296 301 299 292 290 294 304 305 313 315 308 302 306 300 299 300
319 319 318 316 316 316 318 318 315 315 314 310 303 304 305 314 314 306 298 294 299 305 299 297 290 294 294 297 299 298 300 305 304 305 301 296 291 298 306 305 311 309 310 298 296 293 293
317 317 317 318 316 316 318 318 316 314 313 309 305 301 309 314 311 302 293 295 303 308 302 296 293 292 296 297 299 298 300 306 308 307 304 298 293 297 301 297 297 297 297 296 299 299 296
317 316 315 316 317 317 317 318 315 312 310 306 304 300 310 314 299 296 294 300 306 305 301 298 297 295 295 300 298 299 301 304 310 308 299 300 294 292 297 303 304 300 297 296 291 292 298
318 316 315 315 315 317 317 317 315 312 310 301 300 304 312 308 294 293 298 303 305 304 298 297 296 297 302 298 296 302 303 309 310 307 301 300 292 291 294 298 303 298 299 298 293 293 294
318 317 316 314 315 315 317 316 315 313 312 303 302 298 306 305 301 299 296 298 302 305 302 300 298 298 298 297 300 299 302 307 309 309 322 307 292 295 291 294 298 297 301 301 293 289 290
318 316 315 314 314 315 316 316 315 313 312 304 303 300 305 301 302 304 298 299 301 299 301 300 298 300 296 294 296 297 301 303 308 313 308 301 293 294 299 305 305 304 304 305 299 295 293
317 316 314 314 315 315 316 316 315 314 311 303 299 302 309 305 306 304 298 299 299 298 298 296 298 304 303 298 298 295 301 300 301 303 302 302 297 298 299 304 304 303 305 307 307 306 313
316 315 314 314 316 315 317 316 316 314 309 303 309 310 308 304 305 303 297 300 302 300 301 303 302 299 301 303 305 302 304 302 302 300 298 300 297 296 292 300 303 297 302 305 306 308 307
315 314 313 315 316 316 316 316 316 315 314 304 304 305 304 303 307 307 310 309 302 301 300 301 301 298 304 302 301 299 301 301 304 300 298 299 296 294 291 295 289 299 308 308 307 308 312
314 313 313 315 315 317 317 317 317 315 315 310 305 301 304 302 309 309 310 308 301 299 299 301 304 303 300 298 294 294 296 295 298 303 302 300 296 293 289 289 296 303 306 306 303 303 313
313 312 313 314 316 316 316 317 317 316 315 312 304 305 303 305 303 312 309 305 297 296 299 301 303 302 301 295 294 289 288 293 294 298 300 300 300 295 290 288 288 299 308 313 311 298 313
312 313 314 315 315 315 316 317 317 317 315 313 306 306 304 306 309 311 307 306 306 300 299 299 299 298 299 294 294 292 291 299 290 292 294 294 294 291 292 289 295 305 309 312 299 299 314
313 313 314 315 315 315 315 317 317 317 316 312 305 308 305 308 310 314 314 307 305 303 299 301 301 300 296 294 295 294 293 294 292 296 298 297 292 292 290 286 286 308 309 302 307 313 317
313 313 314 315 315 315 316 316 317 316 316 314 301 310 311 310 309 314 316 314 309 308 305 303 302 302 302 298 297 298 295 295 292 291 299 294 299 298 299 295 302 307 307 313 312 317 318

GFSGBSN_sfc_thetae_111.txt.gz
Theta_e
324 322 321 320 321 320 320 320 320 320 320 320 320 320 320 319 319 318 318 318 318 318 318 318 319 320 311 299 305 318 349 344 325 308 303 303 306 310 307 314 330 326 327 330 331 331 330
325 324 322 320 320 321 320 320 319 319 319 320 320 320 319 319 319 319 319 318 318 317 318 318 319 320 306 292 309 328 328 322 313 306 304 304 308 313 310 310 325 330 328 329 331 329 330
325 325 324 321 320 320 320 320 319 319 319 319 319 319 319 319 319 319 318 317 317 317 317 319 319 318 305 298 321 326 320 313 310 304 301 304 309 309 309 307 322 332 325 326 327 329 328
325 323 323 322 320 320 320 320 320 319 318 318 318 318 318 318 318 317 317 316 316 317 318 320 320 311 301 310 314 311 321 319 312 302 302 307 312 308 306 308 308 325 324 315 324 328 327
323 321 321 321 321 318 320 320 319 319 318 318 318 317 317 317 317 316 315 314 316 318 319 320 308 305 303 321 314 314 314 315 306 304 304 311 306 303 305 301 300 315 310 315 318 326 325
322 321 320 319 319 318 319 320 320 319 318 317 317 317 317 317 316 314 313 314 317 316 318 320 317 303 307 308 311 308 310 312 306 303 304 302 300 298 297 296 292 303 310 312 313 320 322
323 322 321 319 320 319 318 319 319 319 319 318 317 316 316 316 315 312 307 304 302 302 311 304 304 307 310 313 311 307 308 306 307 303 297 300 296 293 298 299 303 317 314 312 315 320 317
322 322 321 320 320 320 319 318 317 319 319 318 316 316 315 315 314 312 307 300 302 306 300 309 312 312 314 312 308 308 311 305 304 299 299 296 294 300 303 303 306 316 312 310 315 319 316
319 321 322 321 320 319 319 318 317 318 318 318 317 315 314 313 312 306 303 306 309 308 298 304 309 309 309 311 307 303 308 304 300 298 297 294 298 303 302 302 314 312 310 310 310 315 316
320 320 320 321 320 320 319 317 317 317 318 317 317 315 313 311 305 305 302 310 308 308 294 300 303 307 305 304 300 307 309 304 300 297 297 294 300 301 298 298 313 306 318 315 312 309 302
318 318 319 319 320 320 319 318 317 317 317 317 317 315 312 310 302 304 305 308 308 305 286 305 302 309 302 300 301 304 309 305 299 299 297 296 298 297 296 298 314 310 318 314 312 306 307
316 317 316 317 319 319 318 318 317 317 316 316 316 313 310 305 301 305 309 307 305 295 290 301 302 300 299 299 301 304 305 306 305 300 298 299 303 301 299 312 315 318 313 310 308 305 298
318 318 317 315 316 317 317 317 317 316 315 315 313 310 308 309 298 305 307 305 295 290 305 296 295 297 297 297 300 300 301 298 296 290 292 298 300 316 318 312 316 311 302 293 293 295 297
319 318 318 315 316 316 316 317 317 315 314 313 310 308 306 308 306 308 305 300 291 300 300 302 295 298 296 300 299 300 298 296 300 297 294 292 291 310 316 311 308 307 300 294 290 292 297
319 318 318 317 315 315 316 317 316 315 314 312 308 302 303 307 309 306 302 293 295 299 302 294 294 295 295 299 299 298 297 297 299 296 291 291 293 302 314 316 314 308 299 303 298 296 296
319 317 316 316 317 316 316 316 316 315 313 311 302 302 303 311 310 304 298 293 297 304 300 294 289 293 291 295 297 296 297 303 303 305 299 296 291 297 302 314 314 307 308 298 297 293 289
320 318 316 314 314 316 316 316 316 314 312 309 303 302 304 309 307 300 293 293 301 305 305 294 291 290 292 294 297 296 298 303 306 305 303 296 291 294 299 297 301 297 298 296 297 297 293
320 318 317 315 314 314 315 316 315 312 310 304 300 297 307 307 299 293 293 297 302 303 301 296 295 293 294 299 297 296 297 302 308 305 300 299 293 291 295 299 302 296 295 295 292 290 296
319 318 317 316 314 314 315 316 314 312 311 302 295 300 310 306 295 293 295 299 303 301 299 295 296 296 301 297 293 300 301 306 308 307 300 300 292 288 293 297 301 298 299 294 290 290 292
320 318 317 316 314 313 315 315 313 312 311 301 299 296 302 302 298 296 294 297 299 306 303 298 297 297 298 295 298 297 300 305 307 307 321 307 293 293 289 293 296 298 302 302 290 287 288
320 318 317 315 314 314 315 315 314 312 311 303 299 296 302 298 301 302 300 301 303 300 300 298 299 299 297 294 295 294 300 300 305 311 306 302 294 293 294 303 303 302 304 305 299 298 289
319 318 316 315 314 314 315 315 315 313 310 301 294 301 306 303 304 302 298 298 302 302 297 296 299 302 300 297 296 293 298 297 297 301 299 301 297 297 296 304 304 300 304 306 305 306 304
317 316 315 314 314 315 316 315 315 313 308 300 304 306 306 301 303 301 301 301 303 300 300 300 301 301 300 301 303 298 300 299 300 298 296 298 297 295 291 298 301 295 300 303 304 309 307
316 315 314 314 314 315 316 316 315 315 313 306 301 301 302 301 304 306 309 309 302 300 298 301 300 299 303 301 300 300 299 298 302 300 297 297 295 295 291 293 289 297 306 308 305 307 312
314 314 313 313 315 315 316 316 316 315 314 311 308 299 302 299 305 307 308 307 300 299 298 301 302 301 299 297 293 292 293 294 296 301 300 298 295 291 289 288 295 304 305 303 299 300 313
312 312 313 313 315 315 316 316 317 316 314 313 310 306 300 301 301 310 307 308 297 295 298 299 301 299 299 293 296 287 286 291 292 297 297 299 296 293 290 287 287 299 307 311 308 296 313
312 312 313 314 315 315 315 315 317 317 314 313 309 304 300 300 306 309 306 305 308 299 297 296 298 297 297 292 293 289 289 297 289 290 291 292 292 290 291 288 293 302 308 309 295 297 314
312 313 313 314 315 315 315 315 316 317 316 313 307 306 302 300 304 312 313 307 305 300 296 298 299 298 294 293 294 292 291 293 290 294 295 295 291 289 288 285 286 305 306 299 303 310 315
312 312 313 314 314 315 315 315 316 317 315 315 304 306 306 299 303 313 317 318 314 310 302 300 301 299 299 296 295 295 293 293 290 289 298 295 297 294 296 294 300 304 305 308 312 314 315

GFSGBSN_sfc_thetae_114.txt.gz
Theta_e
324 323 321 319 320 321 320 320 320 320 319 320 320 320 320 319 320 319 319 319 318 318 318 318 319 320 309 295 300 327 341 340 326 306 302 303 307 309 306 311 329 324 328 330 331 330 330
324 324 323 321 319 320 320 320 319 319 319 319 319 319 319 319 319 319 319 318 318 318 318 318 320 321 303 290 306 329 329 317 310 304 301 303 307 311 309 309 320 329 328 329 331 329 330
323 321 322 321 319 319 320 320 319 319 318 318 318 318 318 318 319 319 318 317 316 317 318 318 319 317 302 296 319 321 318 312 307 304 300 302 308 309 308 305 315 328 324 325 328 329 328
321 320 321 320 320 318 319 319 320 319 318 318 317 318 318 318 318 317 316 315 315 317 318 320 320 309 301 308 312 312 318 317 312 301 302 304 309 307 305 307 311 323 322 314 323 329 328
322 321 321 319 320 319 318 319 319 320 320 319 318 317 317 317 316 316 314 313 316 317 319 320 307 304 300 320 312 313 316 311 307 302 303 310 306 301 303 299 298 310 307 314 317 325 326
323 322 321 320 319 319 318 317 317 318 319 319 318 317 316 316 316 314 312 313 319 319 318 320 316 301 305 306 310 307 308 309 305 301 301 300 300 297 296 294 291 302 308 312 313 320 321
321 322 322 321 320 319 319 318 317 317 319 319 319 317 316 315 314 312 306 303 300 301 308 302 302 305 308 312 311 304 308 308 305 301 296 298 295 292 295 298 302 314 312 310 315 321 318
321 321 320 321 320 320 318 318 317 317 318 319 318 317 316 314 313 312 304 302 300 304 299 307 309 309 312 311 306 307 309 303 302 297 297 295 291 298 301 301 303 314 310 309 314 319 316
319 319 320 320 320 320 319 319 318 317 318 318 317 317 315 313 312 306 302 303 308 306 297 303 307 307 306 310 305 304 307 303 299 297 295 293 297 302 301 306 310 311 308 309 310 315 316
317 316 317 318 318 319 319 319 318 317 317 317 317 317 314 310 302 302 302 307 306 305 294 299 301 307 304 303 298 306 307 303 299 295 297 294 298 299 297 297 308 304 315 314 312 308 301
318 317 317 315 316 317 318 318 318 317 315 316 316 315 313 309 300 299 303 305 305 303 285 303 301 306 300 299 300 302 306 304 297 297 296 294 296 296 295 296 310 304 317 312 311 305 305
319 318 318 316 315 315 316 316 317 316 315 316 315 313 311 304 300 304 306 305 304 295 288 301 301 299 298 298 299 302 303 305 303 298 296 298 301 299 298 310 312 316 311 308 306 303 296
320 319 318 318 316 315 315 316 316 316 315 314 313 311 309 308 297 303 304 304 294 289 302 297 292 295 296 296 298 298 298 296 294 290 288 296 297 312 316 310 314 310 299 292 291 292 294
319 317 318 316 316 315 315 315 315 315 314 313 310 308 306 306 305 306 304 300 288 298 298 299 294 296 294 299 298 298 296 294 297 294 290 288 289 310 315 310 306 304 298 292 287 289 294
320 319 317 316 314 315 316 315 315 314 314 312 308 301 301 304 307 304 302 292 294 297 301 292 292 292 293 297 298 298 297 295 297 295 291 288 290 300 314 315 313 306 299 302 296 293 295
321 320 318 317 315 314 314 315 315 314 313 311 301 301 303 308 308 302 297 293 296 302 301 293 287 291 289 294 295 295 295 301 300 302 297 295 290 297 301 314 313 307 310 298 296 289 288
321 320 318 317 316 314 314 314 315 314 312 309 302 299 302 307 303 300 292 292 299 303 303 293 291 289 290 293 295 295 296 301 304 303 298 295 291 294 297 297 303 298 299 297 297 296 292
321 320 318 317 316 314 314 314 314 312 310 304 296 296 305 304 297 290 292 296 300 301 299 294 294 292 294 297 295 295 296 300 306 303 296 296 293 290 295 300 301 299 299 297 292 289 295
320 320 319 317 316 315 313 313 313 311 311 305 292 296 307 304 293 292 294 297 300 299 298 295 295 295 299 296 293 297 299 304 306 303 297 297 291 290 293 296 301 297 300 293 290 290 293
320 320 319 318 316 315 314 314 313 311 311 301 296 293 301 300 296 295 293 296 297 304 301 298 297 300 297 295 295 293 298 303 305 304 319 306 291 294 290 293 299 299 302 303 289 286 288
320 320 319 317 316 315 315 314 313 312 311 302 296 293 299 296 298 299 298 300 302 301 299 297 300 297 298 293 293 294 297 299 302 307 302 298 291 295 296 301 304 303 302 304 297 297 289
319 319 318 316 315 315 316 315 314 313 309 300 292 299 302 301 302 301 299 300 300 300 298 294 299 301 299 295 296 293 296 295 296 299 297 298 293 299 298 302 302 300 302 305 305 307 305
317 317 317 316 315 315 316 316 314 313 307 299 301 302 303 299 300 299 300 300 305 303 298 300 303 301 299 299 300 298 298 297 298 295 296 298 296 294 292 298 299 296 299 302 304 309 308
316 316 315 315 313 315 315 316 315 314 313 308 301 300 301 298 301 303 307 309 307 305 296 300 303 300 301 302 300 300 298 296 300 299 296 298 294 296 292 294 287 298 307 306 304 307 311
314 314 313 313 313 315 315 316 316 315 314 311 308 300 302 300 303 305 307 305 301 296 296 299 300 300 299 296 293 291 291 292 295 299 297 296 295 291 290 289 293 303 306 304 300 301 311
313 312 313 314 315 315 315 315 317 316 314 312 311 309 300 301 301 308 306 306 295 293 296 299 299 297 298 295 293 286 286 289 290 294 296 298 295 293 290 286 286 297 307 311 307 297 311
311 311 312 314 314 315 315 315 315 316 315 312 310 308 301 300 305 307 304 302 304 298 296 295 297 296 296 293 291 288 289 295 288 289 292 291 291 289 289 288 293 301 309 312 296 298 313
310 311 313 313 314 315 315 315 315 316 317 312 309 307 304 297 299 308 311 305 304 299 296 296 298 297 293 292 292 291 290 293 290 292 293 292 290 288 288 286 286 306 307 302 305 313 315
310 311 313 313 314 315 315 315 315 316 316 315 307 305 306 299 299 307 310 313 314 311 303 299 298 297 297 294 294 294 292 292 289 289 296 293 295 292 293 292 300 303 305 310 312 314 314

GFSGBSN_sfc_thetae_117.txt.gz
Theta_e
324 324 322 320 319 320 320 320 320 319 319 319 319 320 319 319 319 320 320 320 318 318 318 319 320 321 315 303 304 329 340 339 327 311 308 311 319 316 314 314 325 325 329 329 330 326 325
321 322 322 321 319 318 320 320 320 319 319 318 318 319 319 318 319 319 319 319 318 317 318 319 320 321 310 300 314 332 330 319 313 311 308 310 316 317 314 312 320 331 331 331 332 330 329
321 321 321 321 320 318 318 319 319 320 320 319 318 318 318 318 318 318 318 317 315 316 318 319 320 319 307 303 323 330 322 317 314 312 309 309 315 317 315 311 318 332 326 329 329 330 327
322 321 321 320 320 319 318 317 317 318 318 320 320 318 317 317 317 317 316 313 313 316 318 319 320 316 307 313 316 317 322 321 315 311 310 310 312 314 313 313 327 326 325 318 325 328 329
322 322 321 321 320 320 319 318 318 317 318 319 320 319 318 317 316 316 313 313 317 317 319 321 316 312 307 322 316 318 322 316 312 310 310 312 312 310 310 308 311 320 312 316 318 327 326
320 320 320 322 321 320 318 318 318 317 317 319 319 319 318 317 315 314 312 314 320 321 321 321 318 309 312 311 316 313 317 314 309 308 307 307 309 308 307 307 301 310 313 316 316 321 321
320 321 321 320 320 320 319 319 318 317 317 319 319 318 317 317 315 312 310 312 311 310 315 309 309 309 311 317 316 310 315 314 311 308 303 305 305 305 305 306 309 312 314 314 318 323 319
318 318 318 319 319 319 320 320 319 318 317 318 317 317 317 316 313 311 310 311 310 311 305 310 310 311 314 316 310 310 315 309 307 305 305 304 303 305 307 307 312 313 312 314 317 320 319
317 317 316 316 317 318 318 319 318 318 316 316 316 316 315 313 312 310 308 311 312 312 306 308 311 311 313 315 309 309 311 310 307 304 304 302 304 306 306 309 310 312 309 314 313 317 318
319 318 318 316 315 315 316 317 317 317 316 315 316 316 313 310 306 306 309 312 312 312 304 305 308 311 313 312 305 312 313 310 305 303 304 304 304 303 303 302 307 303 316 316 315 313 308
320 320 319 317 316 315 316 316 315 315 316 315 315 314 311 310 307 305 309 310 312 310 292 308 307 313 308 306 308 306 312 309 304 302 303 302 302 302 301 302 307 303 319 317 316 312 311
321 319 318 318 317 317 316 314 315 314 314 315 315 313 311 308 307 309 310 311 312 303 291 303 306 305 305 306 306 308 308 311 309 304 304 304 306 305 304 314 309 320 316 314 313 311 304
321 319 318 317 316 316 316 316 315 315 314 313 312 310 309 311 305 309 310 313 303 296 305 300 299 302 303 303 304 305 304 304 302 298 299 302 303 312 319 314 318 316 312 302 300 302 300
321 320 319 318 316 315 314 314 315 315 314 312 310 308 309 310 311 310 311 309 297 301 303 303 300 303 301 304 304 303 302 301 304 303 301 298 295 312 318 313 310 312 307 298 293 297 302
322 321 320 318 317 316 315 313 313 314 313 311 308 309 309 311 312 311 311 301 301 304 306 299 299 299 300 303 304 305 304 302 305 304 300 298 298 306 319 319 317 311 307 310 305 307 303
322 321 321 319 317 316 315 314 313 314 313 311 308 310 312 312 312 311 307 298 304 307 307 300 296 299 297 300 302 303 304 307 305 307 306 303 298 303 308 319 317 315 316 305 308 296 295
322 321 321 319 318 316 315 314 313 313 312 309 309 308 310 313 309 310 300 302 304 308 308 301 298 297 299 301 303 303 303 307 308 307 307 304 301 302 303 308 307 310 309 309 309 307 298
321 320 320 319 318 316 315 314 313 312 310 309 302 304 312 311 306 301 302 303 301 306 306 302 301 300 300 303 303 302 302 305 309 309 304 305 303 299 302 306 306 312 310 310 303 300 305
320 319 320 319 318 316 315 314 313 311 311 308 301 303 314 310 300 302 302 302 304 304 305 301 300 302 306 304 300 304 304 308 309 308 306 305 301 297 299 304 307 306 310 306 303 305 304
319 320 320 319 318 316 316 314 312 311 311 309 303 301 308 309 305 304 302 303 303 306 306 305 302 307 305 303 305 302 303 306 308 308 318 310 302 300 295 300 305 305 307 310 304 300 302
319 320 320 318 317 316 315 315 313 312 311 308 302 299 305 303 304 304 305 306 304 304 306 304 303 304 304 301 302 302 304 305 306 309 309 307 301 301 302 306 307 305 306 308 304 307 298
319 319 318 318 317 315 316 316 314 313 309 307 300 306 309 308 307 307 304 306 305 307 306 300 303 304 306 303 304 302 304 305 305 307 307 307 302 304 302 306 305 304 304 308 310 310 311
317 317 316 316 315 314 315 316 315 313 310 305 305 308 308 303 306 306 306 306 305 309 308 304 306 305 303 305 308 306 307 308 308 306 305 306 306 302 297 303 302 298 302 304 309 312 312
315 315 315 314 313 314 315 316 315 314 313 311 307 304 304 301 306 307 309 309 309 309 307 303 309 308 308 310 310 310 308 308 308 308 307 305 305 305 299 301 291 303 310 310 308 310 315
313 312 312 312 314 315 315 316 316 315 314 313 310 306 304 302 307 307 308 309 309 304 306 305 306 308 311 306 303 299 302 302 303 306 307 306 305 300 298 297 299 304 307 306 305 306 315
312 311 311 313 314 315 315 315 316 316 314 314 311 311 305 303 302 309 308 309 303 301 302 303 304 307 308 305 302 297 296 298 298 302 306 306 306 302 298 294 291 303 309 312 311 303 315
311 310 311 312 313 314 315 315 315 316 315 313 311 312 305 301 306 311 308 307 308 304 302 303 304 304 307 304 300 299 300 302 298 298 300 302 302 299 299 298 300 306 310 313 300 304 318
311 310 311 313 313 314 315 316 315 315 316 314 310 311 307 301 304 308 313 309 308 306 302 303 304 303 304 303 301 302 301 303 300 301 302 302 301 301 299 298 294 309 310 306 311 317 321
312 311 312 312 312 314 315 316 316 316 316 315 308 309 311 305 306 308 310 311 314 314 310 307 305 306 307 303 304 304 302 301 300 299 304 302 305 305 304 304 309 312 312 316 317 319 321

GFSGBSN_sfc_thetae_120.txt.gz
Theta_e
322 323 322 321 319 318 319 320 320 320 320 320 319 319 319 319 319 320 320 320 320 319 318 319 321 321 321 312 311 330 343 339 328 318 315 324 328 328 324 322 326 327 329 329 332 330 330
322 322 321 321 320 319 318 318 318 319 319 320 320 319 319 318 319 319 319 319 318 318 319 320 321 321 317 308 324 329 327 322 319 316 314 322 328 329 323 317 324 332 333 333 333 332 331
322 322 321 321 320 319 319 318 318 318 319 319 320 320 320 319 318 318 318 317 315 315 318 320 321 321 313 312 328 326 322 320 319 317 313 316 324 328 323 316 330 334 328 331 331 331 329
322 322 321 321 320 320 319 319 318 318 318 318 320 320 320 319 319 317 316 314 315 316 318 320 322 323 312 317 322 324 325 324 320 318 315 316 320 326 321 318 329 327 326 320 328 331 332
321 322 321 321 321 320 320 319 319 319 318 318 320 319 319 319 318 317 314 314 318 318 320 322 324 320 310 322 318 321 323 319 316 316 314 314 319 321 320 315 315 319 314 317 322 331 328
320 320 321 321 320 320 320 320 320 319 319 318 318 317 317 317 317 315 313 314 320 322 324 324 323 316 316 314 319 320 324 320 313 311 310 310 315 315 318 314 305 309 312 315 317 326 328
318 317 318 318 319 319 320 320 320 319 318 318 317 316 316 315 314 313 314 321 319 318 320 314 314 313 314 319 319 316 320 317 314 309 305 310 307 307 312 315 313 313 312 312 322 326 325
319 318 318 317 316 317 318 318 318 318 318 317 316 316 315 314 313 312 316 317 315 315 311 316 315 316 318 319 312 314 320 313 311 306 308 307 304 311 313 312 313 313 311 312 321 325 323
321 319 319 318 318 317 315 316 316 316 316 316 316 316 315 313 312 314 316 316 319 317 313 314 316 315 316 318 310 312 317 314 310 307 306 304 308 312 311 310 309 311 310 310 314 321 323
321 320 319 319 318 317 316 316 316 316 315 315 316 316 314 310 311 315 316 318 318 317 309 308 312 315 318 317 309 316 318 314 309 306 307 307 310 308 309 307 310 306 313 312 318 315 311
321 320 319 318 318 318 317 317 316 316 315 316 315 314 312 310 317 313 316 317 321 318 297 310 311 319 316 311 311 311 317 313 307 307 308 305 306 306 305 306 309 306 313 313 318 315 314
322 321 320 319 318 317 316 315 315 315 315 316 314 313 311 316 317 317 316 318 319 306 295 306 310 308 308 310 310 312 311 315 313 308 308 307 310 308 308 310 309 314 313 316 318 315 305
323 321 321 319 318 317 316 315 314 314 314 314 312 311 311 317 316 317 317 318 306 300 308 303 304 308 308 307 308 309 308 308 306 302 302 305 306 309 310 308 312 314 310 303 301 302 301
323 322 321 320 318 317 316 315 314 313 313 312 310 309 313 316 320 317 314 311 301 304 304 306 306 308 305 308 308 307 307 305 309 307 305 301 299 307 313 310 309 310 309 302 295 298 302
322 322 321 320 319 318 316 315 314 313 313 311 309 320 317 321 319 318 312 304 304 306 307 304 306 304 305 307 308 308 307 306 308 309 303 303 301 310 315 316 316 310 308 312 305 306 303
322 322 321 320 319 318 317 315 314 313 313 311 316 316 319 320 319 315 310 303 309 310 309 306 302 304 301 304 305 305 306 309 308 311 313 307 301 308 313 319 319 317 318 306 306 298 297
321 321 320 320 320 318 317 315 314 313 312 311 315 311 317 321 316 312 305 308 311 312 310 304 302 301 302 301 304 304 305 310 311 310 312 310 306 305 310 310 308 312 311 312 310 308 299
320 320 319 319 319 318 317 315 314 312 310 313 311 305 317 318 307 309 306 309 305 310 312 307 306 304 303 303 303 304 304 308 312 310 306 310 306 302 305 311 312 310 311 311 305 303 308
319 319 319 319 319 318 316 315 313 311 311 313 312 311 319 316 303 305 309 308 310 310 309 306 304 306 308 304 301 303 305 311 312 309 307 310 303 299 301 307 311 308 311 313 311 311 300
319 319 320 320 319 317 316 315 313 311 311 314 310 304 311 311 313 308 305 306 307 310 309 309 306 308 307 306 308 304 304 309 311 310 316 312 303 301 297 301 305 307 309 312 311 305 303
319 319 320 319 318 317 316 315 314 312 311 313 309 305 311 303 306 308 308 306 306 307 311 312 308 307 306 304 304 304 306 307 310 310 312 310 302 304 304 305 308 307 308 309 309 309 305
319 318 317 317 317 316 315 316 315 313 311 313 307 308 315 312 313 308 304 307 306 309 310 306 307 308 308 306 305 303 306 307 306 311 311 312 304 306 303 305 307 305 307 308 310 311 312
317 316 316 316 315 314 315 316 315 313 311 312 312 313 311 306 311 309 306 307 307 310 313 313 309 308 306 308 310 312 313 311 311 309 308 308 307 305 300 304 305 301 305 307 309 312 312
315 314 314 313 313 314 315 316 315 314 313 313 313 308 304 303 307 310 310 312 310 312 311 309 313 309 312 317 316 313 312 311 311 310 311 308 308 306 301 301 294 305 312 311 309 311 314
313 313 312 312 313 315 315 316 316 315 314 314 314 310 304 302 306 308 311 313 315 315 313 312 310 314 318 314 307 304 304 304 305 307 309 311 308 302 300 298 301 305 309 309 308 307 312
313 312 311 312 313 314 315 316 316 315 314 315 313 314 309 303 303 309 310 312 311 310 308 308 310 318 315 309 305 299 298 301 300 304 311 310 312 305 301 296 293 306 313 315 314 304 316
312 312 311 312 313 314 315 316 316 316 314 315 314 315 309 303 308 309 308 309 314 309 308 307 308 308 313 306 302 302 300 306 300 300 304 305 306 302 300 299 301 310 314 316 303 308 321
313 312 311 312 313 313 314 315 316 315 316 315 313 317 309 306 308 311 312 312 313 311 306 309 306 308 307 304 304 304 301 306 304 306 305 304 303 303 304 300 296 313 313 308 316 323 325
314 313 312 312 313 312 313 315 316 316 316 316 311 315 314 306 309 314 314 315 314 314 312 311 311 310 310 307 309 310 304 308 306 301 310 305 309 309 306 306 315 319 317 320 321 323 327